[[{"header":{"parameterUnit":"m.s-1","parameterCategory":1,"la1":30.6,"la2":29.2853,"lo1":-89.7004,"lo2":-87.6739,"dy":0.0162,"dx":0.0183,"nx":112,"ny":82,"refTime":"2024-04-02T18:00:00:Z","depth":0,"parameterNumber":2,"parameterNumberName":"U-component_of_WINDS"},"data":[0.0,0.0,0.0,0.0,0.0,0.0,0.0,0.0,0.0,0.0,0.0,0.0,0.0,0.0,0.0,0.0,0.0,0.0,0.0,0.0,0.0,0.0,0.0,0.0,0.0,0.0,0.0,0.0,0.0,0.0,0.0,0.0,0.0,0.0,0.0,0.0,0.0,0.0,0.0,0.0,0.0,0.0,0.0,0.0,0.0,0.0,0.0,0.0,0.0,0.0,0.0,0.0,0.0,0.0,0.0,0.0,0.0,0.0,0.0,0.0,0.0,0.0,0.0,0.0,0.0,0.0,0.0,0.0,0.0,0.0,0.0,0.0,0.0,0.0,0.0,0.0,0.0,0.0,0.0,0.0,0.0,0.0,0.0,0.0,0.0,0.0,0.0,0.0,0.0,0.0,0.0,3.4397,3.4563,3.4647,3.4647,3.4647,3.4647,3.4647,0.0,0.0,0.0,0.0,0.0,0.0,0.0,0.0,0.0,0.0,0.0,0.0,0.0,0.0,0.0,0.0,0.0,0.0,0.0,0.0,0.0,0.0,0.0,0.0,0.0,0.0,0.0,0.0,0.0,0.0,0.0,0.0,0.0,0.0,0.0,0.0,0.0,0.0,0.0,0.0,0.0,0.0,0.0,0.0,0.0,0.0,0.0,0.0,0.0,0.0,0.0,0.0,0.0,0.0,0.0,0.0,0.0,0.0,0.0,0.0,0.0,0.0,0.0,0.0,0.0,0.0,0.0,0.0,0.0,0.0,0.0,0.0,0.0,0.0,0.0,0.0,0.0,0.0,0.0,0.0,0.0,0.0,0.0,0.0,0.0,0.0,0.0,0.0,0.0,0.0,0.0,0.0,0.0,0.0,0.0,0.0,0.0,0.0,0.0,0.0,0.0,0.0,0.0,0.0,3.4397,3.4397,3.4431,3.4448,3.4448,3.4448,3.4448,3.4448,0.0,0.0,0.0,0.0,0.0,0.0,0.0,0.0,0.0,0.0,0.0,0.0,0.0,0.0,0.0,0.0,0.0,0.0,0.0,0.0,0.0,0.0,0.0,0.0,0.0,0.0,0.0,0.0,0.0,0.0,0.0,0.0,0.0,0.0,0.0,0.0,0.0,0.0,0.0,0.0,0.0,0.0,0.0,0.0,0.0,0.0,0.0,0.0,0.0,0.0,0.0,0.0,0.0,0.0,0.0,0.0,0.0,0.0,0.0,0.0,0.0,0.0,0.0,0.0,0.0,0.0,0.0,0.0,0.0,0.0,0.0,0.0,0.0,0.0,0.0,0.0,0.0,0.0,0.0,0.0,0.0,0.0,0.0,0.0,0.0,0.0,0.0,0.0,0.0,0.0,0.0,0.0,0.0,0.0,0.0,0.0,0.0,0.0,0.0,0.0,0.0,0.0,0.0,3.4397,3.4397,3.4397,3.4397,3.4397,3.4397,3.4397,3.4397,3.4397,3.4481,0.0,0.0,0.0,0.0,0.0,0.0,0.0,0.0,0.0,0.0,0.0,0.0,0.0,0.0,0.0,0.0,0.0,0.0,0.0,0.0,0.0,0.0,0.0,0.0,0.0,0.0,0.0,0.0,0.0,0.0,0.0,0.0,0.0,0.0,0.0,0.0,0.0,0.0,0.0,0.0,0.0,0.0,0.0,0.0,0.0,0.0,0.0,0.0,0.0,0.0,0.0,0.0,0.0,0.0,0.0,0.0,0.0,0.0,0.0,0.0,0.0,0.0,0.0,0.0,0.0,0.0,0.0,0.0,0.0,0.0,0.0,0.0,0.0,0.0,0.0,0.0,0.0,0.0,0.0,0.0,0.0,0.0,0.0,0.0,0.0,0.0,0.0,0.0,0.0,0.0,0.0,0.0,0.0,0.0,0.0,0.0,0.0,0.0,0.0,0.0,0.0,0.0,3.4397,3.4397,3.4397,3.4397,3.4397,3.4397,3.4397,3.4397,3.4397,3.4397,0.0,0.0,0.0,0.0,0.0,0.0,0.0,0.0,0.0,0.0,0.0,0.0,0.0,0.0,0.0,0.0,0.0,0.0,0.0,0.0,0.0,0.0,0.0,0.0,0.0,0.0,0.0,0.0,0.0,0.0,0.0,0.0,0.0,0.0,0.0,0.0,0.0,0.0,0.0,0.0,0.0,0.0,0.0,0.0,0.0,0.0,0.0,0.0,0.0,0.0,0.0,0.0,0.0,0.0,0.0,0.0,0.0,0.0,0.0,0.0,0.0,0.0,0.0,0.0,0.0,0.0,0.0,0.0,0.0,0.0,0.0,0.0,0.0,0.0,0.0,0.0,0.0,0.0,0.0,0.0,0.0,0.0,0.0,0.0,0.0,0.0,0.0,0.0,0.0,0.0,0.0,0.0,0.0,0.0,0.0,0.0,0.0,0.0,0.0,0.0,0.0,0.0,3.4397,3.4397,3.4397,3.4397,3.4397,3.4397,3.4397,3.4397,3.4397,3.4397,0.0,0.0,0.0,0.0,0.0,0.0,0.0,0.0,0.0,0.0,0.0,0.0,0.0,0.0,0.0,0.0,0.0,0.0,0.0,0.0,0.0,0.0,0.0,0.0,0.0,0.0,0.0,0.0,0.0,0.0,0.0,0.0,0.0,0.0,0.0,0.0,0.0,0.0,0.0,0.0,0.0,0.0,0.0,0.0,0.0,0.0,0.0,0.0,0.0,0.0,0.0,0.0,0.0,0.0,0.0,0.0,0.0,0.0,0.0,0.0,0.0,0.0,0.0,0.0,0.0,0.0,0.0,0.0,0.0,0.0,0.0,0.0,0.0,0.0,0.0,0.0,0.0,0.0,0.0,0.0,0.0,0.0,0.0,0.0,0.0,0.0,0.0,0.0,0.0,0.0,0.0,0.0,0.0,0.0,0.0,0.0,0.0,0.0,0.0,0.0,0.0,0.0,3.4762,3.5026,0.0,3.5357,3.5572,3.5572,3.5241,3.5026,3.5026,0.0,0.0,0.0,0.0,0.0,0.0,0.0,0.0,0.0,0.0,0.0,0.0,0.0,0.0,0.0,0.0,0.0,0.0,0.0,0.0,0.0,0.0,0.0,0.0,0.0,0.0,0.0,0.0,0.0,0.0,0.0,0.0,0.0,0.0,0.0,0.0,0.0,0.0,0.0,0.0,0.0,0.0,0.0,0.0,0.0,0.0,0.0,0.0,0.0,0.0,0.0,0.0,0.0,0.0,0.0,0.0,0.0,0.0,0.0,0.0,0.0,0.0,0.0,0.0,0.0,0.0,0.0,0.0,0.0,0.0,0.0,0.0,0.0,0.0,0.0,0.0,0.0,0.0,0.0,0.0,0.0,0.0,0.0,0.0,0.0,0.0,0.0,0.0,0.0,0.0,0.0,0.0,0.0,0.0,0.0,0.0,0.0,0.0,0.0,0.0,0.0,0.0,3.498,3.5386,3.568,0.0,3.604,3.6301,3.6301,3.5927,3.568,3.568,0.0,0.0,0.0,0.0,0.0,0.0,0.0,0.0,0.0,0.0,0.0,0.0,0.0,0.0,0.0,0.0,0.0,0.0,0.0,0.0,0.0,0.0,0.0,0.0,0.0,0.0,0.0,0.0,0.0,0.0,0.0,0.0,0.0,0.0,0.0,0.0,0.0,0.0,0.0,0.0,0.0,0.0,0.0,0.0,0.0,0.0,0.0,0.0,0.0,0.0,0.0,0.0,0.0,0.0,0.0,0.0,0.0,0.0,0.0,0.0,0.0,0.0,0.0,0.0,0.0,0.0,0.0,0.0,0.0,0.0,0.0,0.0,0.0,0.0,0.0,0.0,0.0,0.0,0.0,0.0,0.0,0.0,0.0,0.0,0.0,0.0,0.0,0.0,0.0,0.0,0.0,0.0,0.0,0.0,0.0,0.0,0.0,0.0,0.0,0.0,0.0,0.0,3.6228,3.6315,3.6315,3.6315,3.633,3.633,3.633,3.633,3.6315,0.0,0.0,0.0,0.0,0.0,0.0,0.0,0.0,0.0,0.0,0.0,0.0,0.0,0.0,0.0,0.0,0.0,0.0,0.0,0.0,0.0,0.0,0.0,0.0,0.0,0.0,0.0,0.0,0.0,0.0,0.0,0.0,0.0,0.0,0.0,0.0,0.0,0.0,0.0,0.0,0.0,0.0,0.0,0.0,0.0,0.0,0.0,0.0,0.0,0.0,0.0,0.0,0.0,0.0,0.0,0.0,0.0,0.0,0.0,0.0,0.0,0.0,0.0,0.0,0.0,0.0,0.0,0.0,0.0,0.0,0.0,0.0,0.0,0.0,0.0,0.0,0.0,0.0,0.0,0.0,0.0,0.0,0.0,0.0,0.0,0.0,0.0,0.0,0.0,0.0,0.0,0.0,0.0,0.0,0.0,0.0,0.0,0.0,0.0,0.0,0.0,0.0,0.0,3.6286,3.6722,3.7012,3.7012,3.7389,3.7651,3.7651,3.7259,3.7012,3.7012,0.0,0.0,0.0,0.0,0.0,0.0,0.0,0.0,0.0,0.0,0.0,0.0,0.0,0.0,0.0,0.0,0.0,0.0,0.0,0.0,0.0,0.0,0.0,0.0,0.0,0.0,0.0,0.0,0.0,0.0,0.0,0.0,0.0,0.0,0.0,0.0,0.0,0.0,0.0,0.0,0.0,0.0,0.0,0.0,0.0,0.0,0.0,0.0,0.0,0.0,0.0,0.0,0.0,0.0,0.0,0.0,0.0,0.0,0.0,0.0,0.0,0.0,0.0,0.0,0.0,0.0,0.0,0.0,0.0,0.0,0.0,0.0,0.0,0.0,0.0,0.0,0.0,0.0,0.0,0.0,0.0,0.0,0.0,0.0,0.0,0.0,0.0,0.0,0.0,0.0,0.0,0.0,0.0,0.0,0.0,0.0,0.0,0.0,0.0,0.0,0.0,0.0,3.7041,3.7418,3.7665,3.7665,3.7984,3.8202,3.8202,3.7868,3.7665,3.7665,0.0,0.0,0.0,0.0,0.0,0.0,0.0,0.0,0.0,0.0,0.0,0.0,0.0,0.0,0.0,0.0,0.0,0.0,0.0,0.0,0.0,0.0,0.0,0.0,0.0,0.0,0.0,0.0,0.0,0.0,0.0,0.0,0.0,0.0,0.0,0.0,0.0,0.0,0.0,0.0,0.0,0.0,0.0,0.0,0.0,0.0,0.0,0.0,0.0,0.0,0.0,0.0,0.0,0.0,0.0,0.0,0.0,0.0,0.0,0.0,0.0,0.0,0.0,0.0,0.0,0.0,0.0,0.0,0.0,0.0,0.0,0.0,0.0,0.0,0.0,0.0,0.0,0.0,0.0,0.0,0.0,0.0,0.0,0.0,0.0,0.0,0.0,0.0,0.0,0.0,0.0,0.0,0.0,0.0,0.0,0.0,0.0,0.0,0.0,0.0,0.0,0.0,3.813,3.8202,3.8202,3.8202,3.8202,3.8202,3.8202,3.8202,3.8202,3.8202,0.0,0.0,0.0,0.0,0.0,0.0,0.0,0.0,0.0,0.0,0.0,0.0,0.0,0.0,0.0,0.0,0.0,0.0,0.0,0.0,0.0,0.0,0.0,0.0,0.0,0.0,0.0,0.0,0.0,0.0,0.0,0.0,0.0,0.0,0.0,0.0,0.0,0.0,0.0,0.0,0.0,0.0,0.0,0.0,0.0,0.0,0.0,0.0,0.0,0.0,0.0,0.0,0.0,0.0,0.0,0.0,0.0,0.0,0.0,0.0,2.9204,0.0,0.0,0.0,0.0,0.0,0.0,0.0,0.0,0.0,0.0,0.0,0.0,0.0,0.0,0.0,0.0,0.0,0.0,0.0,0.0,0.0,0.0,0.0,0.0,0.0,0.0,0.0,0.0,0.0,0.0,0.0,0.0,0.0,0.0,0.0,0.0,0.0,0.0,0.0,0.0,0.0,3.8188,3.8202,3.8202,3.8202,3.8202,3.8202,3.8202,3.8202,3.8202,3.8202,0.0,0.0,0.0,0.0,0.0,0.0,0.0,0.0,0.0,0.0,0.0,0.0,0.0,0.0,0.0,0.0,0.0,0.0,0.0,0.0,0.0,0.0,0.0,0.0,0.0,0.0,0.0,0.0,0.0,0.0,0.0,0.0,0.0,0.0,0.0,0.0,0.0,0.0,0.0,0.0,0.0,0.0,0.0,0.0,0.0,0.0,0.0,0.0,0.0,0.0,0.0,0.0,0.0,0.0,0.0,0.0,0.0,0.0,0.0,0.0,0.0,2.9893,0.0,0.0,0.0,0.0,0.0,0.0,0.0,0.0,0.0,0.0,0.0,0.0,0.0,0.0,0.0,0.0,0.0,0.0,0.0,0.0,0.0,0.0,0.0,0.0,0.0,0.0,0.0,0.0,0.0,0.0,0.0,0.0,0.0,0.0,0.0,0.0,0.0,0.0,0.0,0.0,3.8725,3.8681,3.8565,3.8231,3.8202,3.8202,3.8202,3.8202,3.8202,3.8202,3.8202,0.0,0.0,0.0,0.0,0.0,0.0,0.0,0.0,0.0,0.0,0.0,0.0,0.0,0.0,0.0,0.0,0.0,0.0,0.0,0.0,0.0,0.0,0.0,0.0,0.0,0.0,0.0,0.0,0.0,0.0,0.0,0.0,0.0,0.0,0.0,0.0,0.0,0.0,0.0,0.0,0.0,0.0,0.0,0.0,0.0,0.0,0.0,0.0,0.0,0.0,0.0,0.0,0.0,3.0107,3.0107,3.0107,3.0203,3.0239,3.0272,3.087,3.0746,3.0128,0.0,0.0,0.0,0.0,0.0,0.0,0.0,0.0,0.0,0.0,0.0,0.0,0.0,0.0,0.0,0.0,0.0,0.0,0.0,0.0,0.0,0.0,0.0,0.0,0.0,3.5213,3.5435,0.0,0.0,0.0,0.0,0.0,0.0,0.0,0.0,0.0,0.0,0.0,0.0,3.9421,3.9363,3.9146,3.8594,3.8536,3.8536,3.8536,3.8536,3.8536,3.8536,3.8434,3.8376,0.0,0.0,0.0,0.0,0.0,0.0,0.0,0.0,0.0,0.0,0.0,0.0,0.0,0.0,0.0,0.0,0.0,0.0,0.0,0.0,0.0,0.0,0.0,0.0,0.0,0.0,0.0,0.0,0.0,0.0,0.0,0.0,2.5895,2.5895,0.0,0.0,0.0,0.0,0.0,0.0,0.0,0.0,0.0,0.0,0.0,0.0,0.0,0.0,3.0107,3.0107,3.0107,3.0107,3.0107,3.0107,3.0131,3.0576,3.0792,3.0817,3.1361,0.0,3.0107,3.019,0.0,0.0,0.0,0.0,0.0,0.0,0.0,0.0,0.0,0.0,0.0,0.0,0.0,0.0,0.0,0.0,0.0,0.0,0.0,0.0,0.0,0.0,3.4816,3.5445,3.5621,3.5804,0.0,3.7018,3.7573,3.7633,0.0,0.0,0.0,0.0,0.0,0.0,0.0,0.0,3.9987,3.9973,3.9944,3.9857,3.9842,3.9842,3.9842,3.9842,3.9842,3.9842,3.9363,3.9073,3.9073,3.8507,0.0,0.0,0.0,0.0,0.0,0.0,0.0,0.0,0.0,0.0,0.0,0.0,0.0,0.0,0.0,0.0,0.0,0.0,0.0,0.0,0.0,0.0,0.0,0.0,0.0,0.0,0.0,0.0,0.0,2.6289,2.6387,2.6671,2.6693,2.678,0.0,0.0,0.0,0.0,0.0,0.0,0.0,0.0,0.0,2.9147,3.0628,3.1444,3.1444,3.1745,3.1912,3.1912,3.1912,3.1912,3.1912,3.2152,3.2248,3.2273,3.2501,3.2333,3.1863,3.125,3.0997,3.0997,0.0,0.0,0.0,0.0,3.0997,3.0997,3.0997,3.0997,0.0,0.0,0.0,0.0,0.0,0.0,0.0,0.0,0.0,0.0,0.0,0.0,0.0,3.5847,3.6158,3.6517,3.7822,3.839,3.8613,0.0,3.9047,3.9711,4.0437,0.0,0.0,0.0,0.0,0.0,4.0713,4.0655,4.0525,4.0133,4.0104,4.0104,4.0104,4.0104,4.0104,4.0104,3.9842,3.9712,3.9712,3.9102,3.8768,0.0,0.0,0.0,0.0,0.0,0.0,0.0,0.0,0.0,0.0,0.0,0.0,0.0,0.0,0.0,0.0,0.0,0.0,0.0,0.0,0.0,0.0,0.0,0.0,0.0,0.0,0.0,0.0,2.678,2.6911,2.7249,2.7293,2.7359,0.0,0.0,0.0,0.0,0.0,0.0,2.7861,2.9128,2.9928,3.0055,3.1639,3.2618,3.2864,3.3284,3.3549,3.3681,3.3681,3.3681,3.3681,3.3681,3.3681,3.3681,3.3681,3.3609,3.3404,3.2489,3.2104,3.2104,3.2104,3.2104,3.2104,3.2104,3.2104,3.2104,3.2104,3.2104,3.2104,3.2104,0.0,3.2149,3.2315,0.0,0.0,0.0,0.0,3.3847,3.3847,3.3977,3.4461,3.5866,3.6345,3.6896,3.8456,3.8942,3.9103,0.0,3.9518,4.0126,4.1064,0.0,0.0,0.0,0.0,4.1918,4.1424,4.1352,4.1163,4.067,4.0612,4.0612,4.0612,4.0612,4.0612,4.0612,4.0452,4.035,4.035,3.9755,3.9421,3.9421,0.0,0.0,0.0,0.0,0.0,0.0,0.0,0.0,0.0,0.0,0.0,0.0,0.0,0.0,0.0,0.0,0.0,0.0,0.0,0.0,0.0,0.0,0.0,0.0,0.0,0.0,0.0,0.0,0.0,2.7293,2.7293,0.0,0.0,0.0,0.0,2.8694,2.9143,2.9389,2.9394,3.031,3.1053,3.1581,3.2183,3.2948,3.391,3.3934,3.4234,3.4727,3.4727,3.4727,3.4727,3.4727,3.4727,3.4727,3.4727,3.4438,3.3934,3.3428,3.3223,3.3223,3.3223,3.3223,3.3223,3.3223,3.3223,3.3223,3.3223,3.3223,3.3223,3.3223,3.3223,3.3339,3.3968,3.3752,0.0,0.0,3.4264,3.4264,3.4264,3.4747,3.5238,3.5334,3.5899,3.6595,3.725,3.7948,3.8613,0.0,3.9322,3.9623,4.0573,0.0,4.1043,4.1968,4.2092,4.2092,4.2049,4.2049,4.2034,4.199,4.199,4.199,4.199,4.199,4.199,4.199,4.1395,4.1047,4.1047,4.0408,4.0046,4.0046,3.9465,0.0,0.0,0.0,0.0,0.0,0.0,0.0,0.0,0.0,0.0,0.0,0.0,0.0,0.0,0.0,0.0,0.0,0.0,0.0,0.0,0.0,0.0,0.0,0.0,0.0,0.0,0.0,0.0,2.8223,2.8266,0.0,2.8921,2.8975,2.9172,2.9652,2.9864,2.9954,2.9947,3.0875,3.1668,3.2213,3.336,3.4321,3.5027,3.5364,3.5628,3.582,3.582,3.582,3.582,3.582,3.582,3.582,3.582,3.5712,3.552,3.5364,3.4511,3.3284,3.3284,3.3284,3.3284,3.3284,3.3284,3.3284,3.3284,3.3284,3.3284,3.3284,3.3284,3.3331,3.3573,3.3493,3.3354,3.3596,3.3666,3.3666,3.3666,3.3837,3.4209,3.5048,3.5444,3.6051,3.7539,3.8076,3.8479,3.9176,3.9305,3.9504,4.0126,4.0235,4.0573,4.1501,4.1662,4.1766,4.2051,4.2092,4.2092,4.2092,4.2092,4.2092,4.2092,4.2092,4.2092,4.2092,4.1874,4.1744,4.1744,4.1091,4.0742,4.0742,4.0104,3.977,0.0,0.0,0.0,0.0,0.0,0.0,0.0,0.0,0.0,0.0,0.0,0.0,0.0,0.0,0.0,0.0,0.0,0.0,0.0,0.0,0.0,0.0,0.0,0.0,0.0,0.0,2.8648,2.8988,2.9174,2.9392,2.972,2.9729,2.9925,3.0406,3.0586,3.0776,3.093,3.1714,3.2412,3.2958,3.4155,3.5131,3.5842,3.6393,3.6759,3.694,3.694,3.694,3.694,3.694,3.694,3.694,3.694,3.6843,3.6675,3.6675,3.5749,3.4342,3.4342,3.4342,3.4342,3.4342,3.4342,3.4342,3.4342,3.4342,3.4342,3.4342,3.4342,3.4342,3.4342,3.4342,3.4342,3.4342,3.4342,3.4342,3.4342,3.4342,3.457,3.539,3.5799,3.6338,3.7674,3.8176,3.8503,3.9001,3.9365,3.9746,4.0211,4.0465,4.0926,4.1874,4.2003,4.2188,4.2668,4.2731,4.2731,4.2731,4.2731,4.2731,4.2731,4.2528,4.2397,4.2397,4.2208,4.2092,4.2092,4.1671,4.1439,4.1439,4.0771,4.0321,4.0104,0.0,0.0,0.0,0.0,0.0,0.0,0.0,0.0,0.0,0.0,0.0,0.0,0.0,0.0,0.0,0.0,0.0,0.0,0.0,0.0,0.0,0.0,0.0,2.8825,2.9206,2.9512,2.9523,2.9936,3.0242,3.0229,3.0251,3.0472,3.093,3.1448,3.1931,3.2413,3.286,3.3369,3.3918,3.4508,3.53,3.6326,3.6916,3.7493,3.8036,3.8048,3.806,3.806,3.806,3.8048,3.8024,3.8024,3.7735,3.7216,3.7216,3.6916,3.6459,3.6423,3.6411,3.6411,3.6411,3.6411,3.6411,3.6411,3.6411,3.6411,3.6411,3.6411,3.6411,3.6411,3.6411,3.6411,3.6411,3.6411,3.6411,3.6411,3.6411,3.6411,3.6411,3.6956,3.7481,3.7506,3.8125,3.8665,3.8689,3.9516,4.0364,4.0801,4.1359,4.21,4.3032,4.3187,0.0,4.3929,4.3993,4.3993,4.3993,4.3993,4.3993,4.3993,4.3398,4.3021,4.3021,4.2455,4.2121,4.2121,4.2107,4.2092,4.2092,4.1453,4.08,4.0133,0.0,0.0,0.0,0.0,0.0,0.0,0.0,0.0,0.0,0.0,0.0,0.0,0.0,0.0,0.0,0.0,0.0,0.0,0.0,0.0,0.0,0.0,2.9685,2.9359,2.9425,2.9644,2.9969,3.0428,3.0843,3.1178,3.1575,3.1979,3.2464,3.2628,3.2775,3.289,3.3347,3.3869,3.4471,3.4958,3.5764,3.6866,3.7419,3.7988,3.8587,3.8972,3.9164,3.9164,3.9164,3.8948,3.8587,3.8587,3.8274,3.7769,3.7769,3.7685,3.7469,3.6699,3.6411,3.6411,3.6411,3.6411,3.6411,3.6411,3.6411,3.6411,3.6411,3.6411,3.6411,3.6411,3.6411,3.6411,3.6411,3.6411,3.6411,3.6411,3.6411,3.6411,3.6411,3.6551,3.6855,3.7382,3.7655,3.7989,3.8592,3.9756,4.0536,4.0228,4.0812,4.1613,4.255,4.2685,0.0,4.3892,4.3993,4.3993,4.3993,4.3993,4.3993,4.3993,4.3819,4.3739,4.3739,4.3108,4.2745,4.2745,4.2324,4.2092,4.2092,4.1918,4.1497,0.0,0.0,0.0,0.0,0.0,0.0,0.0,0.0,0.0,0.0,0.0,0.0,0.0,0.0,0.0,0.0,0.0,0.0,0.0,0.0,0.0,0.0,3.0141,3.0472,3.0395,3.0384,3.0482,3.0742,3.1389,3.1939,3.2197,3.2492,3.289,3.336,3.3393,3.3491,3.3672,3.3945,3.4351,3.488,3.5673,3.6514,3.7367,3.8194,3.8799,3.9152,3.9453,3.9609,3.9609,3.9609,3.9441,0.0,3.9152,3.8972,3.8659,3.8659,3.8527,0.0,0.0,0.0,0.0,0.0,3.7072,3.7072,3.7072,3.7072,3.7072,3.7072,3.7072,3.7072,3.7072,3.7072,3.7072,3.7072,3.7072,3.7072,3.7072,3.7072,3.7072,3.7072,3.7072,3.7189,3.7628,3.7704,3.7857,3.8327,0.0,0.0,3.9679,4.0861,4.2101,4.2842,4.2943,4.331,4.432,4.4454,4.4557,4.4755,4.4814,4.4814,4.4814,4.4552,0.0,0.0,0.0,4.3413,4.3413,4.2803,0.0,0.0,0.0,4.1903,4.1512,0.0,0.0,0.0,4.0191,3.99,0.0,0.0,0.0,0.0,0.0,0.0,0.0,0.0,0.0,0.0,0.0,0.0,0.0,0.0,0.0,0.0,3.0081,3.1074,3.1563,3.176,3.1822,3.1767,3.259,3.3174,3.3174,3.3229,3.3437,3.3846,3.3923,3.4141,3.455,0.0,0.0,0.0,0.0,3.7238,3.7781,3.8922,3.9555,3.9693,3.9753,3.9789,3.9789,3.9789,3.9753,3.9693,3.9693,3.9669,3.9609,3.9609,3.9333,3.8812,3.8226,3.8012,3.8012,3.8012,3.8012,3.8012,3.8012,0.0,0.0,3.8012,3.8012,3.8012,3.8012,3.8012,3.8012,3.8012,3.8012,3.8012,3.8012,3.8012,3.8012,3.8012,3.8012,3.8012,3.8012,3.8012,3.8012,3.8012,3.8659,3.9195,3.9195,4.1095,4.2811,4.3386,4.3467,4.3861,4.4963,4.5101,4.5307,4.5835,0.0,0.0,4.5903,4.5366,4.5017,4.5017,4.4451,4.4066,4.3993,4.3427,4.3108,4.3108,4.2513,4.2194,4.2194,4.2121,4.2092,4.2063,4.0873,4.0321,0.0,0.0,0.0,0.0,0.0,0.0,0.0,0.0,0.0,0.0,0.0,0.0,0.0,0.0,0.0,2.9422,3.041,3.1212,3.1618,3.2669,3.3224,3.2857,3.3327,3.365,3.365,3.401,3.4283,3.4354,3.4731,3.4982,3.507,3.5463,0.0,3.5841,3.6072,3.6721,3.7793,3.8452,3.9289,4.0246,0.0,0.0,4.0872,4.0872,4.0643,4.0246,4.0246,4.0006,3.9609,3.9609,3.9549,3.9357,3.8371,3.8012,3.8012,3.8012,3.8012,3.8012,3.8012,3.8012,3.8012,3.8012,3.8012,3.8012,3.8012,3.8012,0.0,3.8012,3.8012,3.8012,3.8012,3.8012,3.8012,3.8012,3.8012,3.8012,3.8012,3.8012,3.8012,3.8012,3.8659,3.9195,3.9195,4.0147,4.1269,4.2466,4.2636,4.3239,4.4879,4.5101,4.5307,4.5835,4.5903,4.5903,4.5903,4.5787,4.5714,4.5714,4.5104,4.4523,4.4008,4.3863,4.3805,4.3805,4.3152,4.2818,4.2818,4.2339,4.2092,4.2092,4.1831,4.17,0.0,0.0,0.0,0.0,0.0,0.0,0.0,0.0,0.0,0.0,0.0,2.6503,2.7352,0.0,2.9093,2.9073,3.0564,3.1655,3.1398,3.2183,3.295,3.3405,3.3857,3.4163,3.4163,3.4561,3.4834,3.4834,3.531,3.5583,3.5583,3.5852,3.6104,3.6355,3.6958,3.7535,3.8045,3.8966,3.9702,4.029,4.058,4.0884,4.1213,4.1213,4.104,4.0787,4.0787,4.0643,4.0379,4.0114,4.0006,3.9922,3.9116,3.8635,3.8395,3.8395,3.8226,3.8012,3.8012,3.8012,3.8012,3.8012,3.8012,3.8012,3.8012,3.8012,3.8012,3.8012,3.8012,3.8012,3.8012,3.8012,3.8012,3.8012,3.8012,3.8012,3.8012,3.8012,3.8012,3.8012,3.8317,3.8607,3.8607,3.8922,3.9866,4.1743,4.2052,4.2614,4.4144,4.4592,4.4954,4.5458,4.5745,4.5903,4.5903,4.5903,4.5903,4.5903,4.5598,4.5278,4.4951,4.464,4.4465,4.4465,4.3819,4.3485,4.3485,4.3195,4.305,4.305,4.305,4.2702,0.0,0.0,0.0,0.0,0.0,0.0,0.0,0.0,2.5728,2.604,2.6104,2.6233,2.6628,2.8138,2.9109,2.8504,3.036,3.1676,3.0987,3.1555,3.2388,3.3304,3.3883,3.4332,3.4616,3.4993,3.5244,3.5343,3.5852,3.6136,3.6136,3.6224,3.6453,3.6817,3.7841,3.8415,3.8496,3.9521,4.0135,4.0397,4.0397,4.0682,4.1213,4.1213,4.1213,4.1213,4.1213,4.1213,4.1177,4.0727,4.0547,4.0499,4.0078,3.9585,3.9116,3.8981,3.8683,3.8313,3.8178,3.8169,3.813,3.8022,3.8012,3.8012,3.8012,3.8012,3.8012,3.8012,3.8012,3.8012,3.8012,3.8012,3.8012,3.8012,3.8012,3.8012,3.8012,3.8012,3.8012,3.8012,3.8012,3.8012,3.8012,3.8012,3.8725,4.0895,4.136,4.1904,4.3204,4.3875,4.442,4.4917,4.5435,4.579,4.588,4.5903,4.5903,4.5903,4.5903,4.5903,4.5903,4.538,4.5104,4.5104,4.4487,4.4168,4.4168,4.4073,4.3993,4.3993,4.3993,4.3442,2.3443,2.4436,0.0,2.5315,2.5627,2.5921,0.0,0.0,2.6463,2.6509,2.6518,2.6664,2.7068,2.7336,2.7688,2.8305,2.9365,3.0169,3.0432,3.189,3.2729,3.2107,3.2747,3.3742,3.5006,3.5179,3.5397,3.5874,3.6337,3.661,3.661,3.7033,3.7273,3.7328,3.7448,3.807,3.9178,3.9326,3.9972,4.1098,4.1098,4.1127,4.1213,4.1213,4.1213,4.1213,4.1213,4.1213,4.1213,4.1153,4.11,4.1088,4.1028,4.0679,4.0162,3.9693,3.9477,3.9357,3.8888,3.8704,3.8647,3.8142,3.8012,3.8012,3.8012,3.8012,3.8012,3.8012,3.8012,3.8012,3.8012,3.8012,3.8012,3.8012,3.8012,3.8012,3.8012,3.8012,3.8012,3.8012,3.8012,3.8012,3.8012,3.8012,3.8344,3.9324,4.0083,4.1019,4.2355,4.3204,4.3899,4.442,4.4894,4.539,4.5858,4.5903,4.5903,4.5903,4.5903,4.5903,4.5903,4.5845,4.5801,4.5801,4.5148,4.4814,4.4814,4.4276,4.3993,4.3993,4.3993,4.3906,2.4499,0.0,0.0,0.0,2.6049,2.6352,2.6352,2.649,2.6591,2.6591,2.6802,2.7004,2.7169,2.8024,2.8624,0.0,2.9389,3.0025,2.9628,3.0427,3.1132,3.1319,3.185,3.257,3.3474,3.455,3.5277,3.552,3.6519,3.712,3.712,3.7306,3.7404,3.7404,3.8126,3.8406,3.8197,3.8942,3.9573,4.0089,4.0089,4.0479,4.1213,4.1213,4.1213,4.1213,4.1213,4.1213,4.1213,4.1213,4.1213,4.1213,4.1213,4.1052,4.0787,4.0258,3.9874,3.9573,3.9357,3.9272,3.9188,3.8647,3.8467,3.8407,3.8082,3.8012,3.8012,3.8012,3.8012,3.8012,3.8012,3.8012,3.8012,3.8012,3.8012,3.8012,3.8012,3.8012,3.8082,3.8407,3.8467,3.8563,3.8876,3.8924,3.9032,3.9384,3.9578,4.0249,4.1805,4.2528,4.329,4.4294,4.4815,4.5193,4.5413,4.5722,4.5903,4.5903,4.5903,4.5903,4.5903,4.5903,4.5903,4.5903,4.5627,4.5482,4.5482,4.5235,4.5119,4.5119,4.5119,4.5119,2.557,0.0,0.0,2.6159,2.6389,2.6591,2.6591,2.6591,2.6619,2.6729,2.7004,2.727,2.75,2.8576,2.9239,2.8652,2.9381,2.9812,2.925,2.9629,3.0183,3.0719,3.1363,3.1924,3.2316,3.4101,3.5361,3.577,3.6786,3.7404,3.7404,3.7404,3.7404,3.7404,3.8276,3.8406,3.7657,3.8764,3.9397,3.9532,3.9749,4.0305,4.1213,4.1213,4.1213,4.1213,4.1213,4.1213,4.1213,4.1213,4.1213,4.1213,4.1213,4.1213,4.1136,4.0751,4.0367,4.0018,3.9874,3.9826,3.9741,3.9212,3.9005,3.896,3.8551,3.8431,3.8431,3.8431,3.8431,3.8431,3.8431,3.8431,3.8431,3.8431,3.8431,3.8431,3.8431,3.8431,3.8551,3.896,3.9005,3.9125,3.9537,3.9609,3.968,3.9916,3.9789,4.019,4.1629,4.2385,4.3203,4.4284,4.47,4.5009,4.5284,4.5677,4.5903,4.5903,4.5903,4.5903,4.5903,4.5903,4.5903,4.5903,4.5903,4.5903,4.5903,4.5903,4.5903,4.5903,4.5903,4.5903,0.0,0.0,2.6564,2.6564,2.6582,2.6591,2.6591,2.6591,2.6719,2.7105,2.7197,2.7444,2.8214,2.8408,2.8546,2.8931,2.9035,2.9172,2.9528,3.0368,3.077,3.0285,3.1388,3.2217,0.0,3.4065,3.58,3.7229,3.7363,3.7404,3.7404,3.7404,3.7404,3.7404,3.7435,3.7717,3.8257,3.8942,3.9591,4.0165,4.0826,4.1156,4.1213,4.1213,4.1213,4.1213,4.1213,4.1213,4.1213,4.1213,4.1213,4.1213,4.1213,4.1213,4.1213,4.1172,4.1177,4.1093,4.0547,4.0379,4.0282,3.9753,3.9585,3.9585,3.9561,3.9561,3.9561,3.9561,3.9561,3.9561,3.9561,3.9561,3.9561,3.9561,3.9561,3.9561,3.9561,3.9561,3.9561,3.9585,3.9585,3.9585,3.9609,3.9609,3.99,4.074,4.0838,4.1148,4.1974,4.3061,4.3903,4.435,4.4411,4.483,4.579,4.588,4.5903,4.5903,4.5903,4.5903,4.5903,4.5903,4.5903,4.5903,4.5903,4.5903,4.5903,4.5903,4.5903,4.5903,4.5903,4.5903,0.0,0.0,2.6591,2.6591,2.6591,2.6591,2.6591,2.682,2.7041,2.7178,2.7637,2.8067,2.8342,2.8608,2.8828,2.8996,2.9014,2.9152,2.9546,3.0115,3.0501,3.0574,3.1223,0.0,0.0,0.0,0.0,3.5335,3.6033,3.6411,3.6411,3.703,3.7404,3.7404,3.7807,3.8077,3.8287,3.8971,3.9591,4.0205,4.1242,4.173,4.173,4.173,4.173,4.1718,4.1357,4.1213,4.1213,4.1213,4.1213,4.1213,4.1213,4.1213,4.1213,4.1213,4.1213,4.116,4.098,4.092,4.0824,4.0306,4.0126,4.0066,3.9717,3.9609,3.9609,3.9609,3.9609,3.9609,3.9609,3.9609,3.9609,3.9609,3.9609,3.9609,3.9609,3.9609,3.9717,4.0066,4.0126,4.0234,4.0595,4.0655,4.0955,4.1827,4.235,4.271,4.2984,4.383,4.4436,4.4579,4.4522,4.4596,4.493,4.5205,4.5367,4.5367,4.57,4.5903,4.5903,4.5903,4.5903,4.5903,4.5903,4.5903,4.5903,4.5903,4.5903,4.5903,4.5903,4.5903,2.65,2.6591,2.6619,2.6793,2.6793,2.6866,2.7004,2.7233,2.7454,2.761,2.8031,2.8434,2.8581,2.884,2.9014,2.9014,2.9014,2.9207,2.9748,3.003,3.0396,3.0969,3.1254,0.0,0.0,0.0,0.0,3.431,3.5345,3.5746,3.5376,3.6655,3.7253,3.6878,3.7796,3.8287,3.8287,3.9178,4.0036,4.0838,4.1814,4.2284,4.2284,4.2284,4.2176,4.1983,4.1646,4.1381,4.1213,4.1213,4.1213,4.1213,4.1213,4.1213,4.1213,4.1213,4.1213,4.1213,4.1213,4.1213,4.1124,4.0787,4.0679,4.0619,4.0282,4.0162,4.0162,4.0162,4.0162,4.0162,4.0162,4.0162,4.0162,4.0162,4.0162,4.0162,4.0162,4.0162,4.027,4.0607,4.0679,4.0816,4.1124,4.1459,4.1859,4.2413,4.341,4.3979,4.3794,4.4491,4.5012,4.497,4.4873,4.4895,4.5091,4.5142,4.5165,4.5165,4.5436,4.5595,4.5595,4.579,4.5903,4.5903,4.5903,4.5903,4.5903,4.5903,4.5903,4.5903,4.5903,4.5903,2.6582,2.6637,2.671,2.7114,2.7224,2.7334,2.7711,2.7812,2.794,2.8315,2.8416,2.8544,0.0,0.0,2.9014,2.9014,2.9014,2.9269,3.0085,3.0204,3.0497,0.0,0.0,0.0,0.0,0.0,0.0,3.4091,0.0,3.5345,3.4383,3.6186,3.6848,3.5941,3.7424,3.8257,3.8347,3.9632,4.0868,4.2007,4.2561,4.2825,4.2825,4.2825,4.2549,4.2043,4.2007,4.1706,4.1213,4.1213,4.1213,4.1213,4.1213,4.1213,4.1213,4.1213,4.1213,4.1213,4.1213,4.1213,4.1213,4.1213,4.1213,4.1213,4.1213,4.1213,4.1213,4.1213,4.1213,4.1213,4.1213,4.1213,4.1213,4.1213,4.1213,4.1213,4.1213,4.1213,4.1213,4.1213,4.1213,4.1213,4.1213,4.1887,4.2441,4.2441,4.3905,4.4849,4.4296,4.5069,4.5615,4.5467,4.542,4.563,4.6122,4.5645,4.5328,4.53,4.5231,4.5175,4.5147,4.5617,4.5903,4.5903,4.5903,4.5903,4.5903,4.5903,4.5903,4.5903,4.5903,4.5903,2.6473,2.6829,2.7077,2.7178,2.7426,2.7674,2.7775,2.8032,2.8298,2.837,2.8627,2.8865,0.0,0.0,0.0,2.9014,2.9014,0.0,3.0085,3.0204,0.0,0.0,0.0,3.1506,3.1754,3.1538,0.0,0.0,3.3095,3.3536,3.3284,3.4466,3.5376,3.5879,3.6735,3.7774,3.9031,4.0711,4.1687,4.2007,4.2892,4.3325,4.3325,4.3325,4.3078,4.2573,4.2176,4.1706,4.1213,4.1213,4.1213,4.1213,4.1213,4.1213,4.1213,4.1213,4.1213,4.1213,4.1213,4.1213,4.1213,4.1213,4.1213,4.1213,4.1213,4.1213,4.1213,4.1213,4.1213,4.1213,4.1213,4.1213,4.1213,4.1213,4.1213,4.1213,4.1213,4.1213,4.1213,4.1213,4.1213,4.1213,4.1213,4.1373,4.1516,4.1516,4.302,4.4305,4.4822,4.5686,4.6262,4.6229,4.582,4.5598,4.5751,4.5883,4.5788,4.5328,4.597,4.6154,4.5714,4.5835,4.5903,4.5903,4.5903,4.5903,4.5903,4.5903,4.5903,4.5903,4.5903,4.5903,2.6719,2.7031,2.7288,2.7646,2.7903,2.8115,2.8289,2.8509,2.8654,2.8654,2.8828,0.0,0.0,0.0,0.0,0.0,0.0,0.0,3.0085,3.0204,3.0497,0.0,3.141,0.0,3.141,3.141,3.141,0.0,3.231,3.2724,3.2256,3.4029,3.5129,3.5253,3.6967,3.8712,4.0458,4.1726,4.2452,4.2663,4.3481,4.3847,4.3847,4.3847,4.3469,4.2777,0.0,4.1911,4.1213,4.1213,4.1213,4.1213,4.1213,4.1213,4.1213,4.1213,4.1213,4.1213,4.1213,4.1213,4.1213,4.1213,4.1213,4.1213,4.1213,4.1213,4.1213,4.1213,4.1213,4.1213,4.1213,4.1213,4.1213,4.1213,4.1213,4.1213,4.1213,4.1213,4.1213,4.1213,4.1213,4.1213,4.1213,4.1213,4.1213,4.1213,4.2684,4.3974,4.4479,4.5662,4.6495,4.6495,4.621,4.5993,4.5993,4.6171,4.6132,4.5811,4.6481,4.6616,4.6019,4.6187,4.6171,4.5917,4.5903,4.5903,4.5903,4.5903,4.5903,4.5903,4.5903,4.5903,2.7096,2.7243,2.7463,2.8205,2.8434,2.8563,2.8931,2.9014,2.9014,2.9014,0.0,2.9014,2.9014,2.9014,2.9014,2.9014,0.0,2.9269,3.0085,3.0204,3.0497,3.1309,3.141,3.141,3.141,3.141,3.141,3.141,3.2224,3.232,3.1442,3.4007,3.5253,3.4746,3.7613,3.9958,4.1624,4.2328,4.2886,4.3288,4.3985,4.4285,4.4285,4.4244,4.3667,4.2789,0.0,0.0,4.1213,4.1213,4.1213,4.1213,4.1213,4.1213,4.1213,4.1213,4.1213,4.1213,4.1213,4.1213,4.1213,4.1213,4.1213,4.1213,4.1213,4.1213,4.1213,4.1213,4.1213,4.1213,4.1213,4.1213,4.1213,4.1213,4.1213,4.1213,4.1213,4.1213,4.1213,4.1213,4.1213,4.1213,4.1213,4.1213,4.1213,4.1213,4.2684,4.381,4.381,4.5382,4.6495,4.6495,4.6495,4.6495,4.6495,4.6509,4.6496,4.6374,4.6778,4.6766,4.6233,4.6506,4.6471,4.6026,4.5946,4.5903,4.5903,4.5903,4.5903,4.5903,4.5903,4.5903,2.7096,2.7444,2.7812,2.8269,2.8645,2.8893,2.8966,2.9014,0.0,0.0,0.0,2.9014,2.9014,2.9014,2.9014,2.9014,0.0,0.0,0.0,0.0,3.0497,0.0,0.0,0.0,0.0,0.0,0.0,0.0,0.0,3.1561,3.141,3.2692,3.4341,3.6318,3.7755,3.8898,3.9759,4.1244,4.1991,4.2116,4.359,4.4285,4.4273,4.3835,4.3325,4.2765,4.232,0.0,4.1213,4.1213,4.1213,4.1213,4.1213,4.1213,4.1213,4.1213,4.1213,4.1213,4.1213,4.1213,4.1213,4.1213,4.1213,4.1213,4.1213,4.1213,4.1213,4.1213,4.1213,4.1213,4.1213,4.1213,4.1213,4.1213,4.1213,4.1213,4.1213,4.1213,4.1213,4.1213,4.1213,4.1213,4.1213,4.1213,4.1213,4.1213,4.2684,4.381,4.381,4.5382,4.6495,4.6495,4.6495,4.6495,4.6495,4.6895,4.6915,4.6351,4.6803,4.7023,4.6847,4.6399,4.6289,4.6641,4.6142,4.5903,4.5903,4.5903,4.5903,4.5903,4.5903,4.5903,2.7353,2.7646,2.7949,2.8544,2.8876,2.9014,2.9014,0.0,0.0,0.0,0.0,2.9014,2.9014,2.9014,0.0,0.0,0.0,0.0,0.0,0.0,0.0,0.0,0.0,0.0,0.0,0.0,0.0,0.0,0.0,3.141,3.141,3.2851,3.4653,3.6724,3.7785,3.8769,3.9728,4.083,4.1522,4.1805,4.2962,4.3529,4.3517,4.3241,4.2862,4.2368,4.2116,0.0,4.1213,4.1213,4.1213,4.1213,4.1213,4.1213,4.1213,4.1213,4.1213,4.1213,4.1213,4.1213,4.1213,4.1213,4.1213,4.1213,4.1213,4.1213,4.1213,4.1213,4.1213,4.1213,4.1213,4.1213,4.1213,4.1213,4.1213,4.1213,4.1213,4.1213,4.1213,4.1213,4.1213,4.1213,4.1213,4.1213,4.1344,4.1802,4.2964,4.3974,4.4424,4.5662,4.6495,4.6495,4.6495,4.6495,4.6495,4.6991,4.7163,4.6834,4.7315,4.7585,4.7475,4.7171,4.6937,4.6792,4.6511,4.6214,4.5903,4.5903,4.5903,4.5903,4.5903,4.5903,2.7582,2.7793,2.7986,2.8803,2.9014,2.9014,2.9014,2.9014,0.0,0.0,2.9014,2.9014,2.9014,0.0,2.9014,0.0,0.0,0.0,0.0,0.0,0.0,0.0,0.0,0.0,0.0,0.0,0.0,0.0,0.0,0.0,3.1722,3.3221,3.4871,3.6542,3.7382,3.8346,3.9522,4.0386,4.1019,4.1459,4.2359,4.2789,4.2789,4.2669,4.2392,4.1995,4.1887,0.0,0.0,4.1213,4.1213,4.1213,4.1213,4.1213,4.1213,4.1213,4.1213,4.1213,4.1213,4.1213,4.1213,4.1213,4.1213,4.1213,4.1213,4.1213,4.1213,4.1213,4.1213,4.1213,4.1213,4.1213,4.1213,4.1213,4.1213,4.1213,4.1213,4.1213,4.1213,4.1213,4.1213,4.1213,4.1213,4.1213,4.1488,4.2384,4.3242,4.4111,4.5006,4.5914,4.6495,4.6495,4.6495,4.6495,4.6495,4.6887,4.7121,4.7121,4.7531,4.7752,4.7783,4.7613,4.738,4.7035,4.6914,4.6607,4.6084,4.6084,4.6026,4.5903,4.5903,4.5903,2.7582,2.7793,2.7986,2.8803,2.9014,2.9014,2.9014,0.0,0.0,2.9014,2.9014,2.9014,2.9014,0.0,0.0,0.0,0.0,2.9161,0.0,0.0,0.0,0.0,0.0,0.0,0.0,0.0,0.0,0.0,0.0,0.0,3.2724,3.2946,3.3935,3.593,3.6063,3.6615,3.7621,3.9333,4.0197,4.0274,4.1983,4.2789,4.2777,4.2296,4.2055,4.1971,4.1502,0.0,0.0,4.1213,4.1213,4.1213,4.1213,4.1213,4.1213,4.1213,4.1213,4.1213,4.1213,4.1213,4.1213,4.1213,4.1213,4.1213,4.1213,4.1213,4.1213,4.1213,4.1213,4.1213,4.1213,4.1213,4.1213,4.1213,4.1213,4.1213,4.1213,4.1213,4.1213,4.1213,4.1213,4.1213,4.1213,4.1213,4.1488,4.2384,4.3242,4.4111,4.5006,4.5914,4.6495,4.6495,4.6495,4.6495,4.6495,4.6547,4.6574,4.6574,4.6626,4.686,4.7347,4.6779,4.6881,4.7776,4.7272,4.6898,4.6728,4.6728,4.6424,4.5903,4.5903,4.5903,2.7582,2.7793,2.7986,2.8803,2.9014,2.9014,2.9014,0.0,2.9014,2.9014,2.9014,2.9014,2.9014,2.9014,0.0,0.0,0.0,0.0,2.9546,0.0,0.0,0.0,0.0,0.0,0.0,0.0,0.0,0.0,0.0,0.0,3.1969,3.2565,3.3284,3.407,3.5283,3.6094,3.6502,3.8586,3.9636,3.9636,4.1117,4.1839,4.1839,4.1622,4.1526,4.1514,4.128,0.0,0.0,4.1213,4.1213,4.1213,4.1213,4.1213,4.1213,4.1213,4.1213,4.1213,4.1213,4.1213,4.1213,4.1213,4.1213,4.1213,4.1213,4.1213,4.1213,4.1213,4.1213,4.1213,4.1213,4.1213,4.1213,4.1213,4.1213,4.1213,4.1213,4.1213,4.1213,4.1213,4.1213,4.1213,4.1213,4.1213,4.1675,4.3075,4.3575,4.4302,4.5755,4.6285,4.6495,4.6495,4.6495,4.6495,4.6495,4.6495,4.6495,4.6495,4.6495,4.673,4.7276,4.7027,4.7203,4.7899,4.7656,4.7506,4.7404,4.7004,4.6685,4.6424,4.6069,4.5903,2.7435,2.7701,2.7958,2.8665,2.8893,2.9014,0.0,0.0,2.9014,2.9014,2.9014,2.9014,2.9014,2.9014,2.9014,0.0,0.0,2.9106,2.939,0.0,0.0,0.0,0.0,0.0,0.0,0.0,0.0,0.0,0.0,0.0,0.0,3.2065,3.2597,3.2883,3.456,3.5592,3.591,3.7954,3.909,3.9308,4.0392,4.1,4.1213,4.1213,4.1213,4.1213,0.0,0.0,0.0,4.1213,4.1213,4.1213,4.1213,4.1213,4.1213,4.1213,4.1213,4.1213,4.1213,4.1213,4.1213,4.1213,4.1213,4.1213,4.1213,4.1213,4.1213,4.1213,4.1213,4.1213,4.1213,4.1213,4.1213,4.1213,4.1213,4.1213,4.1213,4.1213,4.1213,4.1213,4.1213,4.1213,4.1213,4.1402,4.2089,4.3589,4.4029,4.475,4.6311,4.6495,4.6495,4.6495,4.6495,4.6495,4.6495,4.6495,4.6495,4.6495,4.6495,4.673,4.7276,4.7301,4.7577,4.8185,4.8209,4.8152,4.8058,4.7584,4.7265,4.7076,4.6461,4.6069,2.7105,2.75,2.7894,2.8297,2.872,2.9014,0.0,0.0,2.9014,2.9014,2.9014,2.9014,2.9014,2.9014,2.9014,2.9014,2.9014,0.0,2.9023,0.0,0.0,0.0,0.0,0.0,0.0,0.0,0.0,0.0,0.0,0.0,0.0,3.141,3.1882,3.2883,3.3882,3.4902,3.5879,3.7514,3.8645,3.9308,3.9913,4.0554,4.1213,4.1213,4.1213,0.0,0.0,0.0,0.0,4.1213,4.1213,4.1213,4.1213,4.1213,4.1213,4.1213,4.1213,4.1213,4.1213,4.1213,4.1213,4.1213,4.1213,4.1213,4.1213,4.1213,4.1213,4.1213,4.1213,4.1213,4.1213,4.1213,4.1213,4.1213,4.1213,4.1213,4.1213,4.1213,4.1213,4.1213,4.1213,4.1213,4.1213,4.1903,4.2793,4.3672,4.4533,4.5422,4.639,4.6495,4.6495,4.6495,4.6495,4.6495,4.6495,4.6495,4.6495,4.6495,4.6495,4.673,4.7276,4.7301,4.7801,4.887,4.8895,4.8827,4.8687,4.8687,4.8353,4.7776,4.7091,4.6467,2.7096,2.749,2.7894,2.8287,2.8691,2.9014,2.9014,0.0,2.9014,2.9014,2.9014,2.9014,2.9014,2.9014,2.9014,2.9014,2.9014,0.0,0.0,0.0,0.0,0.0,0.0,0.0,0.0,0.0,0.0,0.0,0.0,0.0,0.0,3.2033,3.2256,3.1882,3.3536,3.456,3.4881,3.7141,3.8645,3.9308,3.9902,4.0554,4.1213,4.1213,0.0,0.0,0.0,0.0,0.0,4.1213,4.1213,4.1213,4.1213,4.1213,4.1213,4.1213,4.1213,4.1213,4.1213,4.1213,4.1213,4.1213,4.1213,4.1213,4.1213,4.1213,4.1213,4.1213,4.1213,4.1213,4.1213,4.1213,4.1213,4.1213,4.1213,4.1213,4.1213,4.1213,4.1213,4.1213,4.1213,4.1213,4.1213,4.1903,4.2793,4.3672,4.4533,4.5448,4.639,4.6495,4.6495,4.6495,4.6495,4.6495,4.6495,4.6495,4.6495,4.6495,4.6835,4.7121,4.7301,4.7659,4.8193,4.8895,4.8895,4.9067,4.9378,4.8919,4.815,4.7105,4.6902,4.6467,0.0,2.727,2.7674,2.8078,2.8491,0.0,0.0,0.0,2.9014,2.9014,2.9014,2.9014,2.9014,2.9014,2.9014,2.9014,2.9014,0.0,0.0,0.0,0.0,0.0,0.0,0.0,0.0,0.0,0.0,0.0,0.0,0.0,0.0,3.2001,3.2224,3.1969,3.3913,3.4974,3.4974,3.6959,3.8406,3.9308,3.9679,4.0322,4.1213,4.1213,0.0,0.0,0.0,0.0,0.0,4.1213,4.1213,4.1213,4.1213,4.1213,4.1213,4.1213,4.1213,4.1213,4.1213,4.1213,4.1213,4.1213,4.1213,4.1213,4.1213,4.1213,4.1213,4.1213,4.1213,4.1213,4.1213,4.1213,4.1213,4.1213,4.1213,4.1213,4.1213,4.1213,4.1213,4.1213,4.1213,4.1213,4.1213,4.2203,4.3159,4.3727,4.4831,4.5835,4.6416,4.6495,4.6495,4.6495,4.6495,4.6495,4.6495,4.6495,4.6574,4.6783,4.7121,4.7482,4.7877,4.8218,4.8656,4.9192,4.9192,4.9249,4.932,4.8682,4.7816,4.6801,4.6801,4.6598,0.0,2.6875,2.7298,2.7692,2.8105,2.8498,2.8922,0.0,0.0,2.9014,2.9014,2.9014,2.9014,2.9014,2.9014,2.9014,2.9014,0.0,0.0,0.0,0.0,0.0,0.0,0.0,0.0,0.0,0.0,0.0,0.0,0.0,0.0,3.1474,3.1969,3.2978,3.4881,3.591,3.591,3.6909,3.8036,3.9308,3.9308,3.9984,4.1213,4.1213,0.0,0.0,0.0,0.0,0.0,4.1213,4.1213,4.1213,4.1213,4.1213,4.1213,4.1213,4.1213,4.1213,4.1213,4.1213,4.1213,4.1213,4.1213,4.1213,4.1213,4.1213,4.1213,4.1213,4.1213,4.1213,4.1213,4.1213,4.1213,4.1213,4.1213,4.1213,4.1213,4.1213,4.1213,4.1213,4.1213,4.1213,4.1213,4.2656,4.381,4.381,4.5328,4.6495,4.6495,4.6495,4.6495,4.6495,4.6495,4.6521,4.6547,4.6521,4.673,4.7276,4.7353,4.7826,4.8859,4.8945,4.9192,4.9693,4.9649,4.9291,4.8629,4.8058,4.7448,4.6801,4.6801,4.6786,2.6591,0.0,2.7298,2.7692,2.8105,2.8498,0.0,0.0,0.0,0.0,0.0,2.9014,2.9014,2.9014,2.9014,2.9014,2.9014,2.9014,0.0,0.0,0.0,0.0,0.0,0.0,0.0,0.0,0.0,0.0,0.0,0.0,0.0,3.2128,3.3,3.4039,3.5253,3.591,3.591,3.6909,3.8036,3.9308,3.9308,3.9984,4.1213,4.1213,0.0,0.0,0.0,0.0,4.1213,4.1213,4.1213,4.1213,4.1213,4.1213,4.1213,4.1213,4.1213,4.1213,4.1213,4.1213,4.1213,4.1213,4.1213,4.1213,4.1213,4.1213,4.1213,4.1213,4.1213,4.1213,4.1213,4.1213,4.1213,4.1213,4.1213,4.1213,4.1213,4.1213,4.1213,4.1213,4.1213,4.1213,4.1213,4.2656,4.381,4.381,4.5328,4.6495,4.6495,4.6495,4.6495,4.6495,4.6495,4.6678,4.7069,4.673,4.673,4.7276,4.7699,4.8218,4.887,4.9291,4.9571,4.9693,4.9204,4.8638,4.7999,4.7878,4.7448,4.6801,4.6801,4.654,2.6591,2.6774,2.7031,2.7426,2.783,2.8243,2.8618,0.0,0.0,0.0,0.0,2.9014,2.9014,2.9014,0.0,0.0,2.9014,0.0,0.0,0.0,0.0,0.0,0.0,0.0,0.0,0.0,0.0,0.0,0.0,0.0,0.0,3.2352,3.3347,3.4383,3.5376,3.6125,3.6594,3.7121,3.8036,3.9308,3.9308,3.9984,4.1213,4.1213,4.1213,0.0,0.0,0.0,4.1213,4.1213,4.1213,4.1213,4.1213,4.1213,4.1213,4.1213,4.1213,4.1213,4.1213,4.1213,4.1213,4.1213,4.1213,4.1213,4.1213,4.1213,4.1213,4.1213,4.1213,4.1213,4.1213,4.1213,4.1213,4.1213,4.1213,4.1213,4.1213,4.1213,4.1213,4.1213,4.1213,4.1213,4.1213,4.2316,4.3326,4.3727,4.4966,4.6007,4.6442,4.6495,4.6495,4.6495,4.6495,4.6626,4.6913,4.6887,4.7198,4.7965,4.8319,4.872,4.9242,4.9247,4.9103,4.8836,4.8174,4.7671,4.7346,4.7056,4.6737,4.6403,4.6403,4.6374,2.6591,2.6591,2.671,2.7105,2.75,2.7903,2.8297,0.0,0.0,0.0,0.0,0.0,0.0,0.0,0.0,0.0,0.0,0.0,0.0,0.0,0.0,0.0,0.0,0.0,0.0,0.0,0.0,0.0,0.0,0.0,0.0,3.2224,3.3189,3.4341,3.5222,3.6217,3.7374,3.7404,3.8036,3.9308,3.9308,3.9984,4.1213,4.1213,4.1213,0.0,0.0,0.0,4.1213,4.1213,4.1213,4.1213,4.1213,4.1213,4.1213,4.1213,4.1213,4.1213,4.1213,4.1213,4.1213,4.1213,4.1213,4.1213,4.1213,4.1213,4.1213,4.1213,4.1213,4.1213,4.1213,4.1213,4.1213,4.1213,4.1213,4.1213,4.1213,4.1213,4.1213,4.1213,4.1213,4.1213,4.1213,4.2017,4.2949,4.37,4.4669,4.5609,4.639,4.6495,4.6495,4.6495,4.6495,4.6574,4.673,4.7159,4.7877,4.8945,4.8945,4.91,4.9538,4.8914,4.8275,4.7651,4.7076,4.6757,4.6656,4.6142,4.5903,4.5903,4.5903,4.6229,2.6591,2.6591,2.671,2.7105,2.75,2.7903,2.8297,0.0,0.0,0.0,0.0,0.0,0.0,0.0,0.0,0.0,0.0,0.0,0.0,0.0,0.0,0.0,0.0,0.0,0.0,0.0,0.0,0.0,0.0,0.0,0.0,3.1538,3.247,3.4352,3.456,3.553,3.7374,3.7404,3.8036,3.9308,3.9308,3.9984,4.1213,4.1213,4.1213,0.0,0.0,4.1213,4.1213,4.1213,4.1213,4.1213,4.1213,4.1213,4.1213,4.1213,4.1213,4.1213,4.1213,4.1213,4.1213,4.1213,4.1213,4.1213,4.1213,4.1213,4.1213,4.1213,4.1213,4.1213,4.1213,4.1213,4.1213,4.1213,4.1213,4.1213,4.1213,4.1213,4.1213,4.1213,4.1213,4.1213,4.1213,4.2516,4.3645,4.3782,4.5221,4.6337,4.6469,4.6495,4.6495,4.6495,4.6495,4.6873,4.7773,4.7925,4.8431,4.9498,4.9143,4.8889,4.8851,4.8261,4.7622,4.696,4.6859,4.654,4.6026,4.5961,4.5903,4.5903,4.5903,4.6229,2.65,2.6591,2.6628,2.6839,2.7343,2.7848,2.8041,0.0,0.0,0.0,0.0,0.0,0.0,0.0,0.0,0.0,0.0,0.0,0.0,0.0,0.0,0.0,0.0,0.0,0.0,0.0,0.0,0.0,0.0,0.0,0.0,0.0,3.2629,3.3568,3.4622,3.5654,3.6594,3.7121,3.8036,3.9308,3.9308,3.9984,4.1213,4.1213,4.1213,4.1213,0.0,4.1213,4.1213,4.1213,4.1213,4.1213,4.1213,4.1213,4.1213,4.1213,4.1213,4.1213,4.1213,4.1213,4.1213,4.1213,4.1213,4.1213,4.1213,4.1213,4.1213,4.1213,4.1213,4.1213,4.1213,4.1213,4.1213,4.1213,4.1213,4.1213,4.1213,4.1213,4.1213,4.1213,4.1213,4.1213,4.1213,4.2259,4.327,4.3727,4.4925,4.5914,4.6416,4.6495,4.6495,4.6495,4.6757,4.7146,4.7647,4.8193,4.8713,4.9127,4.8919,4.8461,4.7691,4.7396,4.6969,4.633,4.6316,4.6185,4.5903,4.5903,4.5903,4.5903,4.5903,4.6229,2.6473,2.6591,2.6591,2.6591,0.0,2.7683,2.7775,0.0,0.0,0.0,0.0,0.0,0.0,0.0,0.0,0.0,0.0,0.0,0.0,0.0,0.0,0.0,0.0,0.0,0.0,0.0,0.0,0.0,0.0,0.0,0.0,0.0,3.2661,3.2873,3.4373,3.5407,3.591,3.6655,3.7736,3.906,3.9208,3.9884,4.0971,4.1127,4.1213,4.1213,4.1213,4.1213,4.1213,4.1213,4.1213,4.1213,4.1213,4.1213,4.1213,4.1213,4.1213,4.1213,4.1213,4.1213,4.1213,4.1213,4.1213,4.1213,4.1213,4.1213,4.1213,4.1213,4.1213,4.1213,4.1213,4.1213,4.1213,4.1213,4.1213,4.1213,4.1213,4.1213,4.1213,4.1213,4.1213,4.127,4.1459,4.2243,4.3116,4.3974,4.4858,4.5702,4.6416,4.6495,4.6495,4.6495,4.6991,4.7335,4.7439,4.8308,4.8681,4.8286,4.8266,4.7816,4.6844,4.6656,4.6374,4.5917,4.5903,4.5903,4.5903,4.5903,4.5903,4.5903,4.5903,4.6301,2.6591,2.6591,2.6591,2.6591,2.693,0.0,2.7711,0.0,0.0,0.0,0.0,0.0,0.0,0.0,0.0,0.0,0.0,0.0,0.0,0.0,0.0,0.0,0.0,0.0,0.0,0.0,0.0,0.0,0.0,0.0,0.0,0.0,0.0,3.2883,3.3041,3.3998,3.5879,3.5971,3.6807,3.8376,3.9001,3.965,4.0281,4.0913,4.1213,4.1213,4.1213,4.1213,4.1213,4.1213,4.1213,4.1213,4.1213,4.1213,4.1213,4.1213,4.1213,4.1213,4.1213,4.1213,4.1213,4.1213,4.1213,4.1213,4.1213,4.1213,4.1213,4.1213,4.1213,4.1213,4.1213,4.1213,4.1213,4.1213,4.1213,4.1213,4.1213,4.1213,4.1213,4.1213,4.1213,4.1459,4.2271,4.3144,4.4002,4.4898,4.5808,4.6416,4.6495,4.6495,4.6495,4.6495,4.6991,4.7462,4.7817,4.8374,4.8204,4.7018,4.6946,4.6902,4.6801,4.6258,4.5946,4.5903,4.5903,4.5903,4.5903,4.5903,4.5903,4.5903,4.5903,4.6571,2.6391,2.6591,2.6591,2.6591,0.0,0.0,0.0,0.0,0.0,0.0,0.0,0.0,0.0,0.0,0.0,0.0,0.0,0.0,0.0,0.0,0.0,0.0,0.0,0.0,0.0,0.0,0.0,0.0,0.0,0.0,0.0,0.0,0.0,3.1978,3.2565,3.3284,3.4029,3.5283,3.64,3.7382,3.8693,3.9826,4.0826,4.1086,4.1213,4.1213,4.1213,4.1213,4.1213,4.1213,4.1213,4.1213,4.1213,4.1213,4.1213,4.1213,4.1213,4.1136,4.0812,4.0908,4.1165,4.08,4.092,4.1213,4.1213,4.1213,4.1213,4.1213,4.1213,4.1213,4.1213,4.1213,4.1213,4.1213,4.1213,4.1213,4.1213,4.1213,4.1213,4.1213,4.1213,4.1471,4.2356,4.3215,4.4084,4.4979,4.5888,4.6495,4.6495,4.6495,4.6495,4.6495,4.6905,4.7517,4.8316,4.7858,4.7323,4.6844,4.6801,4.6627,4.6258,4.6011,4.5903,4.5903,4.5903,4.5903,4.5903,4.5903,4.5903,4.5903,4.5903,4.6585,2.6391,2.6591,2.6591,0.0,0.0,0.0,0.0,0.0,0.0,0.0,0.0,0.0,0.0,0.0,0.0,0.0,0.0,0.0,0.0,0.0,0.0,0.0,0.0,0.0,0.0,0.0,0.0,0.0,0.0,0.0,0.0,0.0,0.0,0.0,3.2533,3.3189,3.3851,3.5222,3.6369,3.7292,3.8663,3.9867,4.0884,4.1098,4.1213,4.1213,4.1213,4.1213,4.1213,4.1213,4.1213,4.1213,4.1213,4.1213,4.1213,4.1213,4.1213,4.1129,4.0583,4.0631,4.0848,4.0319,4.0391,4.0715,4.0912,4.096,4.0968,4.1136,4.1213,4.1213,4.1213,4.1213,4.1213,4.1213,4.1213,4.1213,4.1213,4.1213,4.1213,4.1213,4.1213,4.1471,4.2356,4.3215,4.4084,4.4979,4.5888,4.6495,4.6495,4.6495,4.6558,4.6691,4.7077,4.7561,4.8064,4.7309,4.6728,4.6525,4.6511,4.633,4.5932,4.5903,4.5903,4.5903,4.5903,4.5903,4.5903,4.5903,4.5903,4.5903,4.5903,4.6585,2.6591,2.6591,2.6591,0.0,0.0,0.0,0.0,0.0,0.0,0.0,0.0,0.0,0.0,0.0,0.0,0.0,0.0,0.0,0.0,0.0,0.0,0.0,0.0,0.0,0.0,0.0,0.0,0.0,0.0,0.0,0.0,0.0,0.0,0.0,3.2905,3.3882,3.5879,3.591,3.6716,3.8287,3.8971,3.962,4.0223,4.0884,4.1213,4.1213,4.1213,4.1213,4.1213,4.1213,4.1213,4.1213,4.1213,4.1213,4.1213,4.1213,4.1213,4.1129,4.0571,4.0391,4.0294,3.9777,3.9597,3.9705,4.0234,4.0391,4.0499,4.1045,4.1172,4.1172,4.1172,4.1172,4.1201,4.1201,4.1201,4.1201,4.1201,4.1172,4.1172,4.1172,4.1172,4.1476,4.2331,4.3202,4.4071,4.4953,4.5874,4.6495,4.6495,4.6495,4.6666,4.7046,4.7567,4.7602,4.6871,4.6801,4.654,4.5946,4.5903,4.5903,4.5903,4.5903,4.5903,4.5903,4.5903,4.5903,4.5903,4.5903,4.5903,4.5903,4.5903,4.6585,2.6473,2.6591,0.0,0.0,0.0,0.0,0.0,0.0,0.0,0.0,0.0,0.0,0.0,0.0,0.0,0.0,0.0,0.0,0.0,0.0,0.0,0.0,0.0,0.0,0.0,0.0,0.0,0.0,0.0,0.0,0.0,0.0,0.0,0.0,3.3599,3.4258,3.485,3.5561,3.6339,3.7262,3.8156,3.9167,4.0223,4.0884,4.1213,4.1213,4.1213,4.1213,4.1213,4.1213,4.1213,4.1213,4.1213,4.1213,4.1213,4.1213,4.0944,4.0547,4.0018,3.9838,3.9753,3.9224,3.9281,3.9633,3.9789,3.9838,3.9874,4.003,4.0066,4.0066,4.0066,4.0066,4.0162,4.0535,4.0631,4.0523,4.0162,4.0066,4.0066,4.0066,4.0066,4.0528,4.1971,4.2417,4.3123,4.4616,4.5419,4.5884,4.5884,4.6166,4.639,4.6448,4.6531,4.6632,4.6784,4.6417,4.6084,4.5917,4.5903,4.5903,4.5903,4.5903,4.5903,4.5903,4.5903,4.5903,4.5903,4.5903,4.5903,4.5903,4.5903,4.6585,2.65,2.6591,0.0,0.0,0.0,0.0,0.0,0.0,0.0,0.0,0.0,0.0,0.0,0.0,0.0,0.0,0.0,0.0,0.0,0.0,0.0,0.0,0.0,0.0,0.0,0.0,0.0,0.0,0.0,0.0,0.0,0.0,0.0,0.0,3.4091,3.4902,3.593,3.6553,3.7171,3.7793,3.8652,3.9462,4.0223,4.0612,4.0942,4.1213,4.1213,4.1213,4.1213,4.1213,4.1213,4.1213,4.1213,4.1213,4.116,4.0944,4.0667,4.0294,3.9549,3.9296,3.9173,3.8659,3.8707,3.8996,3.9224,3.9296,3.9345,3.9549,3.9609,3.9609,3.9609,3.9609,3.9681,4.0006,4.0078,3.9994,3.9681,3.9609,3.9609,3.9609,3.9861,4.0384,4.1413,4.2131,4.2919,4.3991,4.4761,4.5234,4.5234,4.5852,4.6163,4.5866,4.6139,4.6339,4.643,4.6113,4.5903,4.5903,4.5903,4.5903,4.5903,4.5903,4.5903,4.5903,4.5903,4.5903,4.5903,4.5903,4.5903,4.5903,4.5903,4.6585,2.6591,0.0,0.0,2.6591,0.0,0.0,0.0,0.0,0.0,0.0,0.0,0.0,0.0,0.0,0.0,0.0,0.0,0.0,0.0,0.0,0.0,0.0,0.0,0.0,0.0,0.0,0.0,0.0,0.0,0.0,0.0,0.0,0.0,3.4352,3.4507,3.5715,3.8197,3.8257,3.8615,0.0,3.9826,4.0135,4.0194,4.0252,4.0612,4.1213,4.1213,4.1213,4.1213,4.1213,4.1213,4.1213,4.1213,4.1177,4.1052,4.0571,4.0331,4.0114,3.9152,3.8764,3.8659,3.8154,3.8012,3.8082,3.8587,3.8743,3.8812,3.932,3.9453,3.9453,3.9453,3.9453,3.9453,3.9453,3.9501,3.9525,3.9465,3.9453,3.9453,3.9453,4.0046,4.0591,4.0726,4.2044,4.3098,4.3319,4.4063,4.4624,4.4624,4.5502,4.5886,4.5286,4.6112,4.6496,4.5961,4.5903,4.5903,4.5903,4.5903,4.5903,4.5903,4.5903,4.5903,4.5903,4.5903,4.5903,4.5903,4.5903,4.5903,4.5903,4.5903,4.6556,2.6591,2.6591,0.0,0.0,0.0,0.0,0.0,0.0,0.0,0.0,0.0,0.0,0.0,0.0,0.0,0.0,0.0,0.0,0.0,0.0,0.0,0.0,0.0,0.0,0.0,0.0,0.0,0.0,0.0,0.0,0.0,0.0,0.0,3.4341,3.516,3.6217,3.7585,3.8047,3.8376,0.0,3.9178,3.9738,4.0223,4.0728,4.1069,4.1213,4.1213,4.1213,4.1213,4.1213,4.1213,4.1213,4.1213,4.0932,4.0547,4.0439,3.9874,3.9101,3.8872,3.8527,3.8142,3.8048,3.8012,3.8024,3.813,3.8166,3.819,3.8298,3.8334,3.8334,3.8334,3.8334,3.8334,3.8334,3.8671,3.8876,3.8431,3.8334,3.8334,3.8334,3.8483,3.899,4.0272,4.0773,4.1629,4.3416,4.3859,4.3997,4.3997,4.4868,4.5258,4.4654,4.5491,4.6026,4.5917,4.5903,4.5903,4.5903,4.5903,4.5903,4.5903,4.5903,4.5903,4.5903,4.5903,4.5903,4.5903,4.5903,4.5903,4.5903,4.5903,4.6301,2.6591,0.0,0.0,2.6591,0.0,0.0,0.0,0.0,0.0,0.0,0.0,0.0,0.0,0.0,0.0,0.0,0.0,0.0,0.0,0.0,0.0,0.0,0.0,0.0,0.0,0.0,0.0,0.0,0.0,0.0,0.0,3.1882,3.2949,3.44,3.4957,3.6117,3.7947,3.8283,3.885,3.9708,4.003,4.038,4.0682,4.1028,4.1213,4.1213,4.1213,4.1213,4.1172,4.0908,4.0812,4.0775,4.0523,4.0258,3.9982,3.9729,3.9296,3.8752,3.8515,3.8226,3.8012,3.8012,3.8012,3.8012,3.8012,3.8012,3.8012,3.8012,3.8012,3.8012,3.8012,3.8012,3.8012,3.8012,3.8202,3.8334,3.8072,3.8012,3.8012,3.8012,3.8317,3.8961,4.0185,4.1057,4.201,4.3196,4.3373,4.3373,4.3373,4.4245,4.4738,4.4415,4.5313,4.5903,4.5903,4.5903,4.5903,4.5903,4.5903,4.5903,4.5903,4.5903,4.5903,4.5903,4.5903,4.5903,4.5903,4.5903,4.5903,4.5903,4.5903,4.6229,2.6591,0.0,2.6591,2.6591,2.6591,0.0,0.0,0.0,0.0,0.0,0.0,0.0,0.0,0.0,0.0,0.0,0.0,0.0,0.0,0.0,0.0,0.0,0.0,0.0,0.0,0.0,0.0,0.0,0.0,0.0,3.1456,3.1736,3.2644,3.4426,3.4496,3.5679,3.8112,3.8355,3.9197,4.0622,4.0822,4.0908,4.0908,4.0908,4.1004,4.1201,4.1088,4.1052,4.1004,4.0475,4.0258,4.021,3.9777,3.9549,3.9417,3.8945,3.8728,3.8611,3.8142,3.8012,3.8012,3.8012,3.8012,3.8012,3.8012,3.8012,3.8012,3.8012,3.8012,3.8012,3.8012,3.8012,3.8012,3.8012,3.8012,3.8012,3.8012,3.8012,3.8012,3.8012,3.8752,3.9673,4.0478,4.1893,4.2911,4.2911,4.2984,4.3018,4.3018,4.3903,4.4527,4.4527,4.5359,4.5903,4.5903,4.5903,4.5903,4.5903,4.5903,4.5903,4.5903,4.5903,4.5903,4.5903,4.5903,4.5903,4.5903,4.5903,4.5903,4.5903,4.5903,4.6171,2.6591,0.0,2.6591,0.0,2.6591,2.6793,0.0,0.0,0.0,0.0,0.0,0.0,0.0,0.0,0.0,0.0,0.0,0.0,0.0,0.0,0.0,0.0,0.0,0.0,0.0,0.0,0.0,0.0,0.0,0.0,3.1084,3.2175,3.3315,3.4456,3.4496,3.5088,3.6355,3.7371,3.8033,3.8272,3.9299,3.9813,3.9813,3.9813,4.0319,4.116,4.0703,4.0499,4.0463,3.9934,3.9717,3.9705,3.9633,3.9333,3.8884,3.8812,3.8515,3.8109,3.8024,3.8012,3.8012,3.8012,3.8012,3.8012,3.8012,3.8012,3.8012,3.8012,3.8012,3.8012,3.8012,3.8012,3.8012,3.8012,3.8012,3.8012,3.8012,3.8012,3.8012,3.8012,3.9196,4.0503,4.1372,4.2289,4.2911,4.2911,4.3245,4.3519,4.3519,4.4392,4.5009,4.5009,4.5549,4.5903,4.5903,4.5903,4.5903,4.5903,4.5903,4.5903,4.5903,4.5903,4.5903,4.5903,4.5903,4.5903,4.5903,4.5903,4.5903,4.5903,4.5903,4.5946,2.6591,2.6591,2.6591,0.0,2.6591,2.6738,0.0,0.0,0.0,0.0,0.0,0.0,0.0,0.0,0.0,0.0,0.0,0.0,0.0,0.0,0.0,0.0,0.0,0.0,0.0,0.0,0.0,0.0,0.0,3.0326,3.1397,3.2015,3.3003,3.445,3.4508,3.5009,3.6106,3.6646,3.7365,3.8306,3.9169,3.9609,3.9609,3.9609,3.9862,4.0282,4.0054,3.9958,3.991,3.9353,3.9137,3.9101,3.8815,3.8551,3.8346,3.8346,3.819,3.8012,3.8012,3.8012,3.8012,3.8012,3.8012,3.8012,3.8012,3.8012,3.8012,3.8012,3.8012,3.8012,3.8012,3.8012,3.8012,3.8012,3.8012,3.8012,3.8012,3.8012,3.8133,3.8568,3.9609,4.068,4.1534,4.2362,4.2984,4.3245,4.3471,4.3709,4.4007,4.4662,4.5101,4.5101,4.5572,4.5903,4.5903,4.5903,4.5903,4.5903,4.5903,4.5903,4.5903,4.5903,4.5903,4.5903,4.5903,4.5903,4.5903,4.5903,4.5903,4.5903,4.5903,4.5903,0.0,0.0,2.6591,2.6591,2.6591,2.6719,0.0,0.0,0.0,0.0,0.0,0.0,0.0,0.0,0.0,0.0,0.0,0.0,0.0,0.0,0.0,0.0,0.0,0.0,0.0,0.0,0.0,0.0,0.0,3.0079,3.1718,3.2006,3.2874,3.444,3.4496,3.4922,3.5764,3.5932,3.6773,3.8311,3.8749,3.9024,3.92,3.92,3.92,3.92,3.9345,3.9405,3.9369,3.8827,3.8611,3.8563,3.8169,3.8012,3.8012,3.8012,3.8012,3.8012,3.8012,3.8012,3.8012,3.8012,3.8012,3.8012,3.8012,3.8012,3.8012,3.8012,3.8012,3.8012,3.8012,3.8012,3.8012,3.8012,3.8012,3.8012,3.8012,3.8012,3.8291,3.9312,3.9994,4.073,4.1807,4.2509,4.3067,4.3529,4.3733,4.4007,4.4513,4.5,4.5284,4.5284,4.5663,4.5903,4.5903,4.5903,4.5903,4.5903,4.5903,4.5903,4.5903,4.5903,4.5903,4.5903,4.5903,4.5903,4.5903,4.5903,4.5903,4.5903,4.5903,4.5903,0.0,2.6591,0.0,2.6591,2.6591,0.0,0.0,0.0,0.0,0.0,0.0,0.0,0.0,0.0,0.0,0.0,0.0,0.0,0.0,0.0,0.0,0.0,0.0,0.0,0.0,0.0,0.0,0.0,0.0,3.0752,3.1747,3.2579,3.347,3.4468,3.4496,3.4534,3.4584,3.5146,3.6027,3.7187,3.7214,3.7536,3.8096,3.8096,3.8096,3.8121,3.8623,3.8836,3.8788,3.825,3.8048,3.8048,3.8012,3.8012,3.8012,3.8012,3.8012,3.8012,3.8012,3.8012,3.8012,3.8012,3.8012,3.8012,3.8012,3.8012,3.8012,3.8012,3.8012,3.8012,3.8012,3.8012,3.8012,3.8012,3.8012,3.8012,3.8012,3.8012,3.8463,4.0032,4.0363,4.0932,4.2557,4.2863,4.3067,4.3529,4.403,4.4537,4.5009,4.5526,4.5858,4.5858,4.588,4.5903,4.5903,4.5903,4.5903,4.5903,4.5903,4.5903,4.5903,4.5903,4.5903,4.5903,4.5903,4.5903,4.5903,4.5903,4.5903,4.5903,4.5903,4.5903,0.0,0.0,0.0,2.6591,2.6591,2.6628,0.0,0.0,0.0,0.0,0.0,0.0,0.0,0.0,0.0,0.0,0.0,0.0,0.0,0.0,0.0,0.0,0.0,0.0,0.0,0.0,0.0,0.0,0.0,0.0,3.084,3.1776,3.2664,3.3554,3.4205,3.4496,3.4496,3.5102,3.579,3.6592,3.6943,3.7426,3.8012,3.8012,3.8012,3.8012,3.819,3.8286,3.8262,3.8096,3.8012,3.8012,3.8012,3.8012,3.8012,3.8012,3.8012,3.8012,3.8012,3.8012,3.8012,3.8012,3.8012,3.8012,3.8012,3.8012,3.8012,3.8012,3.8012,3.8012,3.8012,3.8012,3.8012,3.8012,3.8012,3.8012,3.8012,3.8012,3.8489,4.0084,4.0414,4.0919,4.2606,4.2911,4.3177,4.3997,4.4294,4.4676,4.5504,4.579,4.5903,4.5903,4.5903,4.5903,4.5903,4.5903,4.5903,4.5903,4.5903,4.5903,4.5903,4.5903,4.5903,4.5903,4.5903,4.5903,4.5903,4.5903,4.5903,4.5903,4.5903,4.5903,2.6591,0.0,0.0,0.0,0.0,2.6591,2.6591,0.0,0.0,0.0,0.0,0.0,0.0,0.0,0.0,0.0,0.0,0.0,0.0,0.0,0.0,0.0,0.0,0.0,0.0,0.0,0.0,0.0,0.0,0.0,3.0811,3.1747,3.2636,3.3526,3.4177,3.4496,3.4496,3.4891,3.5405,3.5993,3.6565,3.7131,3.7693,3.7906,3.8012,3.8012,3.8012,3.8012,3.8012,3.8012,3.8012,3.8012,3.8012,3.8012,3.8012,3.8012,3.8012,3.8012,3.8012,3.8012,3.8012,3.8012,3.8012,3.8012,3.8012,3.8012,3.8012,3.8012,3.8012,3.8012,3.8012,3.8012,3.8012,3.8012,3.8012,3.8012,3.8012,3.8212,3.8804,4.0135,4.063,4.1271,4.2655,4.2911,4.3249,4.4247,4.4387,4.476,4.5768,4.5903,4.5903,4.5903,4.5903,4.5903,4.5903,4.5903,4.5903,4.5903,4.5903,4.5903,4.5903,4.5903,4.5903,4.5903,4.5903,4.5903,4.5903,4.5903,4.5903,4.5903,4.5903,4.5903,0.0,0.0,0.0,0.0,0.0,0.0,2.6591,0.0,0.0,0.0,0.0,0.0,0.0,0.0,0.0,0.0,0.0,0.0,0.0,0.0,0.0,0.0,0.0,0.0,0.0,0.0,0.0,0.0,0.0,3.0811,3.1747,3.2636,3.3526,3.4468,3.4496,3.4496,3.4496,3.4496,3.4808,3.5405,3.602,3.6565,3.7131,3.7708,3.8012,3.8012,3.8012,3.8012,3.8012,3.8012,3.8012,3.8012,3.8012,3.8012,3.8012,3.8012,3.8012,3.8012,3.8012,3.8012,3.8012,3.8012,3.8012,3.8012,3.8012,3.8012,3.8012,3.8012,3.8012,3.8012,3.8012,3.8012,3.8012,3.8012,3.8012,3.8012,3.8012,3.8659,3.948,4.0236,4.1083,4.1919,4.2766,4.2911,4.3273,4.4247,4.4411,4.4783,4.5768,4.5903,4.5903,4.5903,4.5903,4.5903,4.5903,4.5903,4.5903,4.5903,4.5903,4.5903,4.5903,4.5903,4.5903,4.5903,4.5903,4.5903,4.5903,4.5903,4.5903,4.5903,4.5903,4.5903,2.6591,0.0,0.0,0.0,0.0,0.0,2.6591,2.6839,2.6995,0.0,0.0,0.0,0.0,0.0,0.0,0.0,0.0,0.0,0.0,0.0,0.0,0.0,0.0,0.0,0.0,0.0,0.0,0.0,3.0382,3.0811,3.1747,3.2636,3.3526,3.4468,3.4496,3.4496,3.4496,3.4496,3.4808,3.5405,3.602,3.6565,3.7131,3.7708,3.8012,3.8012,3.8012,3.8012,3.8012,3.8012,3.8012,3.8012,3.8012,3.8012,3.8012,3.8012,3.8012,3.8012,3.8012,3.8012,3.8012,3.8012,3.8012,3.8012,3.8012,3.8012,3.8012,3.8012,3.8012,3.8012,3.8012,3.8012,3.8012,3.8012,3.8012,3.8012,3.8012,3.9104,4.0135,4.0363,4.0591,4.1221,4.2655,4.3173,4.3614,4.4317,4.47,4.5161,4.5813,4.5903,4.5903,4.5903,4.5903,4.5903,4.5903,4.5903,4.5903,4.5903,4.5903,4.5903,4.5903,4.5903,4.5903,4.5903,4.5903,4.5903,4.5903,4.5903,4.5903,4.5903,4.5903,4.5903,0.0,0.0,0.0,0.0,0.0,0.0,2.6903,2.7041,2.7142,0.0,0.0,0.0,0.0,0.0,0.0,0.0,0.0,0.0,0.0,0.0,0.0,0.0,0.0,0.0,0.0,0.0,0.0,3.1469,3.1526,3.193,3.2874,3.3045,3.3526,3.4468,3.4496,3.4496,3.4496,3.4496,3.468,3.503,3.5637,3.6211,3.6781,3.7373,3.7773,3.8012,3.8012,3.8012,3.8012,3.8012,3.8012,3.8012,3.8012,3.8012,3.8012,3.8012,3.8012,3.8012,3.8012,3.8012,3.8012,3.8012,3.8012,3.8012,3.8012,3.8012,3.8012,3.8012,3.8012,3.8012,3.8012,3.8012,3.8012,3.8012,3.8012,3.808,3.8423,3.9234,3.9994,4.0338,4.0957,4.1743,4.2728,4.3293,4.378,4.4317,4.4815,4.5284,4.5835,4.5903,4.5903,4.5903,4.5903,4.5903,4.5903,4.5903,4.5903,4.5903,4.5903,4.5903,4.5903,4.5903,4.5903,4.5903,4.5903,4.5903,4.5903,4.5903,4.5903,4.5903,4.5903,4.5903,0.0,0.0,0.0,0.0,0.0,0.0,2.7353,2.7307,2.7325,2.7279,0.0,0.0,0.0,0.0,0.0,0.0,0.0,0.0,0.0,0.0,0.0,0.0,0.0,0.0,0.0,3.1324,3.215,3.3034,3.3204,3.3621,3.4468,3.3706,3.3649,3.4468,3.4496,3.4496,3.4496,3.4579,3.4607,3.4607,3.5268,3.5872,3.6402,3.6943,3.7495,3.8012,3.8012,3.8012,3.8012,3.8012,3.8012,3.8012,3.8012,3.8012,3.8012,3.8012,3.8012,3.8012,3.8012,3.8012,3.8012,3.8012,3.8012,3.8012,3.8012,3.8012,3.8012,3.8012,3.8012,3.8012,3.8012,3.8012,3.8012,3.8012,3.8012,3.8198,3.8908,3.9221,3.9544,4.0262,4.1682,4.279,4.2887,4.3341,4.3851,4.434,4.4862,4.5367,4.5835,4.5903,4.5903,4.5903,4.5903,4.5903,4.5903,4.5903,4.5903,4.5903,4.5903,4.5903,4.5903,4.5903,4.5903,4.5903,4.5903,4.5903,4.5903,4.5903,4.5903,4.5903,4.597,4.6015,0.0,0.0,0.0,0.0,0.0,0.0,2.7692,2.794,2.8058,0.0,0.0,0.0,0.0,0.0,0.0,0.0,0.0,0.0,0.0,0.0,0.0,0.0,0.0,0.0,0.0,3.169,3.215,3.3034,3.379,3.4317,3.4496,3.4317,3.4317,3.4496,3.4496,3.4496,3.4496,3.4974,3.5212,3.524,3.6282,3.6835,3.697,3.756,3.788,3.8012,3.8012,3.8012,3.8012,3.8012,3.8012,3.8012,3.8012,3.8012,3.8012,3.8012,3.8012,3.8012,3.8012,3.8012,3.8012,3.8012,3.8012,3.8012,3.8012,3.8012,3.8012,3.8012,3.8012,3.8012,3.8012,3.8012,3.8012,3.8012,3.8012,3.8027,3.8185,3.9248,4.0211,4.0363,4.1234,4.2141,4.279,4.3642,4.4294,4.4387,4.5175,4.579,4.588,4.5903,4.5903,4.5903,4.5903,4.5903,4.5903,4.5903,4.5903,4.5903,4.5903,4.5903,4.5903,4.5903,4.5903,4.5903,4.5903,4.5903,4.5903,4.5903,4.5903,4.5903,4.6447,4.6697,0.0,0.0,0.0,2.8399,0.0,0.0,0.0,2.8271,2.8333,0.0,0.0,0.0,0.0,0.0,0.0,0.0,0.0,0.0,0.0,0.0,0.0,0.0,0.0,0.0,0.0,3.2874,3.3339,3.3762,3.4233,3.4496,3.4496,3.4496,3.4496,3.4496,3.4496,3.4496,3.4496,3.5102,3.5405,3.5394,3.6282,3.6835,3.7105,3.74,3.772,3.8012,3.8012,3.8012,3.8012,3.8012,3.8012,3.8012,3.8012,3.8012,3.8012,3.8012,3.8012,3.8012,3.8012,3.8012,3.8012,3.8012,3.8012,3.8012,3.8012,3.8012,3.8012,3.8012,3.8012,3.8012,3.8012,3.8012,3.8012,3.8012,3.8012,3.8212,3.9014,3.9828,4.0642,4.1495,4.1991,4.2435,4.2838,4.3727,4.4387,4.4387,4.5267,4.5903,4.5903,4.5903,4.5903,4.5903,4.5903,4.5903,4.5903,4.5903,4.5903,4.5903,4.5903,4.5903,4.5903,4.5903,4.5903,4.5903,4.5903,4.5903,4.5903,4.5903,4.5903,4.5903,4.6602,4.6894,0.0,0.0,0.0,0.0,0.0,2.8893,0.0,0.0,0.0,0.0,0.0,0.0,0.0,0.0,0.0,0.0,0.0,0.0,0.0,0.0,0.0,0.0,0.0,0.0,0.0,3.3828,3.4212,3.4212,3.4212,3.4212,3.4212,3.4338,3.4354,3.4354,3.4452,3.4496,3.4496,3.5224,3.5571,3.5571,3.6293,3.6862,3.7266,3.7266,3.7533,3.8012,3.8012,3.8012,3.8012,3.8012,3.8012,3.8012,3.8012,3.8012,3.8012,3.8012,3.8012,3.8012,3.8012,3.8012,3.8012,3.8012,3.8012,3.8012,3.8012,3.8012,3.8012,3.8012,3.8012,3.8012,3.8012,3.8012,3.8039,3.8185,3.8238,3.8621,4.0084,4.0516,4.1032,4.2411,4.279,4.2911,4.2911,4.3727,4.4387,4.4387,4.5267,4.5903,4.5903,4.5903,4.5903,4.5903,4.5903,4.5903,4.5903,4.5903,4.5903,4.5903,4.5903,4.5903,4.5903,4.5903,4.5903,4.5903,4.5903,4.5903,4.5903,4.6038,4.6083,4.6105,4.6785,4.7163,0.0,0.0,0.0,0.0,2.9014,0.0,0.0,0.0,0.0,0.0,0.0,0.0,0.0,0.0,0.0,0.0,0.0,0.0,0.0,0.0,0.0,0.0,0.0,0.0,0.0,0.0,3.3262,3.3262,3.3262,3.3262,3.3262,3.3639,3.3879,3.3879,3.4266,3.4496,3.4496,3.5637,3.6184,3.6211,3.7281,3.7841,3.7906,3.7906,3.7933,3.8012,3.8012,3.8012,3.8012,3.8012,3.8012,3.8012,3.8012,3.8012,3.8012,3.8012,3.8012,3.8012,3.8012,3.8012,3.8012,3.8012,3.8012,3.8012,3.8012,3.8012,3.8012,3.8012,3.8012,3.8012,3.8012,3.8012,3.8185,3.8882,3.9065,3.9312,4.0211,4.0995,4.1622,4.1796,4.2411,4.2911,4.2911,4.3727,4.4387,4.4387,4.5267,4.5903,4.5903,4.5903,4.5903,4.5903,4.5903,4.5903,4.5903,4.5903,4.5903,4.5903,4.5903,4.5903,4.5903,4.5903,4.5903,4.5903,4.5903,4.5903,4.5903,4.6491,4.68,4.6785,4.7471,4.8099,0.0,0.0,0.0,0.0,0.0,0.0,0.0,0.0,2.9014,0.0,0.0,0.0,0.0,0.0,0.0,0.0,0.0,0.0,0.0,0.0,0.0,0.0,0.0,0.0,0.0,0.0,0.0,0.0,3.3098,3.3098,3.3098,3.3283,3.3393,3.3393,3.3846,3.4098,3.4098,3.5216,3.5954,3.632,3.7105,3.7655,3.8012,3.8012,3.8012,3.8012,3.8012,3.8012,3.8012,3.8012,3.8012,3.8012,3.8012,3.8012,3.8012,3.8012,3.8012,3.8012,3.8012,3.8012,3.8012,3.8012,3.8012,3.8012,3.8012,3.8012,3.8012,3.8012,3.8012,3.8012,3.8012,3.8012,3.8185,3.9013,3.9195,3.9557,4.0882,4.1435,4.1845,4.2313,4.2668,4.2984,4.3269,4.3926,4.4387,4.4387,4.5267,4.5903,4.5903,4.5903,4.5903,4.5903,4.5903,4.5903,4.5903,4.5903,4.5903,4.5903,4.5903,4.5903,4.5903,4.5903,4.5903,4.5903,4.5903,4.6083,4.6491,4.6763,4.7292,4.8072,4.8366,4.862,2.8407,0.0,0.0,0.0,0.0,0.0,0.0,0.0,0.0,0.0,0.0,0.0,0.0,0.0,0.0,0.0,0.0,0.0,0.0,0.0,0.0,0.0,0.0,0.0,0.0,0.0,0.0,3.2693,3.2693,3.2693,3.2693,3.2835,3.2912,3.2912,3.3371,3.3661,3.3792,3.4735,3.549,3.6075,3.6742,3.7319,3.7773,3.7933,3.8012,3.8012,3.8012,3.8012,3.8012,3.8012,3.8012,3.8012,3.8012,3.8012,3.8012,3.8012,3.8012,3.8012,3.8012,3.8012,3.8012,3.8012,3.8012,3.8012,3.8012,3.8012,3.8012,3.8012,3.8012,3.8012,3.8012,3.8012,3.8265,3.9298,3.9519,3.9981,4.1658,4.2018,4.219,4.279,4.2911,4.3043,4.3505,4.403,4.4434,4.456,4.5336,4.5903,4.5903,4.5903,4.5903,4.5903,4.5903,4.5903,4.5903,4.5903,4.5903,4.5903,4.5903,4.5903,4.5903,4.5903,4.5903,4.5903,4.5903,4.6225,4.6894,4.7076,4.7755,4.8908,4.8908,4.8989,0.0,0.0,0.0,2.8883,0.0,0.0,0.0,0.0,2.8874,0.0,0.0,0.0,0.0,0.0,0.0,0.0,0.0,0.0,0.0,0.0,0.0,0.0,0.0,0.0,0.0,0.0,0.0,3.1647,3.1647,3.1647,3.1647,3.2132,3.2431,3.2431,3.2879,3.3349,3.3792,3.4413,3.4946,3.5433,3.6553,3.7105,3.7158,3.7747,3.8012,3.8012,3.8012,3.8012,3.8012,3.8012,3.8012,3.8012,3.8012,3.8012,3.8012,3.8012,3.8012,3.8012,3.8012,3.8012,3.8012,3.8012,3.8012,3.8012,3.8012,3.8012,3.8012,3.8012,3.8012,3.8012,3.8012,3.8012,3.8384,3.9981,4.0363,4.0831,4.2495,4.2863,4.2863,4.2887,4.2911,4.3043,4.3505,4.403,4.4537,4.5009,4.5549,4.5903,4.5903,4.5903,4.5903,4.5903,4.5903,4.5903,4.5903,4.5903,4.5903,4.5903,4.5903,4.5903,4.5903,4.5903,4.5903,4.5903,4.5903,4.6225,4.6894,4.7557,4.8204,4.8908,4.8908,4.9249,0.0,0.0,2.7209,2.8019,0.0,0.0,0.0,0.0,0.0,0.0,0.0,0.0,0.0,0.0,0.0,0.0,0.0,0.0,0.0,0.0,0.0,0.0,0.0,0.0,0.0,0.0,0.0,3.1593,3.1593,3.1593,0.0,3.1767,3.188,3.188,3.2361,3.2715,3.2863,3.3702,3.4371,3.4946,3.6051,3.6754,3.7131,3.7708,3.8012,3.8012,3.8012,3.8012,3.8012,3.8012,3.8012,3.8012,3.8012,3.8012,3.8012,3.8012,3.8012,3.8012,3.8012,3.8012,3.8012,3.8012,3.8012,3.8012,3.8012,3.8012,3.8012,3.8012,3.8012,3.8012,3.8012,3.8012,3.8423,4.0032,4.0414,4.0843,4.2544,4.2911,4.2911,4.2911,4.2911,4.3163,4.3997,4.4294,4.4574,4.5032,4.5549,4.5903,4.5903,4.5903,4.5903,4.5903,4.5903,4.5903,4.5903,4.5903,4.5903,4.5903,4.5903,4.5903,4.5903,4.5903,4.5903,4.5903,4.5903,4.6454,4.7557,4.7776,4.847,4.9562,4.9562,4.9681,2.5895,2.6167,0.0,2.7294,2.7459,0.0,2.7738,0.0,0.0,0.0,0.0,0.0,0.0,0.0,0.0,0.0,0.0,0.0,0.0,3.1837,0.0,0.0,0.0,0.0,0.0,0.0,3.1593,3.1593,3.1593,3.1593,0.0,0.0,3.1593,3.1593,3.1946,3.2197,3.2409,3.3197,3.3858,3.4402,3.5679,3.6472,3.6835,3.764,3.8012,3.8012,3.8012,3.8012,3.8012,3.8012,3.8012,3.8012,3.8012,3.8012,3.8012,3.8012,3.8012,3.8012,3.8012,3.8012,3.8012,3.8012,3.8012,3.8012,3.8012,3.8012,3.8012,3.8012,3.8012,3.8012,3.8012,3.8212,3.8752,4.0084,4.063,4.1246,4.2606,4.2911,4.2911,4.2911,4.2911,4.3225,4.4223,4.4387,4.4607,4.5299,4.5677,4.5903,4.5903,4.5903,4.5903,4.5903,4.5903,4.5903,4.5903,4.5903,4.5903,4.5903,4.5903,4.5903,4.5903,4.5903,4.5903,4.5903,4.6127,4.6792,4.7904,4.8136,4.8821,4.9896,4.9896,4.9896]},{"header":{"parameterUnit":"m.s-1","parameterCategory":1,"la1":30.6,"la2":29.2853,"lo1":-89.7004,"lo2":-87.6739,"dy":0.0162,"dx":0.0183,"nx":112,"ny":82,"refTime":"2024-04-02T18:00:00:Z","depth":0,"parameterNumber":3,"parameterNumberName":"V-component_of_WINDS"},"data":[0.0,0.0,0.0,0.0,0.0,0.0,0.0,0.0,0.0,0.0,0.0,0.0,0.0,0.0,0.0,0.0,0.0,0.0,0.0,0.0,0.0,0.0,0.0,0.0,0.0,0.0,0.0,0.0,0.0,0.0,0.0,0.0,0.0,0.0,0.0,0.0,0.0,0.0,0.0,0.0,0.0,0.0,0.0,0.0,0.0,0.0,0.0,0.0,0.0,0.0,0.0,0.0,0.0,0.0,0.0,0.0,0.0,0.0,0.0,0.0,0.0,0.0,0.0,0.0,0.0,0.0,0.0,0.0,0.0,0.0,0.0,0.0,0.0,0.0,0.0,0.0,0.0,0.0,0.0,0.0,0.0,0.0,0.0,0.0,0.0,0.0,0.0,0.0,0.0,0.0,0.0,3.1005,3.0849,3.0755,3.0755,3.0755,3.0755,3.0755,0.0,0.0,0.0,0.0,0.0,0.0,0.0,0.0,0.0,0.0,0.0,0.0,0.0,0.0,0.0,0.0,0.0,0.0,0.0,0.0,0.0,0.0,0.0,0.0,0.0,0.0,0.0,0.0,0.0,0.0,0.0,0.0,0.0,0.0,0.0,0.0,0.0,0.0,0.0,0.0,0.0,0.0,0.0,0.0,0.0,0.0,0.0,0.0,0.0,0.0,0.0,0.0,0.0,0.0,0.0,0.0,0.0,0.0,0.0,0.0,0.0,0.0,0.0,0.0,0.0,0.0,0.0,0.0,0.0,0.0,0.0,0.0,0.0,0.0,0.0,0.0,0.0,0.0,0.0,0.0,0.0,0.0,0.0,0.0,0.0,0.0,0.0,0.0,0.0,0.0,0.0,0.0,0.0,0.0,0.0,0.0,0.0,0.0,0.0,0.0,0.0,0.0,0.0,0.0,3.1005,3.1005,3.0968,3.0949,3.0949,3.0949,3.0949,3.0949,0.0,0.0,0.0,0.0,0.0,0.0,0.0,0.0,0.0,0.0,0.0,0.0,0.0,0.0,0.0,0.0,0.0,0.0,0.0,0.0,0.0,0.0,0.0,0.0,0.0,0.0,0.0,0.0,0.0,0.0,0.0,0.0,0.0,0.0,0.0,0.0,0.0,0.0,0.0,0.0,0.0,0.0,0.0,0.0,0.0,0.0,0.0,0.0,0.0,0.0,0.0,0.0,0.0,0.0,0.0,0.0,0.0,0.0,0.0,0.0,0.0,0.0,0.0,0.0,0.0,0.0,0.0,0.0,0.0,0.0,0.0,0.0,0.0,0.0,0.0,0.0,0.0,0.0,0.0,0.0,0.0,0.0,0.0,0.0,0.0,0.0,0.0,0.0,0.0,0.0,0.0,0.0,0.0,0.0,0.0,0.0,0.0,0.0,0.0,0.0,0.0,0.0,0.0,3.1005,3.1005,3.1005,3.1005,3.1005,3.1005,3.1005,3.1005,3.1005,3.0911,0.0,0.0,0.0,0.0,0.0,0.0,0.0,0.0,0.0,0.0,0.0,0.0,0.0,0.0,0.0,0.0,0.0,0.0,0.0,0.0,0.0,0.0,0.0,0.0,0.0,0.0,0.0,0.0,0.0,0.0,0.0,0.0,0.0,0.0,0.0,0.0,0.0,0.0,0.0,0.0,0.0,0.0,0.0,0.0,0.0,0.0,0.0,0.0,0.0,0.0,0.0,0.0,0.0,0.0,0.0,0.0,0.0,0.0,0.0,0.0,0.0,0.0,0.0,0.0,0.0,0.0,0.0,0.0,0.0,0.0,0.0,0.0,0.0,0.0,0.0,0.0,0.0,0.0,0.0,0.0,0.0,0.0,0.0,0.0,0.0,0.0,0.0,0.0,0.0,0.0,0.0,0.0,0.0,0.0,0.0,0.0,0.0,0.0,0.0,0.0,0.0,0.0,3.1005,3.1005,3.1005,3.1005,3.1005,3.1005,3.1005,3.1005,3.1005,3.1005,0.0,0.0,0.0,0.0,0.0,0.0,0.0,0.0,0.0,0.0,0.0,0.0,0.0,0.0,0.0,0.0,0.0,0.0,0.0,0.0,0.0,0.0,0.0,0.0,0.0,0.0,0.0,0.0,0.0,0.0,0.0,0.0,0.0,0.0,0.0,0.0,0.0,0.0,0.0,0.0,0.0,0.0,0.0,0.0,0.0,0.0,0.0,0.0,0.0,0.0,0.0,0.0,0.0,0.0,0.0,0.0,0.0,0.0,0.0,0.0,0.0,0.0,0.0,0.0,0.0,0.0,0.0,0.0,0.0,0.0,0.0,0.0,0.0,0.0,0.0,0.0,0.0,0.0,0.0,0.0,0.0,0.0,0.0,0.0,0.0,0.0,0.0,0.0,0.0,0.0,0.0,0.0,0.0,0.0,0.0,0.0,0.0,0.0,0.0,0.0,0.0,0.0,3.1005,3.1005,3.1005,3.1005,3.1005,3.1005,3.1005,3.1005,3.1005,3.1005,0.0,0.0,0.0,0.0,0.0,0.0,0.0,0.0,0.0,0.0,0.0,0.0,0.0,0.0,0.0,0.0,0.0,0.0,0.0,0.0,0.0,0.0,0.0,0.0,0.0,0.0,0.0,0.0,0.0,0.0,0.0,0.0,0.0,0.0,0.0,0.0,0.0,0.0,0.0,0.0,0.0,0.0,0.0,0.0,0.0,0.0,0.0,0.0,0.0,0.0,0.0,0.0,0.0,0.0,0.0,0.0,0.0,0.0,0.0,0.0,0.0,0.0,0.0,0.0,0.0,0.0,0.0,0.0,0.0,0.0,0.0,0.0,0.0,0.0,0.0,0.0,0.0,0.0,0.0,0.0,0.0,0.0,0.0,0.0,0.0,0.0,0.0,0.0,0.0,0.0,0.0,0.0,0.0,0.0,0.0,0.0,0.0,0.0,0.0,0.0,0.0,0.0,3.13,3.1503,0.0,3.1836,3.2064,3.2064,3.1731,3.1503,3.1503,0.0,0.0,0.0,0.0,0.0,0.0,0.0,0.0,0.0,0.0,0.0,0.0,0.0,0.0,0.0,0.0,0.0,0.0,0.0,0.0,0.0,0.0,0.0,0.0,0.0,0.0,0.0,0.0,0.0,0.0,0.0,0.0,0.0,0.0,0.0,0.0,0.0,0.0,0.0,0.0,0.0,0.0,0.0,0.0,0.0,0.0,0.0,0.0,0.0,0.0,0.0,0.0,0.0,0.0,0.0,0.0,0.0,0.0,0.0,0.0,0.0,0.0,0.0,0.0,0.0,0.0,0.0,0.0,0.0,0.0,0.0,0.0,0.0,0.0,0.0,0.0,0.0,0.0,0.0,0.0,0.0,0.0,0.0,0.0,0.0,0.0,0.0,0.0,0.0,0.0,0.0,0.0,0.0,0.0,0.0,0.0,0.0,0.0,0.0,0.0,0.0,0.0,3.1496,3.1862,3.2091,0.0,3.245,3.2685,3.2685,3.2313,3.2091,3.2091,0.0,0.0,0.0,0.0,0.0,0.0,0.0,0.0,0.0,0.0,0.0,0.0,0.0,0.0,0.0,0.0,0.0,0.0,0.0,0.0,0.0,0.0,0.0,0.0,0.0,0.0,0.0,0.0,0.0,0.0,0.0,0.0,0.0,0.0,0.0,0.0,0.0,0.0,0.0,0.0,0.0,0.0,0.0,0.0,0.0,0.0,0.0,0.0,0.0,0.0,0.0,0.0,0.0,0.0,0.0,0.0,0.0,0.0,0.0,0.0,0.0,0.0,0.0,0.0,0.0,0.0,0.0,0.0,0.0,0.0,0.0,0.0,0.0,0.0,0.0,0.0,0.0,0.0,0.0,0.0,0.0,0.0,0.0,0.0,0.0,0.0,0.0,0.0,0.0,0.0,0.0,0.0,0.0,0.0,0.0,0.0,0.0,0.0,0.0,0.0,0.0,0.0,3.262,3.2698,3.2698,3.2698,3.2712,3.2712,3.2712,3.2712,3.2698,0.0,0.0,0.0,0.0,0.0,0.0,0.0,0.0,0.0,0.0,0.0,0.0,0.0,0.0,0.0,0.0,0.0,0.0,0.0,0.0,0.0,0.0,0.0,0.0,0.0,0.0,0.0,0.0,0.0,0.0,0.0,0.0,0.0,0.0,0.0,0.0,0.0,0.0,0.0,0.0,0.0,0.0,0.0,0.0,0.0,0.0,0.0,0.0,0.0,0.0,0.0,0.0,0.0,0.0,0.0,0.0,0.0,0.0,0.0,0.0,0.0,0.0,0.0,0.0,0.0,0.0,0.0,0.0,0.0,0.0,0.0,0.0,0.0,0.0,0.0,0.0,0.0,0.0,0.0,0.0,0.0,0.0,0.0,0.0,0.0,0.0,0.0,0.0,0.0,0.0,0.0,0.0,0.0,0.0,0.0,0.0,0.0,0.0,0.0,0.0,0.0,0.0,0.0,3.2672,3.3064,3.3326,3.3326,3.3666,3.3901,3.3901,3.3548,3.3326,3.3326,0.0,0.0,0.0,0.0,0.0,0.0,0.0,0.0,0.0,0.0,0.0,0.0,0.0,0.0,0.0,0.0,0.0,0.0,0.0,0.0,0.0,0.0,0.0,0.0,0.0,0.0,0.0,0.0,0.0,0.0,0.0,0.0,0.0,0.0,0.0,0.0,0.0,0.0,0.0,0.0,0.0,0.0,0.0,0.0,0.0,0.0,0.0,0.0,0.0,0.0,0.0,0.0,0.0,0.0,0.0,0.0,0.0,0.0,0.0,0.0,0.0,0.0,0.0,0.0,0.0,0.0,0.0,0.0,0.0,0.0,0.0,0.0,0.0,0.0,0.0,0.0,0.0,0.0,0.0,0.0,0.0,0.0,0.0,0.0,0.0,0.0,0.0,0.0,0.0,0.0,0.0,0.0,0.0,0.0,0.0,0.0,0.0,0.0,0.0,0.0,0.0,0.0,3.3352,3.3692,3.3914,3.3914,3.4201,3.4397,3.4397,3.4097,3.3914,3.3914,0.0,0.0,0.0,0.0,0.0,0.0,0.0,0.0,0.0,0.0,0.0,0.0,0.0,0.0,0.0,0.0,0.0,0.0,0.0,0.0,0.0,0.0,0.0,0.0,0.0,0.0,0.0,0.0,0.0,0.0,0.0,0.0,0.0,0.0,0.0,0.0,0.0,0.0,0.0,0.0,0.0,0.0,0.0,0.0,0.0,0.0,0.0,0.0,0.0,0.0,0.0,0.0,0.0,0.0,0.0,0.0,0.0,0.0,0.0,0.0,0.0,0.0,0.0,0.0,0.0,0.0,0.0,0.0,0.0,0.0,0.0,0.0,0.0,0.0,0.0,0.0,0.0,0.0,0.0,0.0,0.0,0.0,0.0,0.0,0.0,0.0,0.0,0.0,0.0,0.0,0.0,0.0,0.0,0.0,0.0,0.0,0.0,0.0,0.0,0.0,0.0,0.0,3.4332,3.4397,3.4397,3.4397,3.4397,3.4397,3.4397,3.4397,3.4397,3.4397,0.0,0.0,0.0,0.0,0.0,0.0,0.0,0.0,0.0,0.0,0.0,0.0,0.0,0.0,0.0,0.0,0.0,0.0,0.0,0.0,0.0,0.0,0.0,0.0,0.0,0.0,0.0,0.0,0.0,0.0,0.0,0.0,0.0,0.0,0.0,0.0,0.0,0.0,0.0,0.0,0.0,0.0,0.0,0.0,0.0,0.0,0.0,0.0,0.0,0.0,0.0,0.0,0.0,0.0,0.0,0.0,0.0,0.0,0.0,0.0,3.6266,0.0,0.0,0.0,0.0,0.0,0.0,0.0,0.0,0.0,0.0,0.0,0.0,0.0,0.0,0.0,0.0,0.0,0.0,0.0,0.0,0.0,0.0,0.0,0.0,0.0,0.0,0.0,0.0,0.0,0.0,0.0,0.0,0.0,0.0,0.0,0.0,0.0,0.0,0.0,0.0,0.0,3.4384,3.4397,3.4397,3.4397,3.4397,3.4397,3.4397,3.4397,3.4397,3.4397,0.0,0.0,0.0,0.0,0.0,0.0,0.0,0.0,0.0,0.0,0.0,0.0,0.0,0.0,0.0,0.0,0.0,0.0,0.0,0.0,0.0,0.0,0.0,0.0,0.0,0.0,0.0,0.0,0.0,0.0,0.0,0.0,0.0,0.0,0.0,0.0,0.0,0.0,0.0,0.0,0.0,0.0,0.0,0.0,0.0,0.0,0.0,0.0,0.0,0.0,0.0,0.0,0.0,0.0,0.0,0.0,0.0,0.0,0.0,0.0,0.0,3.6914,0.0,0.0,0.0,0.0,0.0,0.0,0.0,0.0,0.0,0.0,0.0,0.0,0.0,0.0,0.0,0.0,0.0,0.0,0.0,0.0,0.0,0.0,0.0,0.0,0.0,0.0,0.0,0.0,0.0,0.0,0.0,0.0,0.0,0.0,0.0,0.0,0.0,0.0,0.0,0.0,3.4868,3.4829,3.4724,3.4424,3.4397,3.4397,3.4397,3.4397,3.4397,3.4397,3.4397,0.0,0.0,0.0,0.0,0.0,0.0,0.0,0.0,0.0,0.0,0.0,0.0,0.0,0.0,0.0,0.0,0.0,0.0,0.0,0.0,0.0,0.0,0.0,0.0,0.0,0.0,0.0,0.0,0.0,0.0,0.0,0.0,0.0,0.0,0.0,0.0,0.0,0.0,0.0,0.0,0.0,0.0,0.0,0.0,0.0,0.0,0.0,0.0,0.0,0.0,0.0,0.0,0.0,3.8491,3.8491,3.8491,3.8614,3.8661,3.8659,3.8334,3.8309,3.8475,0.0,0.0,0.0,0.0,0.0,0.0,0.0,0.0,0.0,0.0,0.0,0.0,0.0,0.0,0.0,0.0,0.0,0.0,0.0,0.0,0.0,0.0,0.0,0.0,0.0,3.599,3.5551,0.0,0.0,0.0,0.0,0.0,0.0,0.0,0.0,0.0,0.0,0.0,0.0,3.5495,3.5443,3.5247,3.475,3.4698,3.4698,3.4698,3.4698,3.4698,3.4698,3.4607,3.4554,0.0,0.0,0.0,0.0,0.0,0.0,0.0,0.0,0.0,0.0,0.0,0.0,0.0,0.0,0.0,0.0,0.0,0.0,0.0,0.0,0.0,0.0,0.0,0.0,0.0,0.0,0.0,0.0,0.0,0.0,0.0,0.0,3.8391,3.8391,0.0,0.0,0.0,0.0,0.0,0.0,0.0,0.0,0.0,0.0,0.0,0.0,0.0,0.0,3.8491,3.8491,3.8491,3.8491,3.8491,3.8491,3.8522,3.9091,3.9368,3.9399,3.9915,0.0,3.8491,3.8426,0.0,0.0,0.0,0.0,0.0,0.0,0.0,0.0,0.0,0.0,0.0,0.0,0.0,0.0,0.0,0.0,0.0,0.0,0.0,0.0,0.0,0.0,3.6131,3.6745,3.6847,3.6915,0.0,3.6897,3.6443,3.6381,0.0,0.0,0.0,0.0,0.0,0.0,0.0,0.0,3.6005,3.5992,3.5966,3.5887,3.5874,3.5874,3.5874,3.5874,3.5874,3.5874,3.5443,3.5182,3.5182,3.4672,0.0,0.0,0.0,0.0,0.0,0.0,0.0,0.0,0.0,0.0,0.0,0.0,0.0,0.0,0.0,0.0,0.0,0.0,0.0,0.0,0.0,0.0,0.0,0.0,0.0,0.0,0.0,0.0,0.0,3.9021,3.9167,3.9541,3.9573,3.9703,0.0,0.0,0.0,0.0,0.0,0.0,0.0,0.0,0.0,4.0071,4.0186,4.0247,4.0247,4.0632,4.0799,4.0799,4.0799,4.0799,4.0799,4.1107,4.123,4.1261,4.1553,4.1337,4.0737,3.9953,3.963,3.963,0.0,0.0,0.0,0.0,3.963,3.963,3.963,3.963,0.0,0.0,0.0,0.0,0.0,0.0,0.0,0.0,0.0,0.0,0.0,0.0,0.0,3.8357,3.8521,3.8692,3.9337,3.9194,3.8782,0.0,3.8539,3.8727,3.7997,0.0,0.0,0.0,0.0,0.0,3.6658,3.6606,3.6488,3.6136,3.6109,3.6109,3.6109,3.6109,3.6109,3.6109,3.5874,3.5757,3.5757,3.5208,3.4907,0.0,0.0,0.0,0.0,0.0,0.0,0.0,0.0,0.0,0.0,0.0,0.0,0.0,0.0,0.0,0.0,0.0,0.0,0.0,0.0,0.0,0.0,0.0,0.0,0.0,0.0,0.0,0.0,3.975,3.9944,4.0447,4.0511,4.0561,0.0,0.0,0.0,0.0,0.0,0.0,4.1306,4.1167,4.1145,4.1319,4.1749,4.2032,4.2112,4.2602,4.294,4.311,4.311,4.311,4.311,4.311,4.311,4.311,4.311,4.3017,4.2756,4.1537,4.1045,4.1045,4.1045,4.1045,4.1045,4.1045,4.1045,4.1045,4.1045,4.1045,4.1045,4.1045,0.0,4.101,4.0854,0.0,0.0,0.0,0.0,3.9543,3.9543,3.9432,3.9425,3.9876,3.9838,3.9914,4.0568,4.059,4.0272,0.0,3.9865,3.9865,3.8926,0.0,0.0,0.0,0.0,3.7743,3.7299,3.7233,3.7063,3.6619,3.6567,3.6567,3.6567,3.6567,3.6567,3.6567,3.6423,3.6332,3.6332,3.5796,3.5495,3.5495,0.0,0.0,0.0,0.0,0.0,0.0,0.0,0.0,0.0,0.0,0.0,0.0,0.0,0.0,0.0,0.0,0.0,0.0,0.0,0.0,0.0,0.0,0.0,0.0,0.0,0.0,0.0,0.0,0.0,4.0511,4.0511,0.0,0.0,0.0,0.0,4.2441,4.2205,4.2462,4.3476,4.2938,4.2888,4.3518,4.3196,4.3182,4.3501,4.3531,4.3867,4.4498,4.4498,4.4498,4.4498,4.4498,4.4498,4.4498,4.4498,4.4129,4.3482,4.2786,4.2476,4.2476,4.2476,4.2476,4.2476,4.2476,4.2476,4.2476,4.2476,4.2476,4.2476,4.2476,4.2476,4.2385,4.1807,4.2007,0.0,0.0,4.1565,4.1565,4.1565,4.1136,4.0716,4.0737,4.0266,3.998,4.0651,4.0296,3.9985,0.0,4.0631,4.0365,3.9438,0.0,3.8948,3.8037,3.79,3.79,3.7861,3.7861,3.7848,3.7808,3.7808,3.7808,3.7808,3.7808,3.7808,3.7808,3.7273,3.6959,3.6959,3.6384,3.6057,3.6057,3.5534,0.0,0.0,0.0,0.0,0.0,0.0,0.0,0.0,0.0,0.0,0.0,0.0,0.0,0.0,0.0,0.0,0.0,0.0,0.0,0.0,0.0,0.0,0.0,0.0,0.0,0.0,0.0,0.0,4.1793,4.1857,0.0,4.2877,4.2958,4.3249,4.3962,4.3913,4.3993,4.4399,4.4403,4.4346,4.4338,4.4828,4.5033,4.4883,4.5314,4.5653,4.59,4.59,4.59,4.59,4.59,4.59,4.59,4.59,4.5761,4.5515,4.5264,4.4172,4.2602,4.2602,4.2602,4.2602,4.2602,4.2602,4.2602,4.2602,4.2602,4.2602,4.2602,4.2602,4.2565,4.2349,4.2438,4.2547,4.2331,4.2276,4.2276,4.2276,4.2113,4.1963,4.1955,4.1775,4.1563,4.1418,4.1191,4.0949,4.0745,4.0702,4.0508,3.9865,3.9755,3.9438,3.8489,3.8344,3.823,3.7946,3.79,3.79,3.79,3.79,3.79,3.79,3.79,3.79,3.79,3.7704,3.7586,3.7586,3.6998,3.6684,3.6684,3.6109,3.5809,0.0,0.0,0.0,0.0,0.0,0.0,0.0,0.0,0.0,0.0,0.0,0.0,0.0,0.0,0.0,0.0,0.0,0.0,0.0,0.0,0.0,0.0,0.0,0.0,0.0,0.0,4.2472,4.2926,4.3201,4.3525,4.401,4.4075,4.4366,4.5079,4.5028,4.5253,4.5856,4.5983,4.6021,4.5992,4.6475,4.6674,4.65,4.6791,4.705,4.7281,4.7281,4.7281,4.7281,4.7281,4.7281,4.7281,4.7281,4.7157,4.6942,4.6942,4.5757,4.3956,4.3956,4.3956,4.3956,4.3956,4.3956,4.3956,4.3956,4.3956,4.3956,4.3956,4.3956,4.3956,4.3956,4.3956,4.3956,4.3956,4.3956,4.3956,4.3956,4.3956,4.3951,4.3948,4.3767,4.3498,4.3101,4.2867,4.2574,4.2145,4.1482,4.0845,4.0387,4.0465,4.0306,3.9348,3.9211,3.9041,3.8545,3.8475,3.8475,3.8475,3.8475,3.8475,3.8475,3.8292,3.8174,3.8174,3.8004,3.79,3.79,3.7521,3.7312,3.7312,3.6711,3.6305,3.6109,0.0,0.0,0.0,0.0,0.0,0.0,0.0,0.0,0.0,0.0,0.0,0.0,0.0,0.0,0.0,0.0,0.0,0.0,0.0,0.0,0.0,0.0,0.0,4.2635,4.3249,4.3703,4.3719,4.4383,4.4836,4.4869,4.4901,4.5176,4.5856,4.5597,4.619,4.7942,4.7756,4.7878,4.8496,4.8101,4.8033,4.8316,4.7893,4.7989,4.863,4.8645,4.866,4.866,4.866,4.8645,4.8614,4.8614,4.8245,4.7635,4.7635,4.725,4.6665,4.6619,4.6603,4.6603,4.6603,4.6603,4.6603,4.6603,4.6603,4.6603,4.6603,4.6603,4.6603,4.6603,4.6603,4.6603,4.6603,4.6603,4.6603,4.6603,4.6603,4.6603,4.6603,4.6097,4.562,4.56,4.5135,4.4725,4.4704,4.3077,4.1525,4.1068,4.1449,4.1507,4.0569,4.0404,0.0,3.9684,3.9612,3.9612,3.9612,3.9612,3.9612,3.9612,3.9076,3.8736,3.8736,3.8227,3.7926,3.7926,3.7913,3.79,3.79,3.7325,3.6737,3.6136,0.0,0.0,0.0,0.0,0.0,0.0,0.0,0.0,0.0,0.0,0.0,0.0,0.0,0.0,0.0,0.0,0.0,0.0,0.0,0.0,0.0,0.0,4.401,4.3476,4.3573,4.3897,4.4431,4.5111,4.5726,4.6278,4.6811,4.741,4.8073,4.8033,4.8192,4.8704,4.9149,4.9337,4.9229,4.9579,4.9508,4.9035,4.9376,4.9507,4.9389,4.9882,5.0128,5.0128,5.0128,4.9851,4.9389,4.9389,4.8989,4.8343,4.8343,4.8235,4.7958,4.6973,4.6603,4.6603,4.6603,4.6603,4.6603,4.6603,4.6603,4.6603,4.6603,4.6603,4.6603,4.6603,4.6603,4.6603,4.6603,4.6603,4.6603,4.6603,4.6603,4.6603,4.6603,4.6469,4.6178,4.5702,4.5477,4.5224,4.4788,4.4153,4.3518,4.2951,4.2586,4.2023,4.1046,4.0906,0.0,3.9695,3.9612,3.9612,3.9612,3.9612,3.9612,3.9612,3.9455,3.934,3.934,3.8815,3.8488,3.8488,3.8109,3.79,3.79,3.7743,3.7364,0.0,0.0,0.0,0.0,0.0,0.0,0.0,0.0,0.0,0.0,0.0,0.0,0.0,0.0,0.0,0.0,0.0,0.0,0.0,0.0,0.0,0.0,4.5163,4.5176,4.5063,4.5046,4.5192,4.563,4.6536,4.7296,4.7734,4.8171,4.8704,4.94,4.9449,4.9594,4.992,5.0325,5.0569,5.0633,5.0652,5.0604,5.044,5.0455,5.0337,5.0112,5.0497,5.0697,5.0697,5.0697,5.0482,0.0,5.0112,4.9882,4.9481,4.9481,4.9312,0.0,0.0,0.0,0.0,0.0,4.745,4.745,4.745,4.745,4.745,4.745,4.745,4.745,4.745,4.745,4.745,4.745,4.745,4.745,4.745,4.745,4.745,4.745,4.745,4.7333,4.6935,4.6874,4.675,4.6391,0.0,0.0,4.5344,4.4203,4.3077,4.2285,4.2154,4.1778,4.079,4.0645,4.0561,4.0342,4.0306,4.0306,4.0306,4.0071,0.0,0.0,0.0,3.9089,3.9089,3.854,0.0,0.0,0.0,3.773,3.7377,0.0,0.0,0.0,3.6188,3.5926,0.0,0.0,0.0,0.0,0.0,0.0,0.0,0.0,0.0,0.0,0.0,0.0,0.0,0.0,0.0,0.0,4.6045,4.6395,4.7125,4.7252,4.7234,4.7153,4.8317,4.9125,4.9125,4.9206,4.9513,5.0179,5.0293,5.0617,5.1283,0.0,0.0,0.0,0.0,5.143,5.2001,5.1301,5.0913,5.0805,5.0882,5.0928,5.0928,5.0928,5.0882,5.0805,5.0805,5.0774,5.0697,5.0697,5.0343,4.9733,4.8927,4.8599,4.8599,4.8599,4.8599,4.8599,4.8599,0.0,0.0,4.8599,4.8599,4.8599,4.8599,4.8599,4.8599,4.8599,4.8599,4.8599,4.8599,4.8599,4.8599,4.8599,4.8599,4.8599,4.8599,4.8599,4.8599,4.8599,4.8061,4.76,4.76,4.5943,4.4429,4.3814,4.3705,4.3338,4.2251,4.2103,4.1881,4.1361,0.0,0.0,4.1286,4.0803,4.0489,4.0489,3.998,3.9677,3.9612,3.9102,3.8815,3.8815,3.8279,3.7991,3.7991,3.7926,3.79,3.7874,3.6802,3.6305,0.0,0.0,0.0,0.0,0.0,0.0,0.0,0.0,0.0,0.0,0.0,0.0,0.0,0.0,0.0,4.8605,4.8431,4.8408,4.9215,4.9416,4.9256,4.8656,4.9352,4.9888,4.9888,5.0422,5.0827,5.0991,5.1491,5.1863,5.1993,5.2576,0.0,5.3074,5.2917,5.2565,5.2017,5.2382,5.2198,5.1513,0.0,0.0,5.2313,5.2313,5.2021,5.1513,5.1513,5.1205,5.0697,5.0697,5.062,5.0374,4.9112,4.8599,4.8599,4.8599,4.8599,4.8599,4.8599,4.8599,4.8599,4.8599,4.8599,4.8599,4.8599,4.8599,0.0,4.8599,4.8599,4.8599,4.8599,4.8599,4.8599,4.8599,4.8599,4.8599,4.8599,4.8599,4.8599,4.8599,4.8061,4.76,4.76,4.6748,4.5734,4.4652,4.449,4.3904,4.2311,4.2103,4.1881,4.1361,4.1286,4.1286,4.1286,4.1181,4.1116,4.1116,4.0567,4.0045,3.9625,3.9494,3.9442,3.9442,3.8854,3.8553,3.8553,3.8122,3.79,3.79,3.7665,3.7547,0.0,0.0,0.0,0.0,0.0,0.0,0.0,0.0,0.0,0.0,0.0,4.8059,4.8592,0.0,4.878,4.979,4.9876,5.0048,5.0739,5.1193,5.0982,4.97,5.0196,5.0649,5.0649,5.1299,5.1704,5.1704,5.2349,5.2754,5.2754,5.3091,5.3463,5.3835,5.3399,5.3234,5.3399,5.3265,5.2987,5.2566,5.2885,5.2922,5.2691,5.2691,5.2529,5.2206,5.2206,5.2021,5.1682,5.1344,5.1205,5.1097,5.0066,4.9451,4.9143,4.9143,4.8927,4.8599,4.8599,4.8599,4.8599,4.8599,4.8599,4.8599,4.8599,4.8599,4.8599,4.8599,4.8599,4.8599,4.8599,4.8599,4.8599,4.8599,4.8599,4.8599,4.8599,4.8599,4.8599,4.8599,4.8334,4.8103,4.8103,4.7798,4.6988,4.5355,4.5095,4.4564,4.305,4.2641,4.2289,4.1746,4.1461,4.1286,4.1286,4.1286,4.1286,4.1286,4.1012,4.0724,4.0474,4.015,3.9993,3.9993,3.9455,3.9155,3.9155,3.8893,3.8762,3.8762,3.8762,3.8449,0.0,0.0,0.0,0.0,0.0,0.0,0.0,0.0,4.8324,4.891,4.9031,4.9272,5.008,4.9988,5.004,5.0768,5.1094,5.1439,5.2085,5.2451,5.2147,5.0798,5.1071,5.1382,5.138,5.1879,5.2252,5.2398,5.3091,5.3511,5.3511,5.3641,5.3981,5.4584,5.3855,5.3856,5.466,5.3899,5.3443,5.3246,5.3246,5.3078,5.2691,5.2691,5.2691,5.2691,5.2691,5.2691,5.2645,5.2129,5.1898,5.1836,5.1298,5.0667,5.0066,4.9949,4.9512,4.8983,4.8866,4.8799,4.8804,4.8666,4.8599,4.8599,4.8599,4.8599,4.8599,4.8599,4.8599,4.8599,4.8599,4.8599,4.8599,4.8599,4.8599,4.8599,4.8599,4.8599,4.8599,4.8599,4.8599,4.8599,4.8599,4.8599,4.7982,4.6173,4.5784,4.5233,4.3965,4.3352,4.2849,4.23,4.1771,4.1411,4.1311,4.1286,4.1286,4.1286,4.1286,4.1286,4.1286,4.0816,4.0567,4.0567,4.0056,3.9769,3.9769,3.964,3.9612,3.9612,3.9612,3.9115,4.8064,4.783,0.0,4.7548,4.8134,4.8686,0.0,0.0,4.9769,4.9855,4.9873,5.0082,5.0841,5.0941,5.1395,5.2815,5.2636,5.2585,5.338,5.2682,5.2187,5.2458,5.2153,5.1958,5.2083,5.2155,5.2479,5.3123,5.3871,5.4276,5.4276,5.4839,5.5195,5.5276,5.5194,5.4814,5.4173,5.4066,5.359,5.2781,5.2781,5.2758,5.2691,5.2691,5.2691,5.2691,5.2691,5.2691,5.2691,5.2614,5.2606,5.259,5.2513,5.2067,5.1405,5.0805,5.0528,5.0374,4.9774,4.9595,4.9466,4.882,4.8599,4.8599,4.8599,4.8599,4.8599,4.8599,4.8599,4.8599,4.8599,4.8599,4.8599,4.8599,4.8599,4.8599,4.8599,4.8599,4.8599,4.8599,4.8599,4.8599,4.8599,4.8599,4.8313,4.7493,4.6828,4.5958,4.473,4.3965,4.3328,4.2849,4.2324,4.182,4.1336,4.1286,4.1286,4.1286,4.1286,4.1286,4.1286,4.1234,4.1194,4.1194,4.0607,4.0306,4.0306,3.9823,3.9612,3.9612,3.9612,3.9534,4.8017,0.0,0.0,0.0,4.8927,4.9496,4.9496,4.9755,5.0011,5.0011,5.0341,5.072,5.103,5.1546,5.2242,0.0,5.3293,5.3408,5.4075,5.4123,5.4059,5.3974,5.4138,5.4005,5.3311,5.3715,5.4128,5.4436,5.4784,5.4968,5.4968,5.5243,5.5389,5.5389,5.4895,5.4723,5.4869,5.4343,5.3909,5.3503,5.3503,5.3233,5.2691,5.2691,5.2691,5.2691,5.2691,5.2691,5.2691,5.2691,5.2691,5.2691,5.2691,5.2544,5.2206,5.1528,5.1036,5.0651,5.0374,5.0266,5.0159,4.9466,4.9235,4.9158,4.8743,4.8599,4.8599,4.8599,4.8599,4.8599,4.8599,4.8599,4.8599,4.8599,4.8599,4.8599,4.8599,4.8599,4.8743,4.9158,4.9235,4.9358,4.9758,4.982,4.9735,4.9457,4.8119,4.666,4.5324,4.462,4.3908,4.3008,4.2435,4.2005,4.1796,4.1486,4.1286,4.1286,4.1286,4.1286,4.1286,4.1286,4.1286,4.1286,4.1038,4.0907,4.0907,4.0685,4.0581,4.0581,4.0581,4.0581,4.8408,0.0,0.0,4.9134,4.9565,5.0011,5.0011,5.0011,5.0062,5.0269,5.072,5.122,5.1651,5.2291,5.2952,5.3604,5.3832,5.413,5.4724,5.5142,5.5374,5.5347,5.586,5.5856,5.493,5.5107,5.5306,5.5345,5.538,5.5389,5.5389,5.5389,5.5389,5.5389,5.479,5.4723,5.5241,5.447,5.4038,5.3915,5.3779,5.3365,5.2691,5.2691,5.2691,5.2691,5.2691,5.2691,5.2691,5.2691,5.2691,5.2691,5.2691,5.2691,5.2652,5.2159,5.1667,5.1221,5.1036,5.0974,5.0867,5.0189,4.998,4.9866,4.9343,4.9189,4.9189,4.9189,4.9189,4.9189,4.9189,4.9189,4.9189,4.9189,4.9189,4.9189,4.9189,4.9189,4.9343,4.9866,4.998,5.0134,5.0605,5.0697,5.0617,5.0406,4.9081,4.7685,4.6488,4.5452,4.4349,4.3046,4.2557,4.2202,4.1906,4.1536,4.1286,4.1286,4.1286,4.1286,4.1286,4.1286,4.1286,4.1286,4.1286,4.1286,4.1286,4.1286,4.1286,4.1286,4.1286,4.1286,0.0,0.0,4.9959,4.9959,4.9993,5.0011,5.0011,5.0011,5.0186,5.091,5.1082,5.1548,5.3063,5.3358,5.3616,5.4341,5.4463,5.4721,5.5461,5.514,5.5297,5.6585,5.6919,5.7016,0.0,5.5931,5.5326,5.5389,5.5393,5.5389,5.5389,5.5389,5.5389,5.5389,5.5369,5.52,5.4827,5.4343,5.3872,5.3421,5.2966,5.2736,5.2691,5.2691,5.2691,5.2691,5.2691,5.2691,5.2691,5.2691,5.2691,5.2691,5.2691,5.2691,5.2691,5.2698,5.2645,5.2537,5.1898,5.1682,5.1559,5.0882,5.0667,5.0667,5.0636,5.0636,5.0636,5.0636,5.0636,5.0636,5.0636,5.0636,5.0636,5.0636,5.0636,5.0636,5.0636,5.0636,5.0636,5.0667,5.0667,5.0667,5.0697,5.0697,5.0443,4.9642,4.9485,4.9202,4.8499,4.6583,4.4676,4.3062,4.2887,4.2449,4.1411,4.1311,4.1286,4.1286,4.1286,4.1286,4.1286,4.1286,4.1286,4.1286,4.1286,4.1286,4.1286,4.1286,4.1286,4.1286,4.1286,4.1286,0.0,0.0,5.0011,5.0011,5.0011,5.0011,5.0011,5.0375,5.0789,5.1048,5.191,5.2787,5.3304,5.3804,5.4218,5.4461,5.4496,5.4754,5.5496,5.59,5.6469,5.7427,5.8032,0.0,0.0,0.0,0.0,5.6616,5.6221,5.6001,5.6001,5.5616,5.5389,5.5389,5.5138,5.4952,5.4806,5.4322,5.3872,5.3415,5.3386,5.3353,5.3353,5.3353,5.3353,5.3337,5.2876,5.2691,5.2691,5.2691,5.2691,5.2691,5.2691,5.2691,5.2691,5.2691,5.2691,5.2683,5.2452,5.2375,5.2252,5.159,5.1359,5.1282,5.0836,5.0697,5.0697,5.0697,5.0697,5.0697,5.0697,5.0697,5.0697,5.0697,5.0697,5.0697,5.0697,5.0697,5.0836,5.1282,5.1359,5.1498,5.1959,5.2036,5.1776,5.1023,4.9258,4.7957,4.7738,4.6695,4.5765,4.5216,4.4474,4.3872,4.353,4.2478,4.1845,4.1845,4.1511,4.1286,4.1286,4.1286,4.1286,4.1286,4.1286,4.1286,4.1286,4.1286,4.1286,4.1286,4.1286,4.1286,5.0037,5.0011,5.0062,5.0324,5.039,5.0462,5.072,5.1151,5.1565,5.1858,5.2718,5.3477,5.3753,5.4168,5.4496,5.4496,5.4496,5.4858,5.5875,5.6477,5.7167,5.8168,5.8702,0.0,0.0,0.0,0.0,5.7243,5.6633,5.6381,5.6614,5.5841,5.5491,5.5717,5.5122,5.4806,5.4806,5.4173,5.3737,5.3523,5.3882,5.406,5.406,5.406,5.3922,5.3676,5.3245,5.2906,5.2691,5.2691,5.2691,5.2691,5.2691,5.2691,5.2691,5.2691,5.2691,5.2691,5.2691,5.2691,5.2637,5.2206,5.2067,5.199,5.1559,5.1405,5.1405,5.1405,5.1405,5.1405,5.1405,5.1405,5.1405,5.1405,5.1405,5.1405,5.1405,5.1405,5.1544,5.1975,5.2067,5.2183,5.2637,5.2473,5.2155,5.168,4.9554,4.7942,4.7688,4.7038,4.6459,4.6063,4.5365,4.4846,4.465,4.3451,4.272,4.272,4.2001,4.1597,4.1597,4.1411,4.1286,4.1286,4.1286,4.1286,4.1286,4.1286,4.1286,4.1286,4.1286,4.1286,4.9993,5.0031,5.0235,5.0927,5.1134,5.1341,5.2048,5.2237,5.2479,5.3253,5.3442,5.3684,0.0,0.0,5.4496,5.4496,5.4496,5.5046,5.6581,5.6805,5.7357,0.0,0.0,0.0,0.0,0.0,0.0,5.7374,0.0,5.6633,5.7222,5.6123,5.5737,5.628,5.5352,5.4827,5.4765,5.3866,5.3501,5.3706,5.4414,5.4753,5.4753,5.4753,5.4399,5.3753,5.3706,5.3322,5.2691,5.2691,5.2691,5.2691,5.2691,5.2691,5.2691,5.2691,5.2691,5.2691,5.2691,5.2691,5.2691,5.2691,5.2691,5.2691,5.2691,5.2691,5.2691,5.2691,5.2691,5.2691,5.2691,5.2691,5.2691,5.2691,5.2691,5.2691,5.2691,5.2691,5.2691,5.2691,5.2691,5.2691,5.2691,5.2132,5.1657,5.1657,5.034,4.9105,4.8446,4.7701,4.6825,4.5766,4.5619,4.5382,4.4881,4.4223,4.3821,4.3794,4.2735,4.2081,4.2054,4.1572,4.1286,4.1286,4.1286,4.1286,4.1286,4.1286,4.1286,4.1286,4.1286,4.1286,5.0051,5.0393,5.0858,5.1048,5.1513,5.1979,5.2168,5.2651,5.3151,5.3356,5.3839,5.4287,0.0,0.0,0.0,5.4496,5.4496,0.0,5.6581,5.6805,0.0,0.0,0.0,5.8944,5.8789,5.8927,0.0,0.0,5.7977,5.7723,5.7868,5.7149,5.6614,5.6319,5.5765,5.509,5.4279,5.3841,5.3658,5.3706,5.4899,5.5453,5.5453,5.5453,5.5076,5.4429,5.3922,5.3322,5.2691,5.2691,5.2691,5.2691,5.2691,5.2691,5.2691,5.2691,5.2691,5.2691,5.2691,5.2691,5.2691,5.2691,5.2691,5.2691,5.2691,5.2691,5.2691,5.2691,5.2691,5.2691,5.2691,5.2691,5.2691,5.2691,5.2691,5.2691,5.2691,5.2691,5.2691,5.2691,5.2691,5.2691,5.2691,5.2541,5.2427,5.2427,5.1099,4.9858,4.913,4.8354,4.7749,4.7455,4.7035,4.6706,4.6556,4.5237,4.4217,4.3821,4.2774,4.1969,4.1524,4.1361,4.1286,4.1286,4.1286,4.1286,4.1286,4.1286,4.1286,4.1286,4.1286,4.1286,5.0451,5.0772,5.1255,5.1927,5.241,5.2806,5.3134,5.3548,5.3891,5.3891,5.4218,0.0,0.0,0.0,0.0,0.0,0.0,0.0,5.6581,5.6805,5.7357,0.0,5.8995,0.0,5.8995,5.8995,5.8995,0.0,5.844,5.8209,5.8492,5.7411,5.6768,5.6691,5.5588,5.465,5.3934,5.4073,5.4276,5.4607,5.5653,5.6185,5.6185,5.6185,5.5638,5.4691,0.0,5.3583,5.2691,5.2691,5.2691,5.2691,5.2691,5.2691,5.2691,5.2691,5.2691,5.2691,5.2691,5.2691,5.2691,5.2691,5.2691,5.2691,5.2691,5.2691,5.2691,5.2691,5.2691,5.2691,5.2691,5.2691,5.2691,5.2691,5.2691,5.2691,5.2691,5.2691,5.2691,5.2691,5.2691,5.2691,5.2691,5.2691,5.2691,5.2691,5.1379,5.0254,4.9834,4.8806,4.8094,4.8094,4.78,4.7575,4.7575,4.6222,4.5235,4.492,4.363,4.2622,4.203,4.1816,4.1572,4.1299,4.1286,4.1286,4.1286,4.1286,4.1286,4.1286,4.1286,4.1286,5.0893,5.1168,5.1582,5.3046,5.3477,5.3718,5.4341,5.4496,5.4496,5.4496,0.0,5.4496,5.4496,5.4496,5.4496,5.4496,0.0,5.5046,5.6581,5.6805,5.7357,5.8806,5.8995,5.8995,5.8995,5.8995,5.8995,5.8995,5.851,5.8457,5.8978,5.7446,5.6691,5.698,5.5177,5.4062,5.3758,5.4422,5.5077,5.5655,5.6425,5.681,5.681,5.6693,5.5954,5.4706,0.0,0.0,5.2691,5.2691,5.2691,5.2691,5.2691,5.2691,5.2691,5.2691,5.2691,5.2691,5.2691,5.2691,5.2691,5.2691,5.2691,5.2691,5.2691,5.2691,5.2691,5.2691,5.2691,5.2691,5.2691,5.2691,5.2691,5.2691,5.2691,5.2691,5.2691,5.2691,5.2691,5.2691,5.2691,5.2691,5.2691,5.2691,5.2691,5.2691,5.1379,5.0397,5.0397,4.904,4.8094,4.8094,4.8094,4.8094,4.8094,4.707,4.6395,4.6323,4.4878,4.3754,4.3066,4.2568,4.2027,4.1442,4.1325,4.1286,4.1286,4.1286,4.1286,4.1286,4.1286,4.1286,5.0893,5.1548,5.2237,5.3166,5.3873,5.4339,5.4477,5.4496,0.0,0.0,0.0,5.4496,5.4496,5.4496,5.4496,5.4496,0.0,0.0,0.0,0.0,5.7357,0.0,0.0,0.0,0.0,0.0,0.0,0.0,0.0,5.8892,5.8995,5.8227,5.7224,5.5991,5.5127,5.447,5.4039,5.4857,5.5346,5.5448,5.636,5.681,5.6794,5.617,5.5453,5.4676,5.4106,0.0,5.2691,5.2691,5.2691,5.2691,5.2691,5.2691,5.2691,5.2691,5.2691,5.2691,5.2691,5.2691,5.2691,5.2691,5.2691,5.2691,5.2691,5.2691,5.2691,5.2691,5.2691,5.2691,5.2691,5.2691,5.2691,5.2691,5.2691,5.2691,5.2691,5.2691,5.2691,5.2691,5.2691,5.2691,5.2691,5.2691,5.2691,5.2691,5.1379,5.0397,5.0397,4.904,4.8094,4.8094,4.8094,4.8094,4.8094,4.7513,4.6915,4.6401,4.5694,4.4819,4.3782,4.3174,4.2602,4.2042,4.1546,4.1286,4.1286,4.1286,4.1286,4.1286,4.1286,4.1286,5.1375,5.1927,5.2496,5.3684,5.4237,5.4496,5.4496,0.0,0.0,0.0,0.0,5.4496,5.4496,5.4496,0.0,0.0,0.0,0.0,0.0,0.0,0.0,0.0,0.0,0.0,0.0,0.0,0.0,0.0,0.0,5.8995,5.8995,5.8138,5.7036,5.5749,5.5106,5.473,5.4618,5.4802,5.5039,5.5414,5.5611,5.5715,5.5699,5.5345,5.4799,5.4168,5.3845,0.0,5.2691,5.2691,5.2691,5.2691,5.2691,5.2691,5.2691,5.2691,5.2691,5.2691,5.2691,5.2691,5.2691,5.2691,5.2691,5.2691,5.2691,5.2691,5.2691,5.2691,5.2691,5.2691,5.2691,5.2691,5.2691,5.2691,5.2691,5.2691,5.2691,5.2691,5.2691,5.2691,5.2691,5.2691,5.2691,5.2691,5.2563,5.22,5.1146,5.0254,4.9883,4.8806,4.8094,4.8094,4.8094,4.8094,4.8094,4.761,4.7163,4.6885,4.6344,4.5503,4.4368,4.4036,4.3341,4.2224,4.1924,4.1611,4.1286,4.1286,4.1286,4.1286,4.1286,4.1286,5.1806,5.2203,5.2565,5.4099,5.4496,5.4496,5.4496,5.4496,0.0,0.0,5.4496,5.4496,5.4496,0.0,5.4496,0.0,0.0,0.0,0.0,0.0,0.0,0.0,0.0,0.0,0.0,0.0,0.0,0.0,0.0,0.0,5.8806,5.7905,5.6904,5.5868,5.5357,5.5146,5.5153,5.4766,5.4807,5.5331,5.4892,5.4706,5.4706,5.4553,5.4199,5.3691,5.3553,0.0,0.0,5.2691,5.2691,5.2691,5.2691,5.2691,5.2691,5.2691,5.2691,5.2691,5.2691,5.2691,5.2691,5.2691,5.2691,5.2691,5.2691,5.2691,5.2691,5.2691,5.2691,5.2691,5.2691,5.2691,5.2691,5.2691,5.2691,5.2691,5.2691,5.2691,5.2691,5.2691,5.2691,5.2691,5.2691,5.2691,5.245,5.1703,5.0911,5.0134,4.9385,4.8595,4.8094,4.8094,4.8094,4.8094,4.8094,4.7712,4.7482,4.7482,4.7015,4.6315,4.5295,4.5134,4.4327,4.2771,4.2614,4.2196,4.1494,4.1494,4.1442,4.1286,4.1286,4.1286,5.1806,5.2203,5.2565,5.4099,5.4496,5.4496,5.4496,0.0,0.0,5.4496,5.4496,5.4496,5.4496,0.0,0.0,0.0,0.0,5.4772,0.0,0.0,0.0,0.0,0.0,0.0,0.0,0.0,0.0,0.0,0.0,0.0,5.8209,5.8084,5.7467,5.6264,5.6202,5.5914,5.5384,5.5143,5.5074,5.5115,5.4837,5.4706,5.4691,5.4076,5.3768,5.366,5.306,0.0,0.0,5.2691,5.2691,5.2691,5.2691,5.2691,5.2691,5.2691,5.2691,5.2691,5.2691,5.2691,5.2691,5.2691,5.2691,5.2691,5.2691,5.2691,5.2691,5.2691,5.2691,5.2691,5.2691,5.2691,5.2691,5.2691,5.2691,5.2691,5.2691,5.2691,5.2691,5.2691,5.2691,5.2691,5.2691,5.2691,5.245,5.1703,5.0911,5.0134,4.9385,4.8595,4.8094,4.8094,4.8094,4.8094,4.8094,4.8044,4.8018,4.8018,4.7967,4.7685,4.709,4.6525,4.567,4.4504,4.3985,4.321,4.2121,4.2121,4.1846,4.1286,4.1286,4.1286,5.1806,5.2203,5.2565,5.4099,5.4496,5.4496,5.4496,0.0,5.4496,5.4496,5.4496,5.4496,5.4496,5.4496,0.0,0.0,0.0,0.0,5.5496,0.0,0.0,0.0,0.0,0.0,0.0,0.0,0.0,0.0,0.0,0.0,5.865,5.8298,5.7868,5.7409,5.6672,5.6182,5.5941,5.4979,5.4492,5.4492,5.3827,5.3491,5.3491,5.3214,5.3091,5.3076,5.2837,0.0,0.0,5.2691,5.2691,5.2691,5.2691,5.2691,5.2691,5.2691,5.2691,5.2691,5.2691,5.2691,5.2691,5.2691,5.2691,5.2691,5.2691,5.2691,5.2691,5.2691,5.2691,5.2691,5.2691,5.2691,5.2691,5.2691,5.2691,5.2691,5.2691,5.2691,5.2691,5.2691,5.2691,5.2691,5.2691,5.2691,5.2276,5.1052,5.0627,4.9965,4.8745,4.8297,4.8094,4.8094,4.8094,4.8094,4.8094,4.8094,4.8094,4.8094,4.8094,4.7866,4.7327,4.7079,4.6235,4.4716,4.4489,4.3818,4.2683,4.2369,4.2081,4.1846,4.1481,4.1286,5.153,5.203,5.2513,5.3841,5.4339,5.4496,0.0,0.0,5.4496,5.4496,5.4496,5.4496,5.4496,5.4496,5.4496,0.0,0.0,5.4668,5.5203,0.0,0.0,0.0,0.0,0.0,0.0,0.0,0.0,0.0,0.0,0.0,0.0,5.8597,5.8281,5.812,5.7093,5.6478,5.63,5.4966,5.4237,5.4103,5.3299,5.2833,5.2691,5.2691,5.2691,5.2691,0.0,0.0,0.0,5.2691,5.2691,5.2691,5.2691,5.2691,5.2691,5.2691,5.2691,5.2691,5.2691,5.2691,5.2691,5.2691,5.2691,5.2691,5.2691,5.2691,5.2691,5.2691,5.2691,5.2691,5.2691,5.2691,5.2691,5.2691,5.2691,5.2691,5.2691,5.2691,5.2691,5.2691,5.2691,5.2691,5.2691,5.2518,5.1918,5.0588,5.0206,4.9591,4.8272,4.8094,4.8094,4.8094,4.8094,4.8094,4.8094,4.8094,4.8094,4.8094,4.8094,4.7866,4.7327,4.7301,4.655,4.4982,4.4956,4.4414,4.3271,4.2892,4.2604,4.2434,4.1834,4.1481,5.091,5.1651,5.2392,5.3218,5.3944,5.4496,0.0,0.0,5.4496,5.4496,5.4496,5.4496,5.4496,5.4496,5.4496,5.4496,5.4496,0.0,5.4513,0.0,0.0,0.0,0.0,0.0,0.0,0.0,0.0,0.0,0.0,0.0,0.0,5.8995,5.8719,5.812,5.752,5.6885,5.6319,5.5291,5.4555,5.4103,5.3633,5.3151,5.2691,5.2691,5.2691,0.0,0.0,0.0,0.0,5.2691,5.2691,5.2691,5.2691,5.2691,5.2691,5.2691,5.2691,5.2691,5.2691,5.2691,5.2691,5.2691,5.2691,5.2691,5.2691,5.2691,5.2691,5.2691,5.2691,5.2691,5.2691,5.2691,5.2691,5.2691,5.2691,5.2691,5.2691,5.2691,5.2691,5.2691,5.2691,5.2691,5.2691,5.2094,5.1339,5.0517,4.9786,4.9029,4.8196,4.8094,4.8094,4.8094,4.8094,4.8094,4.8094,4.8094,4.8094,4.8094,4.8094,4.7866,4.7327,4.7301,4.6769,4.5622,4.5595,4.5037,4.3886,4.3886,4.3585,4.2971,4.2447,4.1885,5.0893,5.1634,5.2392,5.3201,5.396,5.4496,5.4496,0.0,5.4496,5.4496,5.4496,5.4496,5.4496,5.4496,5.4496,5.4496,5.4496,0.0,0.0,0.0,0.0,0.0,0.0,0.0,0.0,0.0,0.0,0.0,0.0,0.0,0.0,5.8615,5.8492,5.8719,5.7723,5.7093,5.692,5.5519,5.4555,5.4103,5.3618,5.3151,5.2691,5.2691,0.0,0.0,0.0,0.0,0.0,5.2691,5.2691,5.2691,5.2691,5.2691,5.2691,5.2691,5.2691,5.2691,5.2691,5.2691,5.2691,5.2691,5.2691,5.2691,5.2691,5.2691,5.2691,5.2691,5.2691,5.2691,5.2691,5.2691,5.2691,5.2691,5.2691,5.2691,5.2691,5.2691,5.2691,5.2691,5.2691,5.2691,5.2691,5.2094,5.1339,5.0517,4.9786,4.9005,4.8196,4.8094,4.8094,4.8094,4.8094,4.8094,4.8094,4.8094,4.8094,4.8094,4.7764,4.7482,4.7301,4.6886,4.6337,4.5595,4.5595,4.5208,4.446,4.4095,4.3402,4.2461,4.2277,4.1885,0.0,5.122,5.1979,5.2737,5.3513,0.0,0.0,0.0,5.4496,5.4496,5.4496,5.4496,5.4496,5.4496,5.4496,5.4496,5.4496,0.0,0.0,0.0,0.0,0.0,0.0,0.0,0.0,0.0,0.0,0.0,0.0,0.0,0.0,5.8632,5.851,5.865,5.7502,5.6863,5.6863,5.564,5.4723,5.4103,5.3807,5.3327,5.2691,5.2691,0.0,0.0,0.0,0.0,0.0,5.2691,5.2691,5.2691,5.2691,5.2691,5.2691,5.2691,5.2691,5.2691,5.2691,5.2691,5.2691,5.2691,5.2691,5.2691,5.2691,5.2691,5.2691,5.2691,5.2691,5.2691,5.2691,5.2691,5.2691,5.2691,5.2691,5.2691,5.2691,5.2691,5.2691,5.2691,5.2691,5.2691,5.2691,5.1826,5.0981,5.0469,4.9518,4.867,4.817,4.8094,4.8094,4.8094,4.8094,4.8094,4.8094,4.8094,4.8018,4.7815,4.7482,4.7121,4.6691,4.631,4.5821,4.5274,4.5274,4.4981,4.4408,4.3833,4.3101,4.2186,4.2186,4.2003,0.0,5.0545,5.1272,5.2013,5.2789,5.3598,5.4323,0.0,0.0,5.4496,5.4496,5.4496,5.4496,5.4496,5.4496,5.4496,5.4496,0.0,0.0,0.0,0.0,0.0,0.0,0.0,0.0,0.0,0.0,0.0,0.0,0.0,0.0,5.8961,5.865,5.8066,5.692,5.63,5.63,5.5697,5.4957,5.4103,5.4103,5.3606,5.2691,5.2691,0.0,0.0,0.0,0.0,0.0,5.2691,5.2691,5.2691,5.2691,5.2691,5.2691,5.2691,5.2691,5.2691,5.2691,5.2691,5.2691,5.2691,5.2691,5.2691,5.2691,5.2691,5.2691,5.2691,5.2691,5.2691,5.2691,5.2691,5.2691,5.2691,5.2691,5.2691,5.2691,5.2691,5.2691,5.2691,5.2691,5.2691,5.2691,5.1403,5.0397,5.0397,4.9089,4.8094,4.8094,4.8094,4.8094,4.8094,4.8094,4.8069,4.8044,4.8069,4.7866,4.7327,4.725,4.6743,4.5662,4.5542,4.5274,4.4695,4.4656,4.4382,4.3834,4.3271,4.2722,4.2186,4.2186,4.2173,5.0011,0.0,5.1272,5.2013,5.2789,5.3598,0.0,0.0,0.0,0.0,0.0,5.4496,5.4496,5.4496,5.4496,5.4496,5.4496,5.4496,0.0,0.0,0.0,0.0,0.0,0.0,0.0,0.0,0.0,0.0,0.0,0.0,0.0,5.8562,5.8031,5.7428,5.6691,5.63,5.63,5.5697,5.4957,5.4103,5.4103,5.3606,5.2691,5.2691,0.0,0.0,0.0,0.0,5.2691,5.2691,5.2691,5.2691,5.2691,5.2691,5.2691,5.2691,5.2691,5.2691,5.2691,5.2691,5.2691,5.2691,5.2691,5.2691,5.2691,5.2691,5.2691,5.2691,5.2691,5.2691,5.2691,5.2691,5.2691,5.2691,5.2691,5.2691,5.2691,5.2691,5.2691,5.2691,5.2691,5.2691,5.2691,5.1403,5.0397,5.0397,4.9089,4.8094,4.8094,4.8094,4.8094,4.8094,4.8094,4.7917,4.7533,4.7866,4.7866,4.7327,4.6873,4.631,4.5622,4.5167,4.483,4.4695,4.4304,4.3794,4.3219,4.3062,4.2722,4.2186,4.2186,4.1951,5.0011,5.0289,5.0772,5.1513,5.2272,5.3048,5.3822,0.0,0.0,0.0,0.0,5.4496,5.4496,5.4496,0.0,0.0,5.4496,0.0,0.0,0.0,0.0,0.0,0.0,0.0,0.0,0.0,0.0,0.0,0.0,0.0,0.0,5.8439,5.7832,5.7222,5.6614,5.6162,5.5881,5.5556,5.4957,5.4103,5.4103,5.3606,5.2691,5.2691,5.2691,0.0,0.0,0.0,5.2691,5.2691,5.2691,5.2691,5.2691,5.2691,5.2691,5.2691,5.2691,5.2691,5.2691,5.2691,5.2691,5.2691,5.2691,5.2691,5.2691,5.2691,5.2691,5.2691,5.2691,5.2691,5.2691,5.2691,5.2691,5.2691,5.2691,5.2691,5.2691,5.2691,5.2691,5.2691,5.2691,5.2691,5.2691,5.1734,5.084,5.0469,4.9395,4.8534,4.8145,4.8094,4.8094,4.8094,4.8094,4.7967,4.7687,4.7712,4.7405,4.6573,4.6205,4.5782,4.5221,4.4635,4.4212,4.3924,4.3376,4.297,4.2631,4.2369,4.2082,4.1781,4.1781,4.1755,5.0011,5.0011,5.0168,5.091,5.1651,5.241,5.3218,0.0,0.0,0.0,0.0,0.0,0.0,0.0,0.0,0.0,0.0,0.0,0.0,0.0,0.0,0.0,0.0,0.0,0.0,0.0,0.0,0.0,0.0,0.0,0.0,5.851,5.7923,5.7224,5.671,5.6103,5.5409,5.5389,5.4957,5.4103,5.4103,5.3606,5.2691,5.2691,5.2691,0.0,0.0,0.0,5.2691,5.2691,5.2691,5.2691,5.2691,5.2691,5.2691,5.2691,5.2691,5.2691,5.2691,5.2691,5.2691,5.2691,5.2691,5.2691,5.2691,5.2691,5.2691,5.2691,5.2691,5.2691,5.2691,5.2691,5.2691,5.2691,5.2691,5.2691,5.2691,5.2691,5.2691,5.2691,5.2691,5.2691,5.2691,5.2002,5.1184,5.0493,4.9664,4.8856,4.8196,4.8094,4.8094,4.8094,4.8094,4.8018,4.7866,4.7416,4.6691,4.5542,4.5542,4.5288,4.4604,4.4042,4.3467,4.2905,4.2434,4.2147,4.2055,4.1546,4.1286,4.1286,4.1286,4.1625,5.0011,5.0011,5.0168,5.091,5.1651,5.241,5.3218,0.0,0.0,0.0,0.0,0.0,0.0,0.0,0.0,0.0,0.0,0.0,0.0,0.0,0.0,0.0,0.0,0.0,0.0,0.0,0.0,0.0,0.0,0.0,0.0,5.8927,5.8352,5.7241,5.7093,5.6517,5.5409,5.5389,5.4957,5.4103,5.4103,5.3606,5.2691,5.2691,5.2691,0.0,0.0,5.2691,5.2691,5.2691,5.2691,5.2691,5.2691,5.2691,5.2691,5.2691,5.2691,5.2691,5.2691,5.2691,5.2691,5.2691,5.2691,5.2691,5.2691,5.2691,5.2691,5.2691,5.2691,5.2691,5.2691,5.2691,5.2691,5.2691,5.2691,5.2691,5.2691,5.2691,5.2691,5.2691,5.2691,5.2691,5.2691,5.1519,5.054,5.0421,4.9188,4.8246,4.812,4.8094,4.8094,4.8094,4.8094,4.7699,4.6742,4.6585,4.606,4.4911,4.5328,4.5143,4.4083,4.3454,4.2879,4.233,4.2238,4.1951,4.1442,4.1338,4.1286,4.1286,4.1286,4.1625,5.0037,5.0011,5.008,5.041,5.1358,5.2306,5.2668,0.0,0.0,0.0,0.0,0.0,0.0,0.0,0.0,0.0,0.0,0.0,0.0,0.0,0.0,0.0,0.0,0.0,0.0,0.0,0.0,0.0,0.0,0.0,0.0,0.0,5.8263,5.7704,5.7055,5.6439,5.5881,5.5556,5.4957,5.4103,5.4103,5.3606,5.2691,5.2691,5.2691,5.2691,0.0,5.2691,5.2691,5.2691,5.2691,5.2691,5.2691,5.2691,5.2691,5.2691,5.2691,5.2691,5.2691,5.2691,5.2691,5.2691,5.2691,5.2691,5.2691,5.2691,5.2691,5.2691,5.2691,5.2691,5.2691,5.2691,5.2691,5.2691,5.2691,5.2691,5.2691,5.2691,5.2691,5.2691,5.2691,5.2691,5.2691,5.178,5.0887,5.0469,4.9459,4.8595,4.817,4.8094,4.8094,4.8094,4.784,4.7456,4.6925,4.6337,4.5475,4.4331,4.4532,4.4164,4.3036,4.2722,4.2291,4.1716,4.1703,4.1585,4.1286,4.1286,4.1286,4.1286,4.1286,4.1625,5.0051,5.0011,5.0011,5.0011,0.0,5.1996,5.2168,0.0,0.0,0.0,0.0,0.0,0.0,0.0,0.0,0.0,0.0,0.0,0.0,0.0,0.0,0.0,0.0,0.0,0.0,0.0,0.0,0.0,0.0,0.0,0.0,0.0,5.8245,5.8103,5.7206,5.6594,5.63,5.5841,5.5164,5.4258,5.4151,5.3655,5.2855,5.2758,5.2691,5.2691,5.2691,5.2691,5.2691,5.2691,5.2691,5.2691,5.2691,5.2691,5.2691,5.2691,5.2691,5.2691,5.2691,5.2691,5.2691,5.2691,5.2691,5.2691,5.2691,5.2691,5.2691,5.2691,5.2691,5.2691,5.2691,5.2691,5.2691,5.2691,5.2691,5.2691,5.2691,5.2691,5.2691,5.2691,5.2691,5.2646,5.2473,5.1818,5.1043,5.0254,4.9493,4.8795,4.817,4.8094,4.8094,4.8094,4.761,4.7129,4.672,4.5792,4.4705,4.3572,4.3507,4.3101,4.2225,4.2055,4.1755,4.1299,4.1286,4.1286,4.1286,4.1286,4.1286,4.1286,4.1286,4.169,5.0011,5.0011,5.0011,5.0011,5.0582,0.0,5.2048,0.0,0.0,0.0,0.0,0.0,0.0,0.0,0.0,0.0,0.0,0.0,0.0,0.0,0.0,0.0,0.0,0.0,0.0,0.0,0.0,0.0,0.0,0.0,0.0,0.0,0.0,5.812,5.803,5.7429,5.6319,5.6261,5.5741,5.4744,5.4301,5.3829,5.3334,5.29,5.2691,5.2691,5.2691,5.2691,5.2691,5.2691,5.2691,5.2691,5.2691,5.2691,5.2691,5.2691,5.2691,5.2691,5.2691,5.2691,5.2691,5.2691,5.2691,5.2691,5.2691,5.2691,5.2691,5.2691,5.2691,5.2691,5.2691,5.2691,5.2691,5.2691,5.2691,5.2691,5.2691,5.2691,5.2691,5.2691,5.2691,5.2473,5.1795,5.102,5.023,4.9483,4.8695,4.817,4.8094,4.8094,4.8094,4.8094,4.761,4.664,4.5031,4.4375,4.3546,4.2382,4.2317,4.2277,4.2186,4.1651,4.1325,4.1286,4.1286,4.1286,4.1286,4.1286,4.1286,4.1286,4.1286,4.1887,5.0094,5.0011,5.0011,5.0011,0.0,0.0,0.0,0.0,0.0,0.0,0.0,0.0,0.0,0.0,0.0,0.0,0.0,0.0,0.0,0.0,0.0,0.0,0.0,0.0,0.0,0.0,0.0,0.0,0.0,0.0,0.0,0.0,0.0,5.8667,5.8298,5.7868,5.7411,5.6672,5.5984,5.5357,5.4497,5.3699,5.2966,5.2765,5.2691,5.2691,5.2691,5.2691,5.2691,5.2691,5.2691,5.2691,5.2691,5.2691,5.2691,5.2691,5.2691,5.2652,5.2236,5.2359,5.2629,5.2221,5.2375,5.2691,5.2691,5.2691,5.2691,5.2691,5.2691,5.2691,5.2691,5.2691,5.2691,5.2691,5.2691,5.2691,5.2691,5.2691,5.2691,5.2691,5.2691,5.2488,5.1726,5.0934,5.0158,4.941,4.862,4.8094,4.8094,4.8094,4.8094,4.8094,4.7007,4.5687,4.4322,4.3376,4.2657,4.2225,4.2186,4.2029,4.1651,4.1428,4.1286,4.1286,4.1286,4.1286,4.1286,4.1286,4.1286,4.1286,4.1286,4.19,5.0094,5.0011,5.0011,0.0,0.0,0.0,0.0,0.0,0.0,0.0,0.0,0.0,0.0,0.0,0.0,0.0,0.0,0.0,0.0,0.0,0.0,0.0,0.0,0.0,0.0,0.0,0.0,0.0,0.0,0.0,0.0,0.0,0.0,0.0,5.8316,5.7923,5.7539,5.671,5.6004,5.5418,5.4518,5.3693,5.2922,5.2781,5.2691,5.2691,5.2691,5.2691,5.2691,5.2691,5.2691,5.2691,5.2691,5.2691,5.2691,5.2691,5.2691,5.2583,5.1944,5.2006,5.2283,5.1605,5.1698,5.2113,5.2306,5.2368,5.2436,5.2652,5.2691,5.2691,5.2691,5.2691,5.2691,5.2691,5.2691,5.2691,5.2691,5.2691,5.2691,5.2691,5.2691,5.2488,5.1726,5.0934,5.0158,4.941,4.862,4.8094,4.8094,4.8094,4.7897,4.7358,4.6112,4.479,4.3468,4.2644,4.2121,4.1937,4.1924,4.1716,4.1312,4.1286,4.1286,4.1286,4.1286,4.1286,4.1286,4.1286,4.1286,4.1286,4.1286,4.19,5.0011,5.0011,5.0011,0.0,0.0,0.0,0.0,0.0,0.0,0.0,0.0,0.0,0.0,0.0,0.0,0.0,0.0,0.0,0.0,0.0,0.0,0.0,0.0,0.0,0.0,0.0,0.0,0.0,0.0,0.0,0.0,0.0,0.0,0.0,5.8085,5.752,5.6319,5.63,5.5801,5.4806,5.4322,5.385,5.3377,5.2922,5.2691,5.2691,5.2691,5.2691,5.2691,5.2691,5.2691,5.2691,5.2691,5.2691,5.2691,5.2691,5.2691,5.2583,5.1929,5.1698,5.1575,5.0913,5.0682,5.082,5.1498,5.1698,5.1836,5.2476,5.2698,5.2698,5.2698,5.2698,5.2676,5.2676,5.2676,5.2676,5.2676,5.2698,5.2698,5.2698,5.2698,5.2435,5.1696,5.0919,5.0143,4.9381,4.8606,4.8094,4.8094,4.8094,4.7436,4.578,4.5041,4.4003,4.2342,4.2186,4.1951,4.1325,4.1286,4.1286,4.1286,4.1286,4.1286,4.1286,4.1286,4.1286,4.1286,4.1286,4.1286,4.1286,4.1286,4.19,5.0051,5.0011,0.0,0.0,0.0,0.0,0.0,0.0,0.0,0.0,0.0,0.0,0.0,0.0,0.0,0.0,0.0,0.0,0.0,0.0,0.0,0.0,0.0,0.0,0.0,0.0,0.0,0.0,0.0,0.0,0.0,0.0,0.0,0.0,5.7686,5.7297,5.6939,5.6498,5.6024,5.5438,5.4874,5.4157,5.3377,5.2922,5.2691,5.2691,5.2691,5.2691,5.2691,5.2691,5.2691,5.2691,5.2691,5.2691,5.2691,5.2691,5.2406,5.1898,5.1221,5.099,5.0882,5.0205,5.0334,5.0728,5.0928,5.099,5.1036,5.1236,5.1282,5.1282,5.1282,5.1282,5.1405,5.1882,5.2006,5.1867,5.1405,5.1282,5.1282,5.1282,5.1282,5.0893,4.9633,4.9227,4.8635,4.7377,4.7341,4.7463,4.7463,4.7133,4.639,4.5051,4.406,4.3153,4.2263,4.1794,4.1494,4.1299,4.1286,4.1286,4.1286,4.1286,4.1286,4.1286,4.1286,4.1286,4.1286,4.1286,4.1286,4.1286,4.1286,4.19,5.0037,5.0011,0.0,0.0,0.0,0.0,0.0,0.0,0.0,0.0,0.0,0.0,0.0,0.0,0.0,0.0,0.0,0.0,0.0,0.0,0.0,0.0,0.0,0.0,0.0,0.0,0.0,0.0,0.0,0.0,0.0,0.0,0.0,0.0,5.7374,5.6885,5.6264,5.5885,5.5499,5.5053,5.4502,5.3942,5.3377,5.3106,5.2877,5.2691,5.2691,5.2691,5.2691,5.2691,5.2691,5.2691,5.2691,5.2691,5.2683,5.2406,5.2052,5.1575,5.062,5.0297,5.0195,4.9481,4.9543,4.9912,5.0205,5.0297,5.0359,5.062,5.0697,5.0697,5.0697,5.0697,5.079,5.1205,5.1298,5.119,5.079,5.0697,5.0697,5.0697,5.045,4.9982,4.9082,4.8466,4.7771,4.6866,4.6809,4.6841,4.6841,4.6154,4.5315,4.4389,4.3309,4.2462,4.1897,4.152,4.1286,4.1286,4.1286,4.1286,4.1286,4.1286,4.1286,4.1286,4.1286,4.1286,4.1286,4.1286,4.1286,4.1286,4.1286,4.19,5.0011,0.0,0.0,5.0011,0.0,0.0,0.0,0.0,0.0,0.0,0.0,0.0,0.0,0.0,0.0,0.0,0.0,0.0,0.0,0.0,0.0,0.0,0.0,0.0,0.0,0.0,0.0,0.0,0.0,0.0,0.0,0.0,0.0,5.7241,5.7147,5.64,5.4869,5.4827,5.4576,0.0,5.3699,5.3443,5.3399,5.3355,5.3106,5.2691,5.2691,5.2691,5.2691,5.2691,5.2691,5.2691,5.2691,5.2645,5.2544,5.1929,5.1621,5.1344,5.0112,4.9672,4.9481,4.8835,4.8599,4.8743,4.9389,4.9589,4.9733,5.0328,5.0497,5.0497,5.0497,5.0497,5.0497,5.0497,5.0559,5.059,5.0513,5.0497,5.0497,5.0497,4.9953,4.946,4.935,4.8206,4.7292,4.7222,4.6636,4.6209,4.6209,4.5206,4.4312,4.378,4.2766,4.1911,4.1338,4.1286,4.1286,4.1286,4.1286,4.1286,4.1286,4.1286,4.1286,4.1286,4.1286,4.1286,4.1286,4.1286,4.1286,4.1286,4.1286,4.1874,5.0011,5.0011,0.0,0.0,0.0,0.0,0.0,0.0,0.0,0.0,0.0,0.0,0.0,0.0,0.0,0.0,0.0,0.0,0.0,0.0,0.0,0.0,0.0,0.0,0.0,0.0,0.0,0.0,0.0,0.0,0.0,0.0,0.0,5.7224,5.6748,5.6103,5.5266,5.4973,5.4744,0.0,5.4173,5.3764,5.3377,5.3018,5.2803,5.2691,5.2691,5.2691,5.2691,5.2691,5.2691,5.2691,5.2691,5.239,5.1898,5.1759,5.1036,5.0103,4.981,4.9312,4.882,4.8645,4.8599,4.8614,4.8804,4.885,4.8881,4.902,4.9066,4.9066,4.9066,4.9066,4.9066,4.9066,4.9497,4.9758,4.9189,4.9066,4.9066,4.9066,4.8925,4.8472,4.7361,4.6904,4.6488,4.5851,4.5616,4.5511,4.5511,4.4624,4.3753,4.3169,4.2143,4.1442,4.1299,4.1286,4.1286,4.1286,4.1286,4.1286,4.1286,4.1286,4.1286,4.1286,4.1286,4.1286,4.1286,4.1286,4.1286,4.1286,4.1286,4.169,5.0011,0.0,0.0,5.0011,0.0,0.0,0.0,0.0,0.0,0.0,0.0,0.0,0.0,0.0,0.0,0.0,0.0,0.0,0.0,0.0,0.0,0.0,0.0,0.0,0.0,0.0,0.0,0.0,0.0,0.0,0.0,5.7002,5.6641,5.5794,5.547,5.4956,5.4257,5.4045,5.3904,5.3785,5.3546,5.3283,5.3078,5.281,5.2691,5.2691,5.2691,5.2691,5.2698,5.2359,5.2236,5.219,5.1867,5.1528,5.1174,5.0851,5.0297,4.9656,4.9297,4.8927,4.8599,4.8599,4.8599,4.8599,4.8599,4.8599,4.8599,4.8599,4.8599,4.8599,4.8599,4.8599,4.8599,4.8599,4.8897,4.9066,4.8676,4.8599,4.8599,4.8599,4.8334,4.7792,4.6689,4.595,4.5347,4.4927,4.4865,4.4865,4.4865,4.4005,4.3251,4.2938,4.1933,4.1286,4.1286,4.1286,4.1286,4.1286,4.1286,4.1286,4.1286,4.1286,4.1286,4.1286,4.1286,4.1286,4.1286,4.1286,4.1286,4.1286,4.1286,4.1625,5.0011,0.0,5.0011,5.0011,5.0011,0.0,0.0,0.0,0.0,0.0,0.0,0.0,0.0,0.0,0.0,0.0,0.0,0.0,0.0,0.0,0.0,0.0,0.0,0.0,0.0,0.0,0.0,0.0,0.0,0.0,5.574,5.5739,5.528,5.4234,5.4213,5.3841,5.3063,5.2912,5.273,5.2582,5.2426,5.2359,5.2359,5.2359,5.2483,5.2676,5.259,5.2544,5.2483,5.1805,5.1528,5.1467,5.0913,5.062,5.0451,4.9903,4.9626,4.942,4.882,4.8599,4.8599,4.8599,4.8599,4.8599,4.8599,4.8599,4.8599,4.8599,4.8599,4.8599,4.8599,4.8599,4.8599,4.8599,4.8599,4.8599,4.8599,4.8599,4.8599,4.8599,4.7961,4.7176,4.6462,4.527,4.4387,4.4387,4.4317,4.4256,4.4256,4.3379,4.2766,4.2766,4.1883,4.1286,4.1286,4.1286,4.1286,4.1286,4.1286,4.1286,4.1286,4.1286,4.1286,4.1286,4.1286,4.1286,4.1286,4.1286,4.1286,4.1286,4.1286,4.1572,5.0011,0.0,5.0011,0.0,5.0011,5.039,0.0,0.0,0.0,0.0,0.0,0.0,0.0,0.0,0.0,0.0,0.0,0.0,0.0,0.0,0.0,0.0,0.0,0.0,0.0,0.0,0.0,0.0,0.0,0.0,5.4941,5.5102,5.4901,5.4216,5.4213,5.3902,5.3269,5.2513,5.2108,5.2078,5.1332,5.0959,5.0959,5.0959,5.1605,5.2683,5.2098,5.1836,5.179,5.1113,5.0836,5.082,5.0728,5.0343,4.9826,4.9733,4.9297,4.8722,4.8614,4.8599,4.8599,4.8599,4.8599,4.8599,4.8599,4.8599,4.8599,4.8599,4.8599,4.8599,4.8599,4.8599,4.8599,4.8599,4.8599,4.8599,4.8599,4.8599,4.8599,4.8599,4.7548,4.644,4.5747,4.4954,4.4387,4.4387,4.4007,4.3709,4.3709,4.2822,4.2202,4.2202,4.1647,4.1286,4.1286,4.1286,4.1286,4.1286,4.1286,4.1286,4.1286,4.1286,4.1286,4.1286,4.1286,4.1286,4.1286,4.1286,4.1286,4.1286,4.1286,4.1325,5.0011,5.0011,5.0011,0.0,5.0011,5.0287,0.0,0.0,0.0,0.0,0.0,0.0,0.0,0.0,0.0,0.0,0.0,0.0,0.0,0.0,0.0,0.0,0.0,0.0,0.0,0.0,0.0,0.0,0.0,5.4359,5.3702,5.3746,5.3397,5.2545,5.2508,5.2457,5.235,5.1973,5.1724,5.1591,5.0989,5.0697,5.0697,5.0697,5.1021,5.1559,5.1267,5.1144,5.1082,5.0426,5.0149,5.0103,4.9682,4.9343,4.9081,4.9081,4.8881,4.8599,4.8599,4.8599,4.8599,4.8599,4.8599,4.8599,4.8599,4.8599,4.8599,4.8599,4.8599,4.8599,4.8599,4.8599,4.8599,4.8599,4.8599,4.8599,4.8599,4.8599,4.848,4.8109,4.7204,4.6285,4.5625,4.4885,4.4317,4.4007,4.3757,4.3519,4.3245,4.2568,4.2103,4.2103,4.1622,4.1286,4.1286,4.1286,4.1286,4.1286,4.1286,4.1286,4.1286,4.1286,4.1286,4.1286,4.1286,4.1286,4.1286,4.1286,4.1286,4.1286,4.1286,4.1286,0.0,0.0,5.0011,5.0011,5.0011,5.0186,0.0,0.0,0.0,0.0,0.0,0.0,0.0,0.0,0.0,0.0,0.0,0.0,0.0,0.0,0.0,0.0,0.0,0.0,0.0,0.0,0.0,0.0,0.0,5.3848,5.2854,5.268,5.2166,5.124,5.1202,5.129,5.1494,5.1376,5.114,5.0783,5.0499,5.0287,5.0174,5.0174,5.0174,5.0174,5.0359,5.0436,5.0389,4.9697,4.942,4.9358,4.8799,4.8599,4.8599,4.8599,4.8599,4.8599,4.8599,4.8599,4.8599,4.8599,4.8599,4.8599,4.8599,4.8599,4.8599,4.8599,4.8599,4.8599,4.8599,4.8599,4.8599,4.8599,4.8599,4.8599,4.8599,4.8599,4.8355,4.7478,4.6879,4.624,4.5375,4.4746,4.4209,4.3671,4.3495,4.3245,4.2752,4.2239,4.1906,4.1906,4.1522,4.1286,4.1286,4.1286,4.1286,4.1286,4.1286,4.1286,4.1286,4.1286,4.1286,4.1286,4.1286,4.1286,4.1286,4.1286,4.1286,4.1286,4.1286,4.1286,0.0,5.0011,0.0,5.0011,5.0011,0.0,0.0,0.0,0.0,0.0,0.0,0.0,0.0,0.0,0.0,0.0,0.0,0.0,0.0,0.0,0.0,0.0,0.0,0.0,0.0,0.0,0.0,0.0,0.0,5.3466,5.2836,5.2327,5.1786,5.1221,5.1202,5.1199,5.1213,5.0781,5.016,4.9405,4.9384,4.914,4.8706,4.8706,4.8706,4.8737,4.9435,4.9764,4.9703,4.8958,4.8645,4.8645,4.8599,4.8599,4.8599,4.8599,4.8599,4.8599,4.8599,4.8599,4.8599,4.8599,4.8599,4.8599,4.8599,4.8599,4.8599,4.8599,4.8599,4.8599,4.8599,4.8599,4.8599,4.8599,4.8599,4.8599,4.8599,4.8599,4.8193,4.682,4.6535,4.6062,4.47,4.4434,4.4209,4.3671,4.3221,4.2728,4.2202,4.1672,4.1336,4.1336,4.1311,4.1286,4.1286,4.1286,4.1286,4.1286,4.1286,4.1286,4.1286,4.1286,4.1286,4.1286,4.1286,4.1286,4.1286,4.1286,4.1286,4.1286,4.1286,4.1286,0.0,0.0,0.0,5.0011,5.0011,5.008,0.0,0.0,0.0,0.0,0.0,0.0,0.0,0.0,0.0,0.0,0.0,0.0,0.0,0.0,0.0,0.0,0.0,0.0,0.0,0.0,0.0,0.0,0.0,0.0,5.3416,5.2819,5.2274,5.1731,5.1373,5.1202,5.1202,5.0717,5.0234,4.9677,4.9416,4.9051,4.8599,4.8599,4.8599,4.8599,4.8881,4.9004,4.8974,4.8706,4.8599,4.8599,4.8599,4.8599,4.8599,4.8599,4.8599,4.8599,4.8599,4.8599,4.8599,4.8599,4.8599,4.8599,4.8599,4.8599,4.8599,4.8599,4.8599,4.8599,4.8599,4.8599,4.8599,4.8599,4.8599,4.8599,4.8599,4.8599,4.8172,4.6777,4.6491,4.6048,4.4653,4.4387,4.4129,4.3283,4.3008,4.2582,4.1696,4.1411,4.1286,4.1286,4.1286,4.1286,4.1286,4.1286,4.1286,4.1286,4.1286,4.1286,4.1286,4.1286,4.1286,4.1286,4.1286,4.1286,4.1286,4.1286,4.1286,4.1286,4.1286,4.1286,5.0011,0.0,0.0,0.0,0.0,5.0011,5.0011,0.0,0.0,0.0,0.0,0.0,0.0,0.0,0.0,0.0,0.0,0.0,0.0,0.0,0.0,0.0,0.0,0.0,0.0,0.0,0.0,0.0,0.0,0.0,5.3433,5.2836,5.2292,5.1749,5.1392,5.1202,5.1202,5.0886,5.0506,5.0113,4.9697,4.9275,4.8847,4.8682,4.8599,4.8599,4.8599,4.8599,4.8599,4.8599,4.8599,4.8599,4.8599,4.8599,4.8599,4.8599,4.8599,4.8599,4.8599,4.8599,4.8599,4.8599,4.8599,4.8599,4.8599,4.8599,4.8599,4.8599,4.8599,4.8599,4.8599,4.8599,4.8599,4.8599,4.8599,4.8599,4.8599,4.8417,4.7919,4.6733,4.6329,4.5785,4.4607,4.4387,4.4058,4.3056,4.2911,4.2522,4.1436,4.1286,4.1286,4.1286,4.1286,4.1286,4.1286,4.1286,4.1286,4.1286,4.1286,4.1286,4.1286,4.1286,4.1286,4.1286,4.1286,4.1286,4.1286,4.1286,4.1286,4.1286,4.1286,4.1286,0.0,0.0,0.0,0.0,0.0,0.0,5.0011,0.0,0.0,0.0,0.0,0.0,0.0,0.0,0.0,0.0,0.0,0.0,0.0,0.0,0.0,0.0,0.0,0.0,0.0,0.0,0.0,0.0,0.0,5.3433,5.2836,5.2292,5.1749,5.1221,5.1202,5.1202,5.1202,5.1202,5.0943,5.0506,5.0093,4.9697,4.9275,4.8811,4.8599,4.8599,4.8599,4.8599,4.8599,4.8599,4.8599,4.8599,4.8599,4.8599,4.8599,4.8599,4.8599,4.8599,4.8599,4.8599,4.8599,4.8599,4.8599,4.8599,4.8599,4.8599,4.8599,4.8599,4.8599,4.8599,4.8599,4.8599,4.8599,4.8599,4.8599,4.8599,4.8599,4.8061,4.7364,4.6645,4.598,4.5299,4.4527,4.4387,4.4035,4.3056,4.2887,4.2498,4.1436,4.1286,4.1286,4.1286,4.1286,4.1286,4.1286,4.1286,4.1286,4.1286,4.1286,4.1286,4.1286,4.1286,4.1286,4.1286,4.1286,4.1286,4.1286,4.1286,4.1286,4.1286,4.1286,4.1286,5.0011,0.0,0.0,0.0,0.0,0.0,5.0011,5.041,5.0703,0.0,0.0,0.0,0.0,0.0,0.0,0.0,0.0,0.0,0.0,0.0,0.0,0.0,0.0,0.0,0.0,0.0,0.0,0.0,5.37,5.3433,5.2836,5.2292,5.1749,5.1221,5.1202,5.1202,5.1202,5.1202,5.0943,5.0506,5.0093,4.9697,4.9275,4.8811,4.8599,4.8599,4.8599,4.8599,4.8599,4.8599,4.8599,4.8599,4.8599,4.8599,4.8599,4.8599,4.8599,4.8599,4.8599,4.8599,4.8599,4.8599,4.8599,4.8599,4.8599,4.8599,4.8599,4.8599,4.8599,4.8599,4.8599,4.8599,4.8599,4.8599,4.8599,4.8599,4.8599,4.7649,4.6733,4.6535,4.6337,4.583,4.4607,4.4078,4.3614,4.2984,4.2557,4.2067,4.1386,4.1286,4.1286,4.1286,4.1286,4.1286,4.1286,4.1286,4.1286,4.1286,4.1286,4.1286,4.1286,4.1286,4.1286,4.1286,4.1286,4.1286,4.1286,4.1286,4.1286,4.1286,4.1286,4.1286,0.0,0.0,0.0,0.0,0.0,0.0,5.0531,5.0789,5.0979,0.0,0.0,0.0,0.0,0.0,0.0,0.0,0.0,0.0,0.0,0.0,0.0,0.0,0.0,0.0,0.0,0.0,0.0,5.3025,5.2991,5.2749,5.2166,5.2058,5.1749,5.1221,5.1202,5.1202,5.1202,5.1202,5.1054,5.0791,5.0367,4.9955,4.9537,4.9092,4.8785,4.8599,4.8599,4.8599,4.8599,4.8599,4.8599,4.8599,4.8599,4.8599,4.8599,4.8599,4.8599,4.8599,4.8599,4.8599,4.8599,4.8599,4.8599,4.8599,4.8599,4.8599,4.8599,4.8599,4.8599,4.8599,4.8599,4.8599,4.8599,4.8599,4.8599,4.8521,4.825,4.7542,4.6879,4.6557,4.604,4.5355,4.4537,4.396,4.3447,4.2984,4.2435,4.1906,4.1361,4.1286,4.1286,4.1286,4.1286,4.1286,4.1286,4.1286,4.1286,4.1286,4.1286,4.1286,4.1286,4.1286,4.1286,4.1286,4.1286,4.1286,4.1286,4.1286,4.1286,4.1286,4.1286,4.1286,0.0,0.0,0.0,0.0,0.0,0.0,5.1375,5.1289,5.1324,5.1237,0.0,0.0,0.0,0.0,0.0,0.0,0.0,0.0,0.0,0.0,0.0,0.0,0.0,0.0,0.0,5.3111,5.2592,5.2041,5.1933,5.171,5.1221,5.1655,5.1692,5.1221,5.1202,5.1202,5.1202,5.1146,5.1127,5.1127,5.0602,5.0175,4.9817,4.9416,4.8975,4.8599,4.8599,4.8599,4.8599,4.8599,4.8599,4.8599,4.8599,4.8599,4.8599,4.8599,4.8599,4.8599,4.8599,4.8599,4.8599,4.8599,4.8599,4.8599,4.8599,4.8599,4.8599,4.8599,4.8599,4.8599,4.8599,4.8599,4.8599,4.8599,4.8599,4.8453,4.7834,4.7578,4.7284,4.6623,4.5438,4.4504,4.4411,4.3912,4.3375,4.296,4.2387,4.1845,4.1361,4.1286,4.1286,4.1286,4.1286,4.1286,4.1286,4.1286,4.1286,4.1286,4.1286,4.1286,4.1286,4.1286,4.1286,4.1286,4.1286,4.1286,4.1286,4.1286,4.1286,4.1286,4.1211,4.1161,0.0,0.0,0.0,0.0,0.0,0.0,5.2013,5.2479,5.277,0.0,0.0,0.0,0.0,0.0,0.0,0.0,0.0,0.0,0.0,0.0,0.0,0.0,0.0,0.0,0.0,5.2871,5.2592,5.2041,5.16,5.1298,5.1202,5.1298,5.1298,5.1202,5.1202,5.1202,5.1202,5.0829,5.064,5.0621,4.988,4.9497,4.9396,4.8949,4.8702,4.8599,4.8599,4.8599,4.8599,4.8599,4.8599,4.8599,4.8599,4.8599,4.8599,4.8599,4.8599,4.8599,4.8599,4.8599,4.8599,4.8599,4.8599,4.8599,4.8599,4.8599,4.8599,4.8599,4.8599,4.8599,4.8599,4.8599,4.8599,4.8599,4.8599,4.8563,4.8438,4.7505,4.6667,4.6535,4.5845,4.5092,4.4504,4.3642,4.3008,4.2911,4.2081,4.1411,4.1311,4.1286,4.1286,4.1286,4.1286,4.1286,4.1286,4.1286,4.1286,4.1286,4.1286,4.1286,4.1286,4.1286,4.1286,4.1286,4.1286,4.1286,4.1286,4.1286,4.1286,4.1286,4.0643,4.0326,0.0,0.0,0.0,5.3341,0.0,0.0,0.0,5.3099,5.3287,0.0,0.0,0.0,0.0,0.0,0.0,0.0,0.0,0.0,0.0,0.0,0.0,0.0,0.0,0.0,0.0,5.2166,5.1893,5.1619,5.1355,5.1202,5.1202,5.1202,5.1202,5.1202,5.1202,5.1202,5.1202,5.0717,5.0506,5.049,4.988,4.9497,4.9295,4.9072,4.8826,4.8599,4.8599,4.8599,4.8599,4.8599,4.8599,4.8599,4.8599,4.8599,4.8599,4.8599,4.8599,4.8599,4.8599,4.8599,4.8599,4.8599,4.8599,4.8599,4.8599,4.8599,4.8599,4.8599,4.8599,4.8599,4.8599,4.8599,4.8599,4.8599,4.8599,4.8417,4.7698,4.6994,4.6292,4.5582,4.5178,4.4815,4.4457,4.3584,4.2911,4.2911,4.1982,4.1286,4.1286,4.1286,4.1286,4.1286,4.1286,4.1286,4.1286,4.1286,4.1286,4.1286,4.1286,4.1286,4.1286,4.1286,4.1286,4.1286,4.1286,4.1286,4.1286,4.1286,4.1286,4.1286,4.0466,4.0096,0.0,0.0,0.0,0.0,0.0,5.4339,0.0,0.0,0.0,0.0,0.0,0.0,0.0,0.0,0.0,0.0,0.0,0.0,0.0,0.0,0.0,0.0,0.0,0.0,0.0,5.1108,5.0781,5.0781,5.0781,5.0781,5.0781,5.0908,5.0991,5.0991,5.1137,5.1202,5.1202,5.0656,5.0389,5.0389,4.9896,4.9477,4.9174,4.9174,4.897,4.8599,4.8599,4.8599,4.8599,4.8599,4.8599,4.8599,4.8599,4.8599,4.8599,4.8599,4.8599,4.8599,4.8599,4.8599,4.8599,4.8599,4.8599,4.8599,4.8599,4.8599,4.8599,4.8599,4.8599,4.8599,4.8599,4.8599,4.8578,4.8438,4.8396,4.8067,4.6777,4.6403,4.5973,4.4839,4.4504,4.4387,4.4387,4.3584,4.2911,4.2911,4.1982,4.1286,4.1286,4.1286,4.1286,4.1286,4.1286,4.1286,4.1286,4.1286,4.1286,4.1286,4.1286,4.1286,4.1286,4.1286,4.1286,4.1286,4.1286,4.1286,4.1286,4.1135,4.1085,4.106,4.0224,3.975,0.0,0.0,0.0,0.0,5.4496,0.0,0.0,0.0,0.0,0.0,0.0,0.0,0.0,0.0,0.0,0.0,0.0,0.0,0.0,0.0,0.0,0.0,0.0,0.0,0.0,0.0,4.9254,4.9254,4.9254,4.9254,4.9254,4.9872,5.0228,5.0228,5.0862,5.1202,5.1202,5.0367,4.9975,4.9955,4.9138,4.8708,4.8682,4.8682,4.8661,4.8599,4.8599,4.8599,4.8599,4.8599,4.8599,4.8599,4.8599,4.8599,4.8599,4.8599,4.8599,4.8599,4.8599,4.8599,4.8599,4.8599,4.8599,4.8599,4.8599,4.8599,4.8599,4.8599,4.8599,4.8599,4.8599,4.8599,4.8438,4.7855,4.7706,4.7478,4.6667,4.6032,4.5572,4.5413,4.4839,4.4387,4.4387,4.3584,4.2911,4.2911,4.1982,4.1286,4.1286,4.1286,4.1286,4.1286,4.1286,4.1286,4.1286,4.1286,4.1286,4.1286,4.1286,4.1286,4.1286,4.1286,4.1286,4.1286,4.1286,4.1286,4.1286,4.0593,4.0236,4.0224,3.935,3.8518,0.0,0.0,0.0,0.0,0.0,0.0,0.0,0.0,5.4496,0.0,0.0,0.0,0.0,0.0,0.0,0.0,0.0,0.0,0.0,0.0,0.0,0.0,0.0,0.0,0.0,0.0,0.0,0.0,4.9012,4.9012,4.9012,4.9287,4.9449,4.9449,5.0179,5.0552,5.0552,5.0352,5.0116,4.9876,4.9295,4.8852,4.8599,4.8599,4.8599,4.8599,4.8599,4.8599,4.8599,4.8599,4.8599,4.8599,4.8599,4.8599,4.8599,4.8599,4.8599,4.8599,4.8599,4.8599,4.8599,4.8599,4.8599,4.8599,4.8599,4.8599,4.8599,4.8599,4.8599,4.8599,4.8599,4.8599,4.8438,4.7749,4.76,4.7299,4.6158,4.5716,4.5367,4.4931,4.4621,4.4317,4.3983,4.3355,4.2911,4.2911,4.1982,4.1286,4.1286,4.1286,4.1286,4.1286,4.1286,4.1286,4.1286,4.1286,4.1286,4.1286,4.1286,4.1286,4.1286,4.1286,4.1286,4.1286,4.1286,4.1085,4.0593,4.0249,3.9595,3.8582,3.8214,3.7858,5.4065,0.0,0.0,0.0,0.0,0.0,0.0,0.0,0.0,0.0,0.0,0.0,0.0,0.0,0.0,0.0,0.0,0.0,0.0,0.0,0.0,0.0,0.0,0.0,0.0,0.0,0.0,4.8413,4.8413,4.8413,4.8413,4.8623,4.8736,4.8736,4.9416,4.9904,5.0098,5.0187,5.0159,5.0054,4.9541,4.9133,4.8785,4.8661,4.8599,4.8599,4.8599,4.8599,4.8599,4.8599,4.8599,4.8599,4.8599,4.8599,4.8599,4.8599,4.8599,4.8599,4.8599,4.8599,4.8599,4.8599,4.8599,4.8599,4.8599,4.8599,4.8599,4.8599,4.8599,4.8599,4.8599,4.8599,4.8375,4.7514,4.7306,4.6915,4.5512,4.5207,4.5046,4.4504,4.4387,4.4233,4.3695,4.3221,4.2863,4.2704,4.1908,4.1286,4.1286,4.1286,4.1286,4.1286,4.1286,4.1286,4.1286,4.1286,4.1286,4.1286,4.1286,4.1286,4.1286,4.1286,4.1286,4.1286,4.1286,4.0896,4.0096,3.9853,3.8974,3.7486,3.7486,3.7379,0.0,0.0,0.0,5.4322,0.0,0.0,0.0,0.0,5.4305,0.0,0.0,0.0,0.0,0.0,0.0,0.0,0.0,0.0,0.0,0.0,0.0,0.0,0.0,0.0,0.0,0.0,0.0,4.6974,4.6974,4.6974,4.6974,4.7637,4.8024,4.8024,4.8688,4.9384,5.0098,4.9721,4.985,5.0486,4.9681,4.9295,4.9255,4.8805,4.8599,4.8599,4.8599,4.8599,4.8599,4.8599,4.8599,4.8599,4.8599,4.8599,4.8599,4.8599,4.8599,4.8599,4.8599,4.8599,4.8599,4.8599,4.8599,4.8599,4.8599,4.8599,4.8599,4.8599,4.8599,4.8599,4.8599,4.8599,4.8256,4.6864,4.6535,4.6151,4.4732,4.4434,4.4434,4.4411,4.4387,4.4233,4.3695,4.3221,4.2728,4.2202,4.1647,4.1286,4.1286,4.1286,4.1286,4.1286,4.1286,4.1286,4.1286,4.1286,4.1286,4.1286,4.1286,4.1286,4.1286,4.1286,4.1286,4.1286,4.1286,4.0896,4.0096,3.9247,3.8386,3.7486,3.7486,3.7069,0.0,0.0,5.2268,5.2835,0.0,0.0,0.0,0.0,0.0,0.0,0.0,0.0,0.0,0.0,0.0,0.0,0.0,0.0,0.0,0.0,0.0,0.0,0.0,0.0,0.0,0.0,0.0,4.6893,4.6893,4.6893,0.0,4.7153,4.7265,4.7265,4.7977,4.8445,4.8722,4.9498,4.9893,4.985,4.9734,4.9557,4.9275,4.8811,4.8599,4.8599,4.8599,4.8599,4.8599,4.8599,4.8599,4.8599,4.8599,4.8599,4.8599,4.8599,4.8599,4.8599,4.8599,4.8599,4.8599,4.8599,4.8599,4.8599,4.8599,4.8599,4.8599,4.8599,4.8599,4.8599,4.8599,4.8599,4.825,4.682,4.6491,4.6114,4.4685,4.4387,4.4387,4.4387,4.4387,4.4115,4.3283,4.3008,4.2717,4.2177,4.1647,4.1286,4.1286,4.1286,4.1286,4.1286,4.1286,4.1286,4.1286,4.1286,4.1286,4.1286,4.1286,4.1286,4.1286,4.1286,4.1286,4.1286,4.1286,4.0605,3.9247,3.8948,3.8082,3.6715,3.6715,3.6553,5.2583,5.2055,0.0,5.2223,5.1916,0.0,5.2099,0.0,0.0,0.0,0.0,0.0,0.0,0.0,0.0,0.0,0.0,0.0,0.0,4.72,0.0,0.0,0.0,0.0,0.0,0.0,4.6893,4.6893,4.6893,4.6893,0.0,0.0,4.6893,4.6893,4.7362,4.7734,4.7992,4.8756,4.9321,4.9705,4.9448,4.9402,4.9497,4.8888,4.8599,4.8599,4.8599,4.8599,4.8599,4.8599,4.8599,4.8599,4.8599,4.8599,4.8599,4.8599,4.8599,4.8599,4.8599,4.8599,4.8599,4.8599,4.8599,4.8599,4.8599,4.8599,4.8599,4.8599,4.8599,4.8599,4.8599,4.8417,4.7961,4.6777,4.6329,4.5808,4.4653,4.4387,4.4387,4.4387,4.4387,4.4082,4.308,4.2911,4.2655,4.1919,4.1536,4.1286,4.1286,4.1286,4.1286,4.1286,4.1286,4.1286,4.1286,4.1286,4.1286,4.1286,4.1286,4.1286,4.1286,4.1286,4.1286,4.1286,4.1035,4.0185,3.8792,3.8504,3.7631,3.6293,3.6293,3.6293]}]]